Time,TemperatureF,DewpointF,PressureIn,WindDirection,WindDirectionDegrees,WindSpeedMPH,WindSpeedGustMPH,Humidity,HourlyPrecipIn,Conditions,Clouds,dailyrainin,SoftwareType,DateUTC
2013-04-18 00:00:00,66.9,17.8,25.22,WSW,248,6.3,6.3,15,0.00,,---,0.00,VWS V14.01,2013-04-18 05:00:00,
2013-04-18 00:01:00,66.9,17.8,25.22,WSW,248,6.3,6.3,15,0.00,,---,0.00,VWS V14.01,2013-04-18 05:01:00,
2013-04-18 00:02:00,66.9,17.8,25.22,WSW,248,6.3,6.3,15,0.00,,---,0.00,VWS V14.01,2013-04-18 05:02:00,
2013-04-18 00:03:00,66.9,17.8,25.22,WSW,248,6.3,6.3,15,0.00,,---,0.00,VWS V14.01,2013-04-18 05:03:00,
2013-04-18 00:04:00,66.7,17.6,25.22,WSW,248,6.3,6.3,15,0.00,,---,0.00,VWS V14.01,2013-04-18 05:04:00,
2013-04-18 00:05:00,66.7,17.6,25.22,WSW,248,6.3,6.3,15,0.00,,---,0.00,VWS V14.01,2013-04-18 05:05:00,
2013-04-18 00:06:00,66.7,17.6,25.22,WSW,248,6.3,6.3,15,0.00,,---,0.00,VWS V14.01,2013-04-18 05:06:00,
2013-04-18 00:07:00,66.7,17.6,25.22,WSW,248,6.3,6.3,15,0.00,,---,0.00,VWS V14.01,2013-04-18 05:07:00,
2013-04-18 00:08:00,66.4,17.4,25.22,WSW,248,6.3,6.3,15,0.00,,---,0.00,VWS V14.01,2013-04-18 05:08:00,
2013-04-18 00:09:00,66.0,17.1,25.22,WSW,248,6.3,6.3,15,0.00,,---,0.00,VWS V14.01,2013-04-18 05:09:00,
2013-04-18 00:10:00,65.7,16.8,25.22,WSW,248,6.3,6.3,15,0.00,,---,0.00,VWS V14.01,2013-04-18 05:10:00,
2013-04-18 00:11:00,65.7,16.8,25.22,WSW,248,6.3,6.3,15,0.00,,---,0.00,VWS V14.01,2013-04-18 05:11:00,
2013-04-18 00:12:00,65.5,16.6,25.22,WSW,248,6.3,6.3,15,0.00,,---,0.00,VWS V14.01,2013-04-18 05:12:00,
2013-04-18 00:13:00,65.3,16.5,25.22,WSW,248,6.3,6.3,15,0.00,,---,0.00,VWS V14.01,2013-04-18 05:13:00,
2013-04-18 00:14:00,65.3,16.5,25.22,WSW,248,6.3,6.3,15,0.00,,---,0.00,VWS V14.01,2013-04-18 05:14:00,
2013-04-18 00:15:00,65.1,16.4,25.22,WSW,248,6.3,6.3,15,0.00,,---,0.00,VWS V14.01,2013-04-18 05:15:00,
2013-04-18 00:16:00,65.1,16.4,25.22,WSW,248,6.3,6.3,15,0.00,,---,0.00,VWS V14.01,2013-04-18 05:16:00,
2013-04-18 00:17:00,64.8,16.1,25.22,WSW,248,6.3,6.3,15,0.00,,---,0.00,VWS V14.01,2013-04-18 05:17:00,
2013-04-18 00:18:00,64.9,16.2,25.22,WSW,248,6.3,6.3,15,0.00,,---,0.00,VWS V14.01,2013-04-18 05:18:00,
2013-04-18 00:19:00,64.8,16.1,25.22,WSW,248,6.3,6.3,15,0.00,,---,0.00,VWS V14.01,2013-04-18 05:19:00,
2013-04-18 00:20:00,64.8,16.1,25.22,WSW,248,4.3,6.3,15,0.00,,---,0.00,VWS V14.01,2013-04-18 05:20:00,
2013-04-18 00:21:00,64.9,16.2,25.22,WSW,248,4.0,4.5,15,0.00,,---,0.00,VWS V14.01,2013-04-18 05:21:00,
2013-04-18 00:22:00,64.9,16.2,25.22,WSW,248,4.0,4.0,15,0.00,,---,0.00,VWS V14.01,2013-04-18 05:22:00,
2013-04-18 00:23:00,65.1,16.4,25.22,WSW,248,4.0,4.0,15,0.00,,---,0.00,VWS V14.01,2013-04-18 05:23:00,
2013-04-18 00:24:00,65.1,16.4,25.22,WSW,248,4.0,4.0,15,0.00,,---,0.00,VWS V14.01,2013-04-18 05:24:00,
2013-04-18 00:25:00,65.1,16.4,25.22,WSW,248,4.0,4.0,15,0.00,,---,0.00,VWS V14.01,2013-04-18 05:25:00,
2013-04-18 00:26:00,65.1,16.4,25.22,WSW,248,4.0,4.0,15,0.00,,---,0.00,VWS V14.01,2013-04-18 05:26:00,
2013-04-18 00:27:00,65.3,16.5,25.22,WSW,248,4.0,4.0,15,0.00,,---,0.00,VWS V14.01,2013-04-18 05:27:00,
2013-04-18 00:28:00,65.1,16.4,25.22,WSW,248,4.0,4.0,15,0.00,,---,0.00,VWS V14.01,2013-04-18 05:28:00,
2013-04-18 00:29:00,65.1,16.4,25.22,WSW,248,4.0,4.0,15,0.00,,---,0.00,VWS V14.01,2013-04-18 05:29:00,
2013-04-18 00:30:00,64.9,16.2,25.22,WSW,248,4.0,4.0,15,0.00,,---,0.00,VWS V14.01,2013-04-18 05:30:00,
2013-04-18 00:31:00,64.8,16.1,25.22,WSW,248,4.0,4.0,15,0.00,,---,0.00,VWS V14.01,2013-04-18 05:31:00,
2013-04-18 00:33:00,64.6,15.9,25.22,WSW,248,10.1,10.1,15,0.00,,---,0.00,VWS V14.01,2013-04-18 05:33:00,
2013-04-18 00:34:00,64.6,15.9,25.22,WSW,248,10.1,10.3,15,0.00,,---,0.00,VWS V14.01,2013-04-18 05:34:00,
2013-04-18 00:35:00,64.6,15.9,25.22,WSW,248,10.1,10.1,15,0.00,,---,0.00,VWS V14.01,2013-04-18 05:35:00,
2013-04-18 00:36:00,64.9,16.2,25.22,WSW,248,7.4,7.4,15,0.00,,---,0.00,VWS V14.01,2013-04-18 05:36:00,
2013-04-18 00:37:00,64.9,16.2,25.22,WSW,248,8.5,8.7,15,0.00,,---,0.00,VWS V14.01,2013-04-18 05:37:00,
2013-04-18 00:38:00,64.8,16.1,25.22,WSW,248,7.2,8.5,15,0.00,,---,0.00,VWS V14.01,2013-04-18 05:38:00,
2013-04-18 00:39:00,64.6,15.9,25.22,WSW,248,7.2,7.2,15,0.00,,---,0.00,VWS V14.01,2013-04-18 05:39:00,
2013-04-18 00:40:00,64.4,15.8,25.22,WSW,248,8.1,10.3,15,0.00,,---,0.00,VWS V14.01,2013-04-18 05:40:00,
2013-04-18 00:41:00,64.4,15.8,25.22,WSW,248,7.4,9.2,15,0.00,,---,0.00,VWS V14.01,2013-04-18 05:41:00,
2013-04-18 00:42:00,64.2,17.1,25.22,WSW,248,8.5,8.5,16,0.00,,---,0.00,VWS V14.01,2013-04-18 05:42:00,
2013-04-18 00:43:00,64.4,15.8,25.22,WSW,248,10.7,12.5,15,0.00,,---,0.00,VWS V14.01,2013-04-18 05:43:00,
2013-04-18 00:44:00,64.4,15.8,25.22,WSW,248,10.5,10.7,15,0.00,,---,0.00,VWS V14.01,2013-04-18 05:44:00,
2013-04-18 00:45:00,64.4,15.8,25.22,WSW,248,10.5,12.5,15,0.00,,---,0.00,VWS V14.01,2013-04-18 05:45:00,
2013-04-18 00:46:00,64.6,15.9,25.22,WSW,248,10.7,10.7,15,0.00,,---,0.00,VWS V14.01,2013-04-18 05:46:00,
2013-04-18 00:47:00,64.6,15.9,25.22,SW,225,12.8,12.8,15,0.00,,---,0.00,VWS V14.01,2013-04-18 05:47:00,
2013-04-18 00:48:00,64.8,16.1,25.22,WSW,248,15.2,15.2,15,0.00,,---,0.00,VWS V14.01,2013-04-18 05:48:00,
2013-04-18 00:49:00,64.9,16.2,25.22,WSW,248,15.2,15.2,15,0.00,,---,0.00,VWS V14.01,2013-04-18 05:49:00,
2013-04-18 00:50:00,65.1,16.4,25.22,WSW,248,16.1,16.1,15,0.00,,---,0.00,VWS V14.01,2013-04-18 05:50:00,
2013-04-18 00:51:00,64.9,16.2,25.22,WSW,248,12.3,16.1,15,0.00,,---,0.00,VWS V14.01,2013-04-18 05:51:00,
2013-04-18 00:52:00,64.9,16.2,25.22,WSW,248,12.3,12.3,15,0.00,,---,0.00,VWS V14.01,2013-04-18 05:52:00,
2013-04-18 00:53:00,64.8,16.1,25.22,WSW,248,10.7,13.0,15,0.00,,---,0.00,VWS V14.01,2013-04-18 05:53:00,
2013-04-18 00:54:00,64.8,16.1,25.25,WSW,248,12.8,13.0,15,0.00,,---,0.00,VWS V14.01,2013-04-18 05:54:00,
2013-04-18 00:55:00,64.6,15.9,25.25,WSW,248,12.3,12.8,15,0.00,,---,0.00,VWS V14.01,2013-04-18 05:55:00,
2013-04-18 00:56:00,64.6,15.9,25.25,WSW,248,10.7,12.8,15,0.00,,---,0.00,VWS V14.01,2013-04-18 05:56:00,
2013-04-18 00:57:00,64.6,15.9,25.25,WSW,248,14.8,14.8,15,0.00,,---,0.00,VWS V14.01,2013-04-18 05:57:00,
2013-04-18 00:58:00,64.4,15.8,25.25,WSW,248,12.5,14.8,15,0.00,,---,0.00,VWS V14.01,2013-04-18 05:58:00,
2013-04-18 00:59:00,64.4,15.8,25.25,SW,225,18.1,18.1,15,0.00,,---,0.00,VWS V14.01,2013-04-18 05:59:00,
2013-04-18 01:00:00,64.6,15.9,25.25,WSW,248,18.1,18.1,15,0.00,,---,0.00,VWS V14.01,2013-04-18 06:00:00,
2013-04-18 01:01:00,64.8,16.1,25.25,WSW,248,14.8,18.1,15,0.00,,---,0.00,VWS V14.01,2013-04-18 06:01:00,
2013-04-18 01:02:00,64.8,16.1,25.25,WSW,248,11.0,14.8,15,0.00,,---,0.00,VWS V14.01,2013-04-18 06:02:00,
2013-04-18 01:03:00,64.8,16.1,25.25,WSW,248,17.7,17.7,15,0.00,,---,0.00,VWS V14.01,2013-04-18 06:03:00,
2013-04-18 01:04:00,64.9,16.2,25.25,WSW,248,16.6,17.7,15,0.00,,---,0.00,VWS V14.01,2013-04-18 06:04:00,
2013-04-18 01:05:00,65.1,16.4,25.25,WSW,248,18.1,19.2,15,0.00,,---,0.00,VWS V14.01,2013-04-18 06:05:00,
2013-04-18 01:06:00,65.1,16.4,25.25,WSW,248,23.5,23.5,15,0.00,,---,0.00,VWS V14.01,2013-04-18 06:06:00,
2013-04-18 01:07:00,65.1,16.4,25.25,WSW,248,23.5,23.5,15,0.00,,---,0.00,VWS V14.01,2013-04-18 06:07:00,
2013-04-18 01:08:00,65.1,16.4,25.25,WSW,248,16.6,23.5,15,0.00,,---,0.00,VWS V14.01,2013-04-18 06:08:00,
2013-04-18 01:09:00,65.1,16.4,25.25,West,270,20.4,20.4,15,0.00,,---,0.00,VWS V14.01,2013-04-18 06:09:00,
2013-04-18 01:10:00,64.8,16.1,25.25,WSW,248,13.2,20.4,15,0.00,,---,0.00,VWS V14.01,2013-04-18 06:10:00,
2013-04-18 01:11:00,64.9,16.2,25.25,WSW,248,17.5,17.5,15,0.00,,---,0.00,VWS V14.01,2013-04-18 06:11:00,
2013-04-18 01:13:00,64.9,16.2,25.25,West,270,17.9,17.9,15,0.00,,---,0.00,VWS V14.01,2013-04-18 06:13:00,
2013-04-18 01:14:00,64.8,16.1,25.25,WSW,248,12.8,17.9,15,0.00,,---,0.00,VWS V14.01,2013-04-18 06:14:00,
2013-04-18 01:15:00,64.6,15.9,25.25,SW,225,16.1,16.1,15,0.00,,---,0.00,VWS V14.01,2013-04-18 06:15:00,
2013-04-18 01:16:00,64.6,15.9,25.25,WSW,248,15.9,15.9,15,0.00,,---,0.00,VWS V14.01,2013-04-18 06:16:00,
2013-04-18 01:17:00,64.6,15.9,25.25,West,270,19.2,19.2,15,0.00,,---,0.00,VWS V14.01,2013-04-18 06:17:00,
2013-04-18 01:18:00,64.6,15.9,25.25,WSW,248,16.6,16.6,15,0.00,,---,0.00,VWS V14.01,2013-04-18 06:18:00,
2013-04-18 01:19:00,64.4,15.8,25.25,WSW,248,11.0,16.6,15,0.00,,---,0.00,VWS V14.01,2013-04-18 06:19:00,
2013-04-18 01:20:00,64.2,17.1,25.25,WSW,248,14.8,14.8,16,0.00,,---,0.00,VWS V14.01,2013-04-18 06:20:00,
2013-04-18 01:21:00,64.2,17.1,25.25,SW,225,15.4,19.7,16,0.00,,---,0.00,VWS V14.01,2013-04-18 06:21:00,
2013-04-18 01:22:00,64.2,17.1,25.25,West,270,14.8,20.8,16,0.00,,---,0.00,VWS V14.01,2013-04-18 06:22:00,
2013-04-18 01:23:00,64.2,17.1,25.25,WSW,248,14.8,14.8,16,0.00,,---,0.00,VWS V14.01,2013-04-18 06:23:00,
2013-04-18 01:24:00,64.0,17.0,25.25,West,270,17.0,19.2,16,0.00,,---,0.00,VWS V14.01,2013-04-18 06:24:00,
2013-04-18 01:25:00,63.9,16.8,25.25,WSW,248,13.4,17.0,16,0.00,,---,0.00,VWS V14.01,2013-04-18 06:25:00,
2013-04-18 01:26:00,63.9,16.8,25.25,WSW,248,15.4,15.4,16,0.00,,---,0.00,VWS V14.01,2013-04-18 06:26:00,
2013-04-18 01:27:00,63.9,16.8,25.25,WSW,248,13.2,15.4,16,0.00,,---,0.00,VWS V14.01,2013-04-18 06:27:00,
2013-04-18 01:28:00,63.7,16.7,25.25,West,270,13.4,15.2,16,0.00,,---,0.00,VWS V14.01,2013-04-18 06:28:00,
2013-04-18 01:29:00,63.7,16.7,25.25,WSW,248,12.3,15.7,16,0.00,,---,0.00,VWS V14.01,2013-04-18 06:29:00,
2013-04-18 01:30:00,63.5,16.5,25.25,WSW,248,10.1,14.3,16,0.00,,---,0.00,VWS V14.01,2013-04-18 06:30:00,
2013-04-18 01:31:00,63.5,16.5,25.25,WSW,248,13.6,14.1,16,0.00,,---,0.00,VWS V14.01,2013-04-18 06:31:00,
2013-04-18 01:32:00,63.3,16.4,25.25,WSW,248,12.3,12.3,16,0.00,,---,0.00,VWS V14.01,2013-04-18 06:32:00,
2013-04-18 01:33:00,63.3,16.4,25.25,WSW,248,12.8,12.8,16,0.00,,---,0.00,VWS V14.01,2013-04-18 06:33:00,
2013-04-18 01:34:00,63.3,16.4,25.25,WSW,248,8.7,12.8,16,0.00,,---,0.00,VWS V14.01,2013-04-18 06:34:00,
2013-04-18 01:35:00,63.1,16.2,25.25,SW,225,10.1,11.0,16,0.00,,---,0.00,VWS V14.01,2013-04-18 06:35:00,
2013-04-18 01:36:00,63.1,16.2,25.25,SW,225,10.1,10.1,16,0.00,,---,0.00,VWS V14.01,2013-04-18 06:36:00,
2013-04-18 01:37:00,63.0,16.1,25.25,WSW,248,15.2,15.2,16,0.00,,---,0.00,VWS V14.01,2013-04-18 06:37:00,
2013-04-18 01:38:00,63.0,16.1,25.25,WSW,248,13.0,15.2,16,0.00,,---,0.00,VWS V14.01,2013-04-18 06:38:00,
2013-04-18 01:39:00,63.1,16.2,25.25,WSW,248,10.5,13.0,16,0.00,,---,0.00,VWS V14.01,2013-04-18 06:39:00,
2013-04-18 01:40:00,63.0,16.1,25.25,SW,225,7.8,10.5,16,0.00,,---,0.00,VWS V14.01,2013-04-18 06:40:00,
2013-04-18 01:41:00,62.6,15.8,25.25,WSW,248,7.2,8.1,16,0.00,,---,0.00,VWS V14.01,2013-04-18 06:41:00,
2013-04-18 01:42:00,62.6,15.8,25.25,WSW,248,9.0,9.0,16,0.00,,---,0.00,VWS V14.01,2013-04-18 06:42:00,
2013-04-18 01:43:00,62.6,15.8,25.25,WSW,248,8.7,9.0,16,0.00,,---,0.00,VWS V14.01,2013-04-18 06:43:00,
2013-04-18 01:44:00,62.4,15.7,25.25,WSW,248,8.5,8.7,16,0.00,,---,0.00,VWS V14.01,2013-04-18 06:44:00,
2013-04-18 01:45:00,62.2,15.5,25.25,WSW,248,7.8,8.5,16,0.00,,---,0.00,VWS V14.01,2013-04-18 06:45:00,
2013-04-18 01:46:00,62.2,15.5,25.25,WSW,248,6.3,7.8,16,0.00,,---,0.00,VWS V14.01,2013-04-18 06:46:00,
2013-04-18 01:47:00,62.1,15.4,25.25,WSW,248,8.7,8.7,16,0.00,,---,0.00,VWS V14.01,2013-04-18 06:47:00,
2013-04-18 01:48:00,61.9,15.2,25.25,WSW,248,6.3,8.7,16,0.00,,---,0.00,VWS V14.01,2013-04-18 06:48:00,
2013-04-18 01:49:00,61.9,15.2,25.25,WSW,248,7.8,8.5,16,0.00,,---,0.00,VWS V14.01,2013-04-18 06:49:00,
2013-04-18 01:50:00,61.9,15.2,25.25,WSW,248,8.5,8.5,16,0.00,,---,0.00,VWS V14.01,2013-04-18 06:50:00,
2013-04-18 01:51:00,61.7,15.1,25.25,WSW,248,7.4,7.4,16,0.00,,---,0.00,VWS V14.01,2013-04-18 06:51:00,
2013-04-18 01:52:00,61.7,15.1,25.25,West,270,9.4,9.4,16,0.00,,---,0.00,VWS V14.01,2013-04-18 06:52:00,
2013-04-18 01:53:00,61.5,14.9,25.25,West,270,9.8,9.8,16,0.00,,---,0.00,VWS V14.01,2013-04-18 06:53:00,
2013-04-18 01:54:00,61.5,14.9,25.25,WSW,248,7.8,9.8,16,0.00,,---,0.00,VWS V14.01,2013-04-18 06:54:00,
2013-04-18 01:55:00,61.5,14.9,25.25,SW,225,7.8,7.8,16,0.00,,---,0.00,VWS V14.01,2013-04-18 06:55:00,
2013-04-18 01:56:00,61.5,14.9,25.25,WSW,248,8.7,8.7,16,0.00,,---,0.00,VWS V14.01,2013-04-18 06:56:00,
2013-04-18 01:57:00,61.2,14.6,25.25,WSW,248,7.6,8.7,16,0.00,,---,0.00,VWS V14.01,2013-04-18 06:57:00,
2013-04-18 01:58:00,61.2,14.6,25.25,WSW,248,8.1,8.7,16,0.00,,---,0.00,VWS V14.01,2013-04-18 06:58:00,
2013-04-18 01:59:00,61.2,14.6,25.25,WSW,248,8.1,8.1,16,0.00,,---,0.00,VWS V14.01,2013-04-18 06:59:00,
2013-04-18 02:00:00,61.0,14.5,25.25,West,270,12.8,12.8,16,0.00,,---,0.00,VWS V14.01,2013-04-18 07:00:00,
2013-04-18 02:01:00,61.3,14.8,25.25,WSW,248,13.2,14.5,16,0.00,,---,0.00,VWS V14.01,2013-04-18 07:01:00,
2013-04-18 02:02:00,61.3,14.8,25.25,WSW,248,11.0,13.2,16,0.00,,---,0.00,VWS V14.01,2013-04-18 07:02:00,
2013-04-18 02:03:00,61.3,14.8,25.25,WSW,248,8.5,11.0,16,0.00,,---,0.00,VWS V14.01,2013-04-18 07:03:00,
2013-04-18 02:04:00,61.3,14.8,25.25,WSW,248,7.8,9.0,16,0.00,,---,0.00,VWS V14.01,2013-04-18 07:04:00,
2013-04-18 02:05:00,61.0,14.5,25.25,WSW,248,10.5,10.5,16,0.00,,---,0.00,VWS V14.01,2013-04-18 07:05:00,
2013-04-18 02:06:00,61.2,14.6,25.25,West,270,12.3,12.3,16,0.00,,---,0.00,VWS V14.01,2013-04-18 07:06:00,
2013-04-18 02:07:00,61.0,14.5,25.25,WSW,248,9.8,12.3,16,0.00,,---,0.00,VWS V14.01,2013-04-18 07:07:00,
2013-04-18 02:08:00,61.0,14.5,25.25,WSW,248,9.8,11.0,16,0.00,,---,0.00,VWS V14.01,2013-04-18 07:08:00,
2013-04-18 02:09:00,61.0,14.5,25.25,WSW,248,9.8,9.8,16,0.00,,---,0.00,VWS V14.01,2013-04-18 07:09:00,
2013-04-18 02:10:00,61.0,14.5,25.25,WSW,248,10.3,10.3,16,0.00,,---,0.00,VWS V14.01,2013-04-18 07:10:00,
2013-04-18 02:12:00,61.0,14.5,25.25,WSW,248,11.0,12.8,16,0.00,,---,0.00,VWS V14.01,2013-04-18 07:12:00,
2013-04-18 02:13:00,61.0,14.5,25.25,WSW,248,11.0,11.0,16,0.00,,---,0.00,VWS V14.01,2013-04-18 07:13:00,
2013-04-18 02:14:00,61.0,14.5,25.25,WSW,248,10.5,11.0,16,0.00,,---,0.00,VWS V14.01,2013-04-18 07:14:00,
2013-04-18 02:15:00,61.0,14.5,25.25,West,270,10.3,10.5,16,0.00,,---,0.00,VWS V14.01,2013-04-18 07:15:00,
2013-04-18 02:16:00,61.0,14.5,25.25,West,270,10.3,10.3,16,0.00,,---,0.00,VWS V14.01,2013-04-18 07:16:00,
2013-04-18 02:17:00,60.6,15.6,25.25,WSW,248,8.1,10.5,17,0.00,,---,0.00,VWS V14.01,2013-04-18 07:17:00,
2013-04-18 02:18:00,60.4,15.4,25.25,West,270,8.7,10.3,17,0.00,,---,0.00,VWS V14.01,2013-04-18 07:18:00,
2013-04-18 02:19:00,60.4,15.4,25.25,WSW,248,9.0,9.8,17,0.00,,---,0.00,VWS V14.01,2013-04-18 07:19:00,
2013-04-18 02:20:00,60.4,15.4,25.25,WSW,248,8.5,9.8,17,0.00,,---,0.00,VWS V14.01,2013-04-18 07:20:00,
2013-04-18 02:21:00,60.3,15.3,25.25,WSW,248,8.7,8.7,17,0.00,,---,0.00,VWS V14.01,2013-04-18 07:21:00,
2013-04-18 02:22:00,60.1,15.1,25.25,WSW,248,6.3,8.7,17,0.00,,---,0.00,VWS V14.01,2013-04-18 07:22:00,
2013-04-18 02:23:00,60.1,15.1,25.25,WSW,248,7.2,7.2,17,0.00,,---,0.00,VWS V14.01,2013-04-18 07:23:00,
2013-04-18 02:24:00,60.1,15.1,25.25,WSW,248,7.2,7.2,17,0.00,,---,0.00,VWS V14.01,2013-04-18 07:24:00,
2013-04-18 02:25:00,59.7,14.9,25.25,SW,225,6.5,7.8,17,0.00,,---,0.00,VWS V14.01,2013-04-18 07:25:00,
2013-04-18 02:26:00,59.5,14.7,25.25,WSW,248,8.7,8.7,17,0.00,,---,0.00,VWS V14.01,2013-04-18 07:26:00,
2013-04-18 02:27:00,59.4,14.6,25.25,WSW,248,8.1,8.7,17,0.00,,---,0.00,VWS V14.01,2013-04-18 07:27:00,
2013-04-18 02:28:00,59.5,14.7,25.25,West,270,10.5,10.5,17,0.00,,---,0.00,VWS V14.01,2013-04-18 07:28:00,
2013-04-18 02:29:00,59.7,14.9,25.25,West,270,12.3,12.3,17,0.00,,---,0.00,VWS V14.01,2013-04-18 07:29:00,
2013-04-18 02:30:00,59.9,15.0,25.25,SW,225,9.6,12.3,17,0.00,,---,0.00,VWS V14.01,2013-04-18 07:30:00,
2013-04-18 02:31:00,59.7,14.9,25.25,SW,225,9.2,10.1,17,0.00,,---,0.00,VWS V14.01,2013-04-18 07:31:00,
2013-04-18 02:32:00,59.7,14.9,25.25,SW,225,9.2,9.2,17,0.00,,---,0.00,VWS V14.01,2013-04-18 07:32:00,
2013-04-18 02:33:00,59.9,15.0,25.25,WSW,248,13.2,15.4,17,0.00,,---,0.00,VWS V14.01,2013-04-18 07:33:00,
2013-04-18 02:34:00,60.4,15.4,25.25,WSW,248,15.2,15.4,17,0.00,,---,0.00,VWS V14.01,2013-04-18 07:34:00,
2013-04-18 02:35:00,60.4,15.4,25.25,West,270,10.7,15.2,17,0.00,,---,0.00,VWS V14.01,2013-04-18 07:35:00,
2013-04-18 02:36:00,60.4,15.4,25.25,West,270,10.7,14.8,17,0.00,,---,0.00,VWS V14.01,2013-04-18 07:36:00,
2013-04-18 02:37:00,60.4,15.4,25.25,WSW,248,8.5,14.8,17,0.00,,---,0.00,VWS V14.01,2013-04-18 07:37:00,
2013-04-18 02:38:00,60.3,15.3,25.25,West,270,11.0,11.0,17,0.00,,---,0.00,VWS V14.01,2013-04-18 07:38:00,
2013-04-18 02:39:00,60.3,15.3,25.25,West,270,7.4,11.0,17,0.00,,---,0.00,VWS V14.01,2013-04-18 07:39:00,
2013-04-18 02:40:00,59.9,17.6,25.25,WSW,248,10.7,11.0,19,0.00,,---,0.00,VWS V14.01,2013-04-18 07:40:00,
2013-04-18 02:41:00,60.1,17.7,25.25,WSW,248,15.2,15.2,19,0.00,,---,0.00,VWS V14.01,2013-04-18 07:41:00,
2013-04-18 02:42:00,60.1,17.7,25.25,West,270,10.3,15.2,19,0.00,,---,0.00,VWS V14.01,2013-04-18 07:42:00,
2013-04-18 02:43:00,60.1,17.7,25.25,West,270,12.3,12.3,19,0.00,,---,0.00,VWS V14.01,2013-04-18 07:43:00,
2013-04-18 02:44:00,60.1,17.7,25.25,West,270,11.0,12.3,19,0.00,,---,0.00,VWS V14.01,2013-04-18 07:44:00,
2013-04-18 02:45:00,59.9,17.6,25.25,West,270,10.1,11.0,19,0.00,,---,0.00,VWS V14.01,2013-04-18 07:45:00,
2013-04-18 02:46:00,59.9,17.6,25.25,WSW,248,14.1,14.1,19,0.00,,---,0.00,VWS V14.01,2013-04-18 07:46:00,
2013-04-18 02:47:00,59.7,14.9,25.25,WSW,248,9.8,9.8,17,0.00,,---,0.00,VWS V14.01,2013-04-18 07:47:00,
2013-04-18 02:48:00,59.7,14.9,25.25,West,270,7.6,9.8,17,0.00,,---,0.00,VWS V14.01,2013-04-18 07:48:00,
2013-04-18 02:49:00,59.5,14.7,25.25,West,270,9.0,9.0,17,0.00,,---,0.00,VWS V14.01,2013-04-18 07:49:00,
2013-04-18 02:50:00,59.5,14.7,25.25,West,270,10.1,11.0,17,0.00,,---,0.00,VWS V14.01,2013-04-18 07:50:00,
2013-04-18 02:51:00,59.4,14.6,25.25,West,270,9.8,10.1,17,0.00,,---,0.00,VWS V14.01,2013-04-18 07:51:00,
2013-04-18 02:52:00,59.2,14.4,25.25,West,270,8.7,8.7,17,0.00,,---,0.00,VWS V14.01,2013-04-18 07:52:00,
2013-04-18 02:53:00,59.2,14.4,25.25,West,270,6.5,8.7,17,0.00,,---,0.00,VWS V14.01,2013-04-18 07:53:00,
2013-04-18 02:54:00,59.2,14.4,25.28,WNW,292,8.5,8.5,17,0.00,,---,0.00,VWS V14.01,2013-04-18 07:54:00,
2013-04-18 02:55:00,59.0,14.3,25.28,West,270,6.3,8.5,17,0.00,,---,0.00,VWS V14.01,2013-04-18 07:55:00,
2013-04-18 02:56:00,58.6,14.0,25.28,West,270,6.5,8.5,17,0.00,,---,0.00,VWS V14.01,2013-04-18 07:56:00,
2013-04-18 02:57:00,58.6,16.5,25.28,WNW,292,7.2,7.4,19,0.00,,---,0.00,VWS V14.01,2013-04-18 07:57:00,
2013-04-18 02:58:00,58.5,13.8,25.28,WNW,292,4.3,7.2,17,0.00,,---,0.00,VWS V14.01,2013-04-18 07:58:00,
2013-04-18 02:59:00,58.3,13.7,25.28,WNW,292,5.6,5.8,17,0.00,,---,0.00,VWS V14.01,2013-04-18 07:59:00,
2013-04-18 03:00:00,58.3,13.7,25.28,WNW,292,4.3,5.6,17,0.00,,---,0.00,VWS V14.01,2013-04-18 08:00:00,
2013-04-18 03:01:00,58.1,13.5,25.28,WNW,292,4.3,4.3,17,0.00,,---,0.00,VWS V14.01,2013-04-18 08:01:00,
2013-04-18 03:02:00,58.1,13.5,25.28,WNW,292,3.8,4.3,17,0.00,,---,0.00,VWS V14.01,2013-04-18 08:02:00,
2013-04-18 03:03:00,57.9,13.4,25.28,West,270,4.9,4.9,17,0.00,,---,0.00,VWS V14.01,2013-04-18 08:03:00,
2013-04-18 03:04:00,57.9,15.9,25.28,WNW,292,5.6,5.8,19,0.00,,---,0.00,VWS V14.01,2013-04-18 08:04:00,
2013-04-18 03:06:00,57.9,15.9,25.28,NW,315,3.8,5.8,19,0.00,,---,0.00,VWS V14.01,2013-04-18 08:06:00,
2013-04-18 03:07:00,57.7,13.2,25.28,NW,315,3.8,5.8,17,0.00,,---,0.00,VWS V14.01,2013-04-18 08:07:00,
2013-04-18 03:08:00,57.6,15.6,25.28,NW,315,6.0,6.0,19,0.00,,---,0.00,VWS V14.01,2013-04-18 08:08:00,
2013-04-18 03:09:00,57.6,15.6,25.28,NNW,338,5.6,6.0,19,0.00,,---,0.00,VWS V14.01,2013-04-18 08:09:00,
2013-04-18 03:10:00,57.6,15.6,25.31,North,0,7.4,7.8,19,0.00,,---,0.00,VWS V14.01,2013-04-18 08:10:00,
2013-04-18 03:11:00,57.6,15.6,25.31,North,0,9.6,10.3,19,0.00,,---,0.00,VWS V14.01,2013-04-18 08:11:00,
2013-04-18 03:12:00,57.6,15.6,25.31,NNE,22,8.1,10.3,19,0.00,,---,0.00,VWS V14.01,2013-04-18 08:12:00,
2013-04-18 03:13:00,57.4,15.5,25.31,NNE,22,9.6,9.6,19,0.00,,---,0.00,VWS V14.01,2013-04-18 08:13:00,
2013-04-18 03:14:00,57.2,15.3,25.31,NE,45,9.6,9.6,19,0.00,,---,0.00,VWS V14.01,2013-04-18 08:14:00,
2013-04-18 03:15:00,57.0,16.4,25.31,NE,45,7.4,10.1,20,0.00,,---,0.00,VWS V14.01,2013-04-18 08:15:00,
2013-04-18 03:16:00,56.8,16.2,25.31,NE,45,9.2,10.1,20,0.00,,---,0.00,VWS V14.01,2013-04-18 08:16:00,
2013-04-18 03:17:00,56.7,16.1,25.31,NNE,22,7.6,10.1,20,0.00,,---,0.00,VWS V14.01,2013-04-18 08:17:00,
2013-04-18 03:18:00,56.5,15.9,25.31,ENE,68,9.6,9.6,20,0.00,,---,0.00,VWS V14.01,2013-04-18 08:18:00,
2013-04-18 03:19:00,56.3,12.1,25.31,NNE,22,8.5,10.3,17,0.00,,---,0.00,VWS V14.01,2013-04-18 08:19:00,
2013-04-18 03:20:00,56.5,12.2,25.31,NNE,22,8.7,10.5,17,0.00,,---,0.00,VWS V14.01,2013-04-18 08:20:00,
2013-04-18 03:21:00,56.5,12.2,25.31,NNE,22,8.5,11.0,17,0.00,,---,0.00,VWS V14.01,2013-04-18 08:21:00,
2013-04-18 03:22:00,56.7,12.4,25.31,NNE,22,10.5,11.9,17,0.00,,---,0.00,VWS V14.01,2013-04-18 08:22:00,
2013-04-18 03:23:00,56.7,12.4,25.31,NNE,22,10.5,12.8,17,0.00,,---,0.00,VWS V14.01,2013-04-18 08:23:00,
2013-04-18 03:24:00,56.7,12.4,25.31,North,0,10.5,10.5,17,0.00,,---,0.00,VWS V14.01,2013-04-18 08:24:00,
2013-04-18 03:25:00,56.8,12.5,25.31,North,0,9.8,10.5,17,0.00,,---,0.00,VWS V14.01,2013-04-18 08:25:00,
2013-04-18 03:26:00,57.0,12.7,25.31,NNW,338,7.8,9.8,17,0.00,,---,0.00,VWS V14.01,2013-04-18 08:26:00,
2013-04-18 03:27:00,56.8,12.5,25.31,North,0,8.5,9.8,17,0.00,,---,0.00,VWS V14.01,2013-04-18 08:27:00,
2013-04-18 03:28:00,56.8,12.5,25.31,North,0,8.5,8.5,17,0.00,,---,0.00,VWS V14.01,2013-04-18 08:28:00,
2013-04-18 03:29:00,56.8,12.5,25.31,NNW,338,8.5,8.5,17,0.00,,---,0.00,VWS V14.01,2013-04-18 08:29:00,
2013-04-18 03:30:00,56.8,12.5,25.31,NNW,338,7.4,8.5,17,0.00,,---,0.00,VWS V14.01,2013-04-18 08:30:00,
2013-04-18 03:31:00,56.7,12.4,25.31,North,0,12.3,12.3,17,0.00,,---,0.00,VWS V14.01,2013-04-18 08:31:00,
2013-04-18 03:32:00,56.8,12.5,25.31,NNE,22,10.1,12.3,17,0.00,,---,0.00,VWS V14.01,2013-04-18 08:32:00,
2013-04-18 03:33:00,56.8,12.5,25.31,NNW,338,8.1,11.0,17,0.00,,---,0.00,VWS V14.01,2013-04-18 08:33:00,
2013-04-18 03:34:00,56.7,12.4,25.31,NNE,22,7.2,8.5,17,0.00,,---,0.00,VWS V14.01,2013-04-18 08:34:00,
2013-04-18 03:35:00,56.7,12.4,25.31,North,0,10.1,10.1,17,0.00,,---,0.00,VWS V14.01,2013-04-18 08:35:00,
2013-04-18 03:36:00,56.7,12.4,25.31,NNW,338,8.1,10.1,17,0.00,,---,0.00,VWS V14.01,2013-04-18 08:36:00,
2013-04-18 03:37:00,56.7,12.4,25.31,North,0,11.4,12.3,17,0.00,,---,0.00,VWS V14.01,2013-04-18 08:37:00,
2013-04-18 03:38:00,56.7,12.4,25.31,NNW,338,12.3,15.2,17,0.00,,---,0.00,VWS V14.01,2013-04-18 08:38:00,
2013-04-18 03:39:00,56.7,12.4,25.31,NNW,338,10.7,14.3,17,0.00,,---,0.00,VWS V14.01,2013-04-18 08:39:00,
2013-04-18 03:40:00,56.7,12.4,25.31,NNE,22,11.4,11.4,17,0.00,,---,0.00,VWS V14.01,2013-04-18 08:40:00,
2013-04-18 03:41:00,56.7,12.4,25.31,North,0,12.8,12.8,17,0.00,,---,0.00,VWS V14.01,2013-04-18 08:41:00,
2013-04-18 03:42:00,56.5,12.2,25.31,NNW,338,10.5,12.8,17,0.00,,---,0.00,VWS V14.01,2013-04-18 08:42:00,
2013-04-18 03:43:00,56.3,12.1,25.31,North,0,9.8,12.5,17,0.00,,---,0.00,VWS V14.01,2013-04-18 08:43:00,
2013-04-18 03:44:00,56.3,12.1,25.31,North,0,10.7,13.6,17,0.00,,---,0.00,VWS V14.01,2013-04-18 08:44:00,
2013-04-18 03:45:00,56.1,11.9,25.31,North,0,7.4,11.0,17,0.00,,---,0.00,VWS V14.01,2013-04-18 08:45:00,
2013-04-18 03:46:00,56.1,11.9,25.31,NNE,22,8.1,10.5,17,0.00,,---,0.00,VWS V14.01,2013-04-18 08:46:00,
2013-04-18 03:47:00,55.9,11.8,25.31,North,0,10.5,12.5,17,0.00,,---,0.00,VWS V14.01,2013-04-18 08:47:00,
2013-04-18 03:48:00,55.9,11.8,25.31,NNW,338,9.8,11.4,17,0.00,,---,0.00,VWS V14.01,2013-04-18 08:48:00,
2013-04-18 03:49:00,55.8,11.6,25.31,NNE,22,8.7,10.1,17,0.00,,---,0.00,VWS V14.01,2013-04-18 08:49:00,
2013-04-18 03:50:00,55.4,11.3,25.31,North,0,7.6,10.3,17,0.00,,---,0.00,VWS V14.01,2013-04-18 08:50:00,
2013-04-18 03:51:00,55.4,11.3,25.31,North,0,9.4,11.0,17,0.00,,---,0.00,VWS V14.01,2013-04-18 08:51:00,
2013-04-18 03:52:00,55.4,11.3,25.31,North,0,7.4,11.0,17,0.00,,---,0.00,VWS V14.01,2013-04-18 08:52:00,
2013-04-18 03:53:00,55.2,12.5,25.28,North,0,8.1,8.1,18,0.00,,---,0.00,VWS V14.01,2013-04-18 08:53:00,
2013-04-18 03:54:00,55.2,12.5,25.28,NNW,338,10.5,11.9,18,0.00,,---,0.00,VWS V14.01,2013-04-18 08:54:00,
2013-04-18 03:55:00,55.2,12.5,25.28,NNW,338,13.0,15.4,18,0.00,,---,0.00,VWS V14.01,2013-04-18 08:55:00,
2013-04-18 03:56:00,55.2,12.5,25.28,North,0,12.5,13.9,18,0.00,,---,0.00,VWS V14.01,2013-04-18 08:56:00,
2013-04-18 03:57:00,55.2,12.5,25.28,North,0,14.8,14.8,18,0.00,,---,0.00,VWS V14.01,2013-04-18 08:57:00,
2013-04-18 03:58:00,55.2,12.5,25.28,NNW,338,7.6,14.8,18,0.00,,---,0.00,VWS V14.01,2013-04-18 08:58:00,
2013-04-18 03:59:00,55.0,12.3,25.28,NNW,338,8.7,12.8,18,0.00,,---,0.00,VWS V14.01,2013-04-18 08:59:00,
2013-04-18 04:00:00,55.0,12.3,25.28,North,0,12.8,14.1,18,0.00,,---,0.00,VWS V14.01,2013-04-18 09:00:00,
2013-04-18 04:01:00,55.0,12.3,25.28,NNW,338,12.8,13.2,18,0.00,,---,0.00,VWS V14.01,2013-04-18 09:01:00,
2013-04-18 04:02:00,55.0,12.3,25.28,North,0,14.1,14.1,18,0.00,,---,0.00,VWS V14.01,2013-04-18 09:02:00,
2013-04-18 04:03:00,55.0,12.3,25.28,NNW,338,13.6,14.1,18,0.00,,---,0.00,VWS V14.01,2013-04-18 09:03:00,
2013-04-18 04:04:00,55.0,12.3,25.28,North,0,10.7,13.6,18,0.00,,---,0.00,VWS V14.01,2013-04-18 09:04:00,
2013-04-18 04:05:00,54.5,11.9,25.28,North,0,17.7,17.7,18,0.00,,---,0.00,VWS V14.01,2013-04-18 09:05:00,
2013-04-18 04:06:00,54.5,11.9,25.28,North,0,18.8,21.0,18,0.00,,---,0.00,VWS V14.01,2013-04-18 09:06:00,
2013-04-18 04:07:00,54.5,11.9,25.28,North,0,17.2,18.8,18,0.00,,---,0.00,VWS V14.01,2013-04-18 09:07:00,
2013-04-18 04:08:00,54.5,11.9,25.28,NNW,338,17.5,17.5,18,0.00,,---,0.00,VWS V14.01,2013-04-18 09:08:00,
2013-04-18 04:09:00,54.5,11.9,25.31,North,0,16.6,19.7,18,0.00,,---,0.00,VWS V14.01,2013-04-18 09:09:00,
2013-04-18 04:10:00,54.5,11.9,25.31,North,0,17.0,18.6,18,0.00,,---,0.00,VWS V14.01,2013-04-18 09:10:00,
2013-04-18 04:11:00,54.5,11.9,25.31,NNW,338,13.0,17.0,18,0.00,,---,0.00,VWS V14.01,2013-04-18 09:11:00,
2013-04-18 04:12:00,54.5,11.9,25.31,NNW,338,13.0,19.7,18,0.00,,---,0.00,VWS V14.01,2013-04-18 09:12:00,
2013-04-18 04:13:00,54.5,11.9,25.31,NNE,22,13.2,13.2,18,0.00,,---,0.00,VWS V14.01,2013-04-18 09:13:00,
2013-04-18 04:14:00,54.5,11.9,25.31,NNW,338,17.2,19.5,18,0.00,,---,0.00,VWS V14.01,2013-04-18 09:14:00,
2013-04-18 04:15:00,54.5,11.9,25.31,NNW,338,17.2,17.2,18,0.00,,---,0.00,VWS V14.01,2013-04-18 09:15:00,
2013-04-18 04:16:00,54.1,11.6,25.31,North,0,18.1,18.1,18,0.00,,---,0.00,VWS V14.01,2013-04-18 09:16:00,
2013-04-18 04:17:00,54.0,11.4,25.31,North,0,16.3,18.1,18,0.00,,---,0.00,VWS V14.01,2013-04-18 09:17:00,
2013-04-18 04:18:00,54.0,11.4,25.31,North,0,16.3,16.3,18,0.00,,---,0.00,VWS V14.01,2013-04-18 09:18:00,
2013-04-18 04:19:00,54.0,11.4,25.31,North,0,17.0,17.0,18,0.00,,---,0.00,VWS V14.01,2013-04-18 09:19:00,
2013-04-18 04:20:00,54.0,11.4,25.31,NNW,338,19.7,19.7,18,0.00,,---,0.00,VWS V14.01,2013-04-18 09:20:00,
2013-04-18 04:21:00,54.0,11.4,25.31,North,0,17.2,21.3,18,0.00,,---,0.00,VWS V14.01,2013-04-18 09:21:00,
2013-04-18 04:24:00,54.0,11.4,25.31,North,0,13.2,17.2,18,0.00,,---,0.00,VWS V14.01,2013-04-18 09:24:00,
2013-04-18 04:25:00,53.4,11.0,25.31,North,0,19.5,19.5,18,0.00,,---,0.00,VWS V14.01,2013-04-18 09:25:00,
2013-04-18 04:26:00,53.2,10.9,25.31,North,0,14.1,19.5,18,0.00,,---,0.00,VWS V14.01,2013-04-18 09:26:00,
2013-04-18 04:27:00,53.2,10.9,25.31,North,0,13.4,17.2,18,0.00,,---,0.00,VWS V14.01,2013-04-18 09:27:00,
2013-04-18 04:28:00,53.2,10.9,25.31,North,0,13.2,16.1,18,0.00,,---,0.00,VWS V14.01,2013-04-18 09:28:00,
2013-04-18 04:29:00,53.1,10.7,25.31,North,0,13.0,15.9,18,0.00,,---,0.00,VWS V14.01,2013-04-18 09:29:00,
2013-04-18 04:30:00,53.1,10.7,25.31,North,0,13.0,13.0,18,0.00,,---,0.00,VWS V14.01,2013-04-18 09:30:00,
2013-04-18 04:31:00,53.1,10.7,25.31,North,0,13.0,15.2,18,0.00,,---,0.00,VWS V14.01,2013-04-18 09:31:00,
2013-04-18 04:32:00,53.1,10.7,25.31,NNW,338,13.0,17.7,18,0.00,,---,0.00,VWS V14.01,2013-04-18 09:32:00,
2013-04-18 04:33:00,53.1,10.7,25.31,North,0,17.7,17.7,18,0.00,,---,0.00,VWS V14.01,2013-04-18 09:33:00,
2013-04-18 04:34:00,52.9,10.6,25.31,NNW,338,15.2,17.7,18,0.00,,---,0.00,VWS V14.01,2013-04-18 09:34:00,
2013-04-18 04:35:00,52.9,10.6,25.31,North,0,15.4,15.4,18,0.00,,---,0.00,VWS V14.01,2013-04-18 09:35:00,
2013-04-18 04:36:00,52.7,10.4,25.31,NNW,338,15.4,15.4,18,0.00,,---,0.00,VWS V14.01,2013-04-18 09:36:00,
2013-04-18 04:37:00,52.7,10.4,25.31,North,0,13.9,17.2,18,0.00,,---,0.00,VWS V14.01,2013-04-18 09:37:00,
2013-04-18 04:38:00,52.7,10.4,25.31,NNW,338,13.2,15.2,18,0.00,,---,0.00,VWS V14.01,2013-04-18 09:38:00,
2013-04-18 04:39:00,52.7,10.4,25.31,NNW,338,13.0,13.2,18,0.00,,---,0.00,VWS V14.01,2013-04-18 09:39:00,
2013-04-18 04:40:00,52.7,10.4,25.31,NNW,338,15.7,15.7,18,0.00,,---,0.00,VWS V14.01,2013-04-18 09:40:00,
2013-04-18 04:41:00,52.5,10.2,25.31,NNW,338,11.4,12.5,18,0.00,,---,0.00,VWS V14.01,2013-04-18 09:41:00,
2013-04-18 04:42:00,52.5,10.2,25.31,North,0,15.2,15.2,18,0.00,,---,0.00,VWS V14.01,2013-04-18 09:42:00,
2013-04-18 04:43:00,52.5,10.2,25.31,NNW,338,10.7,15.2,18,0.00,,---,0.00,VWS V14.01,2013-04-18 09:43:00,
2013-04-18 04:44:00,52.3,10.1,25.31,NNW,338,15.2,15.2,18,0.00,,---,0.00,VWS V14.01,2013-04-18 09:44:00,
2013-04-18 04:45:00,52.3,10.1,25.31,NNW,338,13.4,15.2,18,0.00,,---,0.00,VWS V14.01,2013-04-18 09:45:00,
2013-04-18 04:46:00,52.3,10.1,25.31,NNW,338,11.4,14.5,18,0.00,,---,0.00,VWS V14.01,2013-04-18 09:46:00,
2013-04-18 04:47:00,52.3,10.1,25.31,NNW,338,12.8,12.8,18,0.00,,---,0.00,VWS V14.01,2013-04-18 09:47:00,
2013-04-18 04:48:00,52.2,10.0,25.31,NNW,338,13.0,13.0,18,0.00,,---,0.00,VWS V14.01,2013-04-18 09:48:00,
2013-04-18 04:49:00,52.2,10.0,25.31,NNW,338,9.4,13.2,18,0.00,,---,0.00,VWS V14.01,2013-04-18 09:49:00,
2013-04-18 04:50:00,52.0,9.8,25.31,NNE,22,12.5,12.5,18,0.00,,---,0.00,VWS V14.01,2013-04-18 09:50:00,
2013-04-18 04:51:00,51.8,9.7,25.31,NNW,338,17.7,17.9,18,0.00,,---,0.00,VWS V14.01,2013-04-18 09:51:00,
2013-04-18 04:52:00,51.8,9.7,25.31,North,0,19.5,19.5,18,0.00,,---,0.00,VWS V14.01,2013-04-18 09:52:00,
2013-04-18 04:53:00,51.8,9.7,25.31,North,0,10.1,19.5,18,0.00,,---,0.00,VWS V14.01,2013-04-18 09:53:00,
2013-04-18 04:54:00,51.6,10.7,25.34,North,0,15.4,17.5,19,0.00,,---,0.00,VWS V14.01,2013-04-18 09:54:00,
2013-04-18 04:55:00,51.6,10.7,25.34,North,0,12.5,17.0,19,0.00,,---,0.00,VWS V14.01,2013-04-18 09:55:00,
2013-04-18 04:56:00,51.4,10.6,25.34,NNW,338,13.0,13.0,19,0.00,,---,0.00,VWS V14.01,2013-04-18 09:56:00,
2013-04-18 04:57:00,51.3,10.4,25.34,North,0,15.4,15.4,19,0.00,,---,0.00,VWS V14.01,2013-04-18 09:57:00,
2013-04-18 04:58:00,51.3,10.4,25.34,NNW,338,17.0,17.0,19,0.00,,---,0.00,VWS V14.01,2013-04-18 09:58:00,
2013-04-18 04:59:00,51.1,10.3,25.34,North,0,15.4,17.0,19,0.00,,---,0.00,VWS V14.01,2013-04-18 09:59:00,
2013-04-18 05:00:00,51.1,10.3,25.34,NNE,22,13.0,17.0,19,0.00,,---,0.00,VWS V14.01,2013-04-18 10:00:00,
2013-04-18 05:01:00,51.1,10.3,25.34,North,0,10.5,14.3,19,0.00,,---,0.00,VWS V14.01,2013-04-18 10:01:00,
2013-04-18 05:02:00,51.1,10.3,25.34,North,0,12.3,13.0,19,0.00,,---,0.00,VWS V14.01,2013-04-18 10:02:00,
2013-04-18 05:03:00,50.9,10.1,25.34,North,0,9.8,13.0,19,0.00,,---,0.00,VWS V14.01,2013-04-18 10:03:00,
2013-04-18 05:04:00,50.7,10.0,25.34,North,0,14.5,14.5,19,0.00,,---,0.00,VWS V14.01,2013-04-18 10:04:00,
2013-04-18 05:05:00,50.7,10.0,25.34,North,0,12.8,14.5,19,0.00,,---,0.00,VWS V14.01,2013-04-18 10:05:00,
2013-04-18 05:06:00,50.7,10.0,25.34,North,0,11.0,13.2,19,0.00,,---,0.00,VWS V14.01,2013-04-18 10:06:00,
2013-04-18 05:07:00,50.5,9.8,25.34,North,0,10.1,11.0,19,0.00,,---,0.00,VWS V14.01,2013-04-18 10:07:00,
2013-04-18 05:08:00,50.5,9.8,25.34,NNW,338,8.7,13.2,19,0.00,,---,0.00,VWS V14.01,2013-04-18 10:08:00,
2013-04-18 05:09:00,50.4,9.7,25.34,North,0,14.5,14.5,19,0.00,,---,0.00,VWS V14.01,2013-04-18 10:09:00,
2013-04-18 05:10:00,50.4,9.7,25.34,North,0,12.8,14.5,19,0.00,,---,0.00,VWS V14.01,2013-04-18 10:10:00,
2013-04-18 05:11:00,50.4,9.7,25.34,North,0,14.5,15.4,19,0.00,,---,0.00,VWS V14.01,2013-04-18 10:11:00,
2013-04-18 05:12:00,50.4,9.7,25.34,North,0,13.2,15.7,19,0.00,,---,0.00,VWS V14.01,2013-04-18 10:12:00,
2013-04-18 05:13:00,50.4,9.7,25.34,North,0,12.5,13.2,19,0.00,,---,0.00,VWS V14.01,2013-04-18 10:13:00,
2013-04-18 05:14:00,50.2,9.5,25.34,North,0,15.9,15.9,19,0.00,,---,0.00,VWS V14.01,2013-04-18 10:14:00,
2013-04-18 05:15:00,50.2,9.5,25.34,NNW,338,8.7,15.9,19,0.00,,---,0.00,VWS V14.01,2013-04-18 10:15:00,
2013-04-18 05:16:00,50.2,9.5,25.34,NNW,338,8.7,8.7,19,0.00,,---,0.00,VWS V14.01,2013-04-18 10:16:00,
2013-04-18 05:17:00,50.2,9.5,25.34,North,0,12.5,13.2,19,0.00,,---,0.00,VWS V14.01,2013-04-18 10:17:00,
2013-04-18 05:18:00,50.0,9.4,25.34,North,0,10.7,12.8,19,0.00,,---,0.00,VWS V14.01,2013-04-18 10:18:00,
2013-04-18 05:19:00,50.0,9.4,25.34,North,0,8.1,10.7,19,0.00,,---,0.00,VWS V14.01,2013-04-18 10:19:00,
2013-04-18 05:20:00,49.8,9.2,25.34,North,0,10.1,10.7,19,0.00,,---,0.00,VWS V14.01,2013-04-18 10:20:00,
2013-04-18 05:21:00,49.8,9.2,25.34,NNE,22,13.2,15.9,19,0.00,,---,0.00,VWS V14.01,2013-04-18 10:21:00,
2013-04-18 05:22:00,49.8,9.2,25.34,North,0,10.1,13.2,19,0.00,,---,0.00,VWS V14.01,2013-04-18 10:22:00,
2013-04-18 05:23:00,49.6,9.1,25.34,North,0,10.3,10.3,19,0.00,,---,0.00,VWS V14.01,2013-04-18 10:23:00,
2013-04-18 05:24:00,49.6,9.1,25.34,North,0,10.5,13.0,19,0.00,,---,0.00,VWS V14.01,2013-04-18 10:24:00,
2013-04-18 05:25:00,49.5,8.9,25.34,North,0,13.0,15.4,19,0.00,,---,0.00,VWS V14.01,2013-04-18 10:25:00,
2013-04-18 05:26:00,49.5,8.9,25.34,NNE,22,13.2,13.2,19,0.00,,---,0.00,VWS V14.01,2013-04-18 10:26:00,
2013-04-18 05:27:00,49.5,8.9,25.34,NNE,22,11.0,13.2,19,0.00,,---,0.00,VWS V14.01,2013-04-18 10:27:00,
2013-04-18 05:28:00,49.3,8.8,25.34,North,0,10.3,11.0,19,0.00,,---,0.00,VWS V14.01,2013-04-18 10:28:00,
2013-04-18 05:29:00,49.3,8.8,25.34,North,0,12.3,12.5,19,0.00,,---,0.00,VWS V14.01,2013-04-18 10:29:00,
2013-04-18 05:30:00,49.3,8.8,25.34,North,0,12.8,13.4,19,0.00,,---,0.00,VWS V14.01,2013-04-18 10:30:00,
2013-04-18 05:31:00,49.3,8.8,25.34,North,0,12.8,12.8,19,0.00,,---,0.00,VWS V14.01,2013-04-18 10:31:00,
2013-04-18 05:32:00,49.3,8.8,25.34,North,0,12.8,16.1,19,0.00,,---,0.00,VWS V14.01,2013-04-18 10:32:00,
2013-04-18 05:33:00,49.3,8.8,25.34,North,0,15.4,17.0,19,0.00,,---,0.00,VWS V14.01,2013-04-18 10:33:00,
2013-04-18 05:34:00,49.3,8.8,25.34,North,0,13.2,15.4,19,0.00,,---,0.00,VWS V14.01,2013-04-18 10:34:00,
2013-04-18 05:35:00,49.3,8.8,25.34,NNE,22,13.2,13.2,19,0.00,,---,0.00,VWS V14.01,2013-04-18 10:35:00,
2013-04-18 05:36:00,49.3,8.8,25.34,North,0,17.0,17.0,19,0.00,,---,0.00,VWS V14.01,2013-04-18 10:36:00,
2013-04-18 05:37:00,49.3,8.8,25.34,North,0,13.0,17.0,19,0.00,,---,0.00,VWS V14.01,2013-04-18 10:37:00,
2013-04-18 05:38:00,49.3,8.8,25.34,NNE,22,13.9,13.9,19,0.00,,---,0.00,VWS V14.01,2013-04-18 10:38:00,
2013-04-18 05:39:00,49.3,8.8,25.37,North,0,15.7,15.7,19,0.00,,---,0.00,VWS V14.01,2013-04-18 10:39:00,
2013-04-18 05:40:00,49.3,8.8,25.37,North,0,14.3,15.7,19,0.00,,---,0.00,VWS V14.01,2013-04-18 10:40:00,
2013-04-18 05:41:00,49.1,8.6,25.37,NNE,22,14.8,14.8,19,0.00,,---,0.00,VWS V14.01,2013-04-18 10:41:00,
2013-04-18 05:42:00,49.1,8.6,25.37,North,0,12.3,14.8,19,0.00,,---,0.00,VWS V14.01,2013-04-18 10:42:00,
2013-04-18 05:43:00,49.1,8.6,25.37,North,0,10.5,12.3,19,0.00,,---,0.00,VWS V14.01,2013-04-18 10:43:00,
2013-04-18 05:44:00,48.9,8.5,25.37,North,0,11.0,12.1,19,0.00,,---,0.00,VWS V14.01,2013-04-18 10:44:00,
2013-04-18 05:45:00,48.9,8.5,25.37,North,0,11.0,11.0,19,0.00,,---,0.00,VWS V14.01,2013-04-18 10:45:00,
2013-04-18 05:46:00,48.9,8.5,25.37,NW,315,7.6,11.0,19,0.00,,---,0.00,VWS V14.01,2013-04-18 10:46:00,
2013-04-18 05:47:00,48.7,8.3,25.37,North,0,9.6,9.8,19,0.00,,---,0.00,VWS V14.01,2013-04-18 10:47:00,
2013-04-18 05:48:00,48.7,8.3,25.37,NNW,338,9.8,12.3,19,0.00,,---,0.00,VWS V14.01,2013-04-18 10:48:00,
2013-04-18 05:49:00,48.7,8.3,25.37,North,0,10.1,12.3,19,0.00,,---,0.00,VWS V14.01,2013-04-18 10:49:00,
2013-04-18 05:50:00,48.7,8.3,25.37,North,0,10.1,10.1,19,0.00,,---,0.00,VWS V14.01,2013-04-18 10:50:00,
2013-04-18 05:51:00,48.7,8.3,25.37,North,0,10.3,13.0,19,0.00,,---,0.00,VWS V14.01,2013-04-18 10:51:00,
2013-04-18 05:52:00,48.7,10.6,25.37,North,0,8.5,10.3,21,0.00,,---,0.00,VWS V14.01,2013-04-18 10:52:00,
2013-04-18 05:53:00,48.6,10.4,25.37,North,0,11.0,11.0,21,0.00,,---,0.00,VWS V14.01,2013-04-18 10:53:00,
2013-04-18 05:54:00,48.6,10.4,25.37,North,0,12.3,12.8,21,0.00,,---,0.00,VWS V14.01,2013-04-18 10:54:00,
2013-04-18 05:55:00,48.6,10.4,25.37,North,0,7.8,12.8,21,0.00,,---,0.00,VWS V14.01,2013-04-18 10:55:00,
2013-04-18 05:56:00,48.6,10.4,25.37,North,0,10.1,13.0,21,0.00,,---,0.00,VWS V14.01,2013-04-18 10:56:00,
2013-04-18 05:57:00,48.4,10.3,25.37,NNE,22,11.0,12.5,21,0.00,,---,0.00,VWS V14.01,2013-04-18 10:57:00,
2013-04-18 05:58:00,48.4,10.3,25.37,NNW,338,13.0,13.2,21,0.00,,---,0.00,VWS V14.01,2013-04-18 10:58:00,
2013-04-18 05:59:00,48.4,10.3,25.37,NNW,338,14.5,14.5,21,0.00,,---,0.00,VWS V14.01,2013-04-18 10:59:00,
2013-04-18 06:00:00,48.4,10.3,25.37,NNW,338,10.1,14.5,21,0.00,,---,0.00,VWS V14.01,2013-04-18 11:00:00,
2013-04-18 06:01:00,48.4,10.3,25.37,North,0,11.0,12.5,21,0.00,,---,0.00,VWS V14.01,2013-04-18 11:01:00,
2013-04-18 06:02:00,48.4,10.3,25.37,North,0,8.5,12.5,21,0.00,,---,0.00,VWS V14.01,2013-04-18 11:02:00,
2013-04-18 06:03:00,48.4,10.3,25.37,North,0,12.8,13.2,21,0.00,,---,0.00,VWS V14.01,2013-04-18 11:03:00,
2013-04-18 06:04:00,48.4,10.3,25.37,North,0,11.2,11.2,21,0.00,,---,0.00,VWS V14.01,2013-04-18 11:04:00,
2013-04-18 06:05:00,48.4,10.3,25.37,NNW,338,12.5,12.5,21,0.00,,---,0.00,VWS V14.01,2013-04-18 11:05:00,
2013-04-18 06:06:00,48.4,10.3,25.37,North,0,10.3,12.8,21,0.00,,---,0.00,VWS V14.01,2013-04-18 11:06:00,
2013-04-18 06:07:00,48.4,10.3,25.37,North,0,8.5,11.0,21,0.00,,---,0.00,VWS V14.01,2013-04-18 11:07:00,
2013-04-18 06:08:00,48.2,10.1,25.37,NW,315,10.1,12.3,21,0.00,,---,0.00,VWS V14.01,2013-04-18 11:08:00,
2013-04-18 06:09:00,48.2,10.1,25.37,North,0,10.7,11.0,21,0.00,,---,0.00,VWS V14.01,2013-04-18 11:09:00,
2013-04-18 06:10:00,48.2,10.1,25.37,North,0,10.7,10.7,21,0.00,,---,0.00,VWS V14.01,2013-04-18 11:10:00,
2013-04-18 06:11:00,48.2,10.1,25.37,North,0,11.0,12.3,21,0.00,,---,0.00,VWS V14.01,2013-04-18 11:11:00,
2013-04-18 06:12:00,48.0,11.0,25.37,North,0,10.5,12.3,22,0.00,,---,0.00,VWS V14.01,2013-04-18 11:12:00,
2013-04-18 06:13:00,48.0,11.0,25.37,North,0,11.0,11.0,22,0.00,,---,0.00,VWS V14.01,2013-04-18 11:13:00,
2013-04-18 06:14:00,47.8,10.9,25.37,North,0,9.8,12.3,22,0.00,,---,0.00,VWS V14.01,2013-04-18 11:14:00,
2013-04-18 06:15:00,47.8,10.9,25.37,North,0,10.1,10.1,22,0.00,,---,0.00,VWS V14.01,2013-04-18 11:15:00,
2013-04-18 06:16:00,47.8,10.9,25.37,North,0,10.1,10.7,22,0.00,,---,0.00,VWS V14.01,2013-04-18 11:16:00,
2013-04-18 06:17:00,47.8,10.9,25.37,NNW,338,10.1,10.7,22,0.00,,---,0.00,VWS V14.01,2013-04-18 11:17:00,
2013-04-18 06:18:00,47.7,10.7,25.37,NNW,338,9.8,13.0,22,0.00,,---,0.00,VWS V14.01,2013-04-18 11:18:00,
2013-04-18 06:19:00,47.7,10.7,25.37,NNW,338,9.8,9.8,22,0.00,,---,0.00,VWS V14.01,2013-04-18 11:19:00,
2013-04-18 06:20:00,47.7,10.7,25.37,North,0,9.6,10.1,22,0.00,,---,0.00,VWS V14.01,2013-04-18 11:20:00,
2013-04-18 06:21:00,47.5,10.6,25.37,NNW,338,5.6,9.6,22,0.00,,---,0.00,VWS V14.01,2013-04-18 11:21:00,
2013-04-18 06:22:00,47.5,10.6,25.37,NNW,338,5.6,5.6,22,0.00,,---,0.00,VWS V14.01,2013-04-18 11:22:00,
2013-04-18 06:23:00,47.3,10.4,25.37,North,0,8.1,10.7,22,0.00,,---,0.00,VWS V14.01,2013-04-18 11:23:00,
2013-04-18 06:24:00,47.3,10.4,25.37,NNE,22,7.6,8.5,22,0.00,,---,0.00,VWS V14.01,2013-04-18 11:24:00,
2013-04-18 06:25:00,47.3,10.4,25.37,North,0,8.1,8.7,22,0.00,,---,0.00,VWS V14.01,2013-04-18 11:25:00,
2013-04-18 06:26:00,47.1,10.2,25.37,NNW,338,10.7,10.7,22,0.00,,---,0.00,VWS V14.01,2013-04-18 11:26:00,
2013-04-18 06:27:00,47.1,10.2,25.37,NNE,22,9.8,10.7,22,0.00,,---,0.00,VWS V14.01,2013-04-18 11:27:00,
2013-04-18 06:28:00,47.1,10.2,25.37,North,0,6.5,9.8,22,0.00,,---,0.00,VWS V14.01,2013-04-18 11:28:00,
2013-04-18 06:29:00,47.1,10.2,25.37,North,0,9.8,10.1,22,0.00,,---,0.00,VWS V14.01,2013-04-18 11:29:00,
2013-04-18 06:30:00,47.1,10.2,25.37,North,0,11.0,11.0,22,0.00,,---,0.00,VWS V14.01,2013-04-18 11:30:00,
2013-04-18 06:32:00,47.1,10.2,25.37,NNW,338,9.2,11.0,22,0.00,,---,0.00,VWS V14.01,2013-04-18 11:32:00,
2013-04-18 06:33:00,46.9,10.1,25.37,North,0,9.8,9.8,22,0.00,,---,0.00,VWS V14.01,2013-04-18 11:33:00,
2013-04-18 06:34:00,46.9,10.1,25.37,North,0,8.7,11.0,22,0.00,,---,0.00,VWS V14.01,2013-04-18 11:34:00,
2013-04-18 06:35:00,46.9,10.1,25.37,North,0,10.7,11.0,22,0.00,,---,0.00,VWS V14.01,2013-04-18 11:35:00,
2013-04-18 06:36:00,46.8,9.9,25.37,North,0,10.3,10.7,22,0.00,,---,0.00,VWS V14.01,2013-04-18 11:36:00,
2013-04-18 06:37:00,46.8,9.9,25.37,NNE,22,7.6,10.3,22,0.00,,---,0.00,VWS V14.01,2013-04-18 11:37:00,
2013-04-18 06:38:00,46.8,9.9,25.37,NNE,22,9.6,9.6,22,0.00,,---,0.00,VWS V14.01,2013-04-18 11:38:00,
2013-04-18 06:39:00,46.6,9.8,25.37,NNE,22,9.2,10.3,22,0.00,,---,0.00,VWS V14.01,2013-04-18 11:39:00,
2013-04-18 06:40:00,46.6,9.8,25.37,NNE,22,9.8,9.8,22,0.00,,---,0.00,VWS V14.01,2013-04-18 11:40:00,
2013-04-18 06:41:00,46.6,9.8,25.37,NNE,22,8.1,9.8,22,0.00,,---,0.00,VWS V14.01,2013-04-18 11:41:00,
2013-04-18 06:42:00,46.6,9.8,25.37,North,0,10.5,10.5,22,0.00,,---,0.00,VWS V14.01,2013-04-18 11:42:00,
2013-04-18 06:43:00,46.6,9.8,25.37,North,0,8.5,10.5,22,0.00,,---,0.00,VWS V14.01,2013-04-18 11:43:00,
2013-04-18 06:44:00,46.6,9.8,25.37,North,0,8.1,10.7,22,0.00,,---,0.00,VWS V14.01,2013-04-18 11:44:00,
2013-04-18 06:45:00,46.4,9.6,25.37,NNE,22,10.1,10.5,22,0.00,,---,0.00,VWS V14.01,2013-04-18 11:45:00,
2013-04-18 06:46:00,46.4,9.6,25.37,NNE,22,10.1,10.1,22,0.00,,---,0.00,VWS V14.01,2013-04-18 11:46:00,
2013-04-18 06:47:00,46.4,9.6,25.37,NNE,22,10.5,12.3,22,0.00,,---,0.00,VWS V14.01,2013-04-18 11:47:00,
2013-04-18 06:48:00,46.4,9.6,25.37,North,0,7.6,10.5,22,0.00,,---,0.00,VWS V14.01,2013-04-18 11:48:00,
2013-04-18 06:49:00,46.4,9.6,25.37,North,0,12.3,12.3,22,0.00,,---,0.00,VWS V14.01,2013-04-18 11:49:00,
2013-04-18 06:50:00,46.2,9.5,25.37,North,0,8.5,12.3,22,0.00,,---,0.00,VWS V14.01,2013-04-18 11:50:00,
2013-04-18 06:51:00,46.2,9.5,25.37,North,0,10.1,10.1,22,0.00,,---,0.00,VWS V14.01,2013-04-18 11:51:00,
2013-04-18 06:52:00,46.2,9.5,25.37,NNE,22,10.3,12.5,22,0.00,,---,0.00,VWS V14.01,2013-04-18 11:52:00,
2013-04-18 06:53:00,46.2,9.5,25.37,North,0,10.3,11.0,22,0.00,,---,0.00,VWS V14.01,2013-04-18 11:53:00,
2013-04-18 06:54:00,46.2,9.5,25.37,NNW,338,10.1,12.8,22,0.00,,---,0.00,VWS V14.01,2013-04-18 11:54:00,
2013-04-18 06:55:00,46.2,9.5,25.37,North,0,13.0,13.0,22,0.00,,---,0.00,VWS V14.01,2013-04-18 11:55:00,
2013-04-18 06:56:00,46.2,9.5,25.37,North,0,10.3,13.0,22,0.00,,---,0.00,VWS V14.01,2013-04-18 11:56:00,
2013-04-18 06:57:00,46.2,9.5,25.37,North,0,12.3,12.3,22,0.00,,---,0.00,VWS V14.01,2013-04-18 11:57:00,
2013-04-18 06:58:00,46.2,9.5,25.37,North,0,11.0,11.0,22,0.00,,---,0.00,VWS V14.01,2013-04-18 11:58:00,
2013-04-18 06:59:00,46.2,9.5,25.37,North,0,8.1,11.0,22,0.00,,---,0.00,VWS V14.01,2013-04-18 11:59:00,
2013-04-18 07:00:00,46.2,9.5,25.37,North,0,12.1,12.1,22,0.00,,---,0.00,VWS V14.01,2013-04-18 12:00:00,
2013-04-18 07:01:00,46.2,9.5,25.37,North,0,10.3,12.1,22,0.00,,---,0.00,VWS V14.01,2013-04-18 12:01:00,
2013-04-18 07:02:00,46.2,9.5,25.37,NNW,338,9.8,10.5,22,0.00,,---,0.00,VWS V14.01,2013-04-18 12:02:00,
2013-04-18 07:03:00,46.2,9.5,25.37,NNW,338,10.1,10.1,22,0.00,,---,0.00,VWS V14.01,2013-04-18 12:03:00,
2013-04-18 07:04:00,46.2,12.4,25.37,North,0,9.8,10.7,25,0.00,,---,0.00,VWS V14.01,2013-04-18 12:04:00,
2013-04-18 07:05:00,46.2,12.4,25.37,NNE,22,11.0,11.0,25,0.00,,---,0.00,VWS V14.01,2013-04-18 12:05:00,
2013-04-18 07:06:00,46.2,12.4,25.37,North,0,12.5,12.5,25,0.00,,---,0.00,VWS V14.01,2013-04-18 12:06:00,
2013-04-18 07:07:00,46.2,12.4,25.37,North,0,12.5,12.5,25,0.00,,---,0.00,VWS V14.01,2013-04-18 12:07:00,
2013-04-18 07:08:00,46.0,12.2,25.37,North,0,12.3,13.0,25,0.00,,---,0.00,VWS V14.01,2013-04-18 12:08:00,
2013-04-18 07:09:00,46.0,12.2,25.37,NNE,22,13.0,13.0,25,0.00,,---,0.00,VWS V14.01,2013-04-18 12:09:00,
2013-04-18 07:10:00,46.0,12.2,25.37,NNE,22,12.5,13.9,25,0.00,,---,0.00,VWS V14.01,2013-04-18 12:10:00,
2013-04-18 07:11:00,45.9,12.0,25.37,NE,45,13.2,13.2,25,0.00,,---,0.00,VWS V14.01,2013-04-18 12:11:00,
2013-04-18 07:12:00,45.9,13.8,25.37,NNE,22,14.8,14.8,27,0.00,,---,0.00,VWS V14.01,2013-04-18 12:12:00,
2013-04-18 07:13:00,45.7,14.5,25.37,NNE,22,15.7,15.7,28,0.00,,---,0.00,VWS V14.01,2013-04-18 12:13:00,
2013-04-18 07:14:00,45.3,15.7,25.37,NNE,22,13.6,15.7,30,0.00,,---,0.00,VWS V14.01,2013-04-18 12:14:00,
2013-04-18 07:15:00,45.3,16.5,25.37,NE,45,14.8,14.8,31,0.00,,---,0.00,VWS V14.01,2013-04-18 12:15:00,
2013-04-18 07:16:00,45.3,17.2,25.37,NE,45,15.7,15.7,32,0.00,,---,0.00,VWS V14.01,2013-04-18 12:16:00,
2013-04-18 07:17:00,45.3,17.9,25.37,NE,45,12.5,12.5,33,0.00,,---,0.00,VWS V14.01,2013-04-18 12:17:00,
2013-04-18 07:18:00,45.3,19.3,25.37,NNE,22,11.0,13.2,35,0.00,,---,0.00,VWS V14.01,2013-04-18 12:18:00,
2013-04-18 07:19:00,45.3,20.0,25.37,NE,45,12.8,12.8,36,0.00,,---,0.00,VWS V14.01,2013-04-18 12:19:00,
2013-04-18 07:20:00,45.1,21.1,25.37,NE,45,15.2,15.2,38,0.00,,---,0.00,VWS V14.01,2013-04-18 12:20:00,
2013-04-18 07:21:00,44.8,21.4,25.37,ENE,68,14.8,18.8,39,0.00,,---,0.00,VWS V14.01,2013-04-18 12:21:00,
2013-04-18 07:22:00,44.2,22.6,25.37,ENE,68,18.1,18.1,42,0.00,,---,0.00,VWS V14.01,2013-04-18 12:22:00,
2013-04-18 07:23:00,44.2,22.6,25.37,ENE,68,10.5,18.1,42,0.00,,---,0.00,VWS V14.01,2013-04-18 12:23:00,
2013-04-18 07:24:00,44.1,23.0,25.39,NE,45,15.4,17.2,43,0.00,,---,0.00,VWS V14.01,2013-04-18 12:24:00,
2013-04-18 07:25:00,44.1,23.0,25.39,ENE,68,13.9,15.4,43,0.00,,---,0.00,VWS V14.01,2013-04-18 12:25:00,
2013-04-18 07:26:00,44.1,23.6,25.39,NNE,22,12.5,13.9,44,0.00,,---,0.00,VWS V14.01,2013-04-18 12:26:00,
2013-04-18 07:27:00,44.1,23.6,25.39,NNE,22,12.5,15.2,44,0.00,,---,0.00,VWS V14.01,2013-04-18 12:27:00,
2013-04-18 07:28:00,44.1,23.6,25.39,ENE,68,14.8,14.8,44,0.00,,---,0.00,VWS V14.01,2013-04-18 12:28:00,
2013-04-18 07:29:00,43.9,23.4,25.39,NE,45,15.2,17.2,44,0.00,,---,0.00,VWS V14.01,2013-04-18 12:29:00,
2013-04-18 07:30:00,43.5,24.1,25.39,NNE,22,17.5,17.5,46,0.00,,---,0.00,VWS V14.01,2013-04-18 12:30:00,
2013-04-18 07:31:00,43.7,24.3,25.39,NE,45,13.0,17.5,46,0.00,,---,0.00,VWS V14.01,2013-04-18 12:31:00,
2013-04-18 07:32:00,43.7,24.3,25.39,NE,45,13.6,13.6,46,0.00,,---,0.00,VWS V14.01,2013-04-18 12:32:00,
2013-04-18 07:33:00,43.9,25.0,25.39,NE,45,10.7,13.6,47,0.00,,---,0.00,VWS V14.01,2013-04-18 12:33:00,
2013-04-18 07:34:00,43.7,24.8,25.39,NNE,22,16.6,17.7,47,0.00,,---,0.00,VWS V14.01,2013-04-18 12:34:00,
2013-04-18 07:35:00,43.7,24.8,25.39,ENE,68,15.9,19.0,47,0.00,,---,0.00,VWS V14.01,2013-04-18 12:35:00,
2013-04-18 07:36:00,43.5,25.1,25.39,ENE,68,12.8,17.2,48,0.00,,---,0.00,VWS V14.01,2013-04-18 12:36:00,
2013-04-18 07:37:00,43.3,25.0,25.39,ENE,68,13.0,15.2,48,0.00,,---,0.00,VWS V14.01,2013-04-18 12:37:00,
2013-04-18 07:38:00,43.2,24.8,25.39,ENE,68,14.8,17.2,48,0.00,,---,0.00,VWS V14.01,2013-04-18 12:38:00,
2013-04-18 07:39:00,43.0,24.6,25.39,NE,45,14.8,16.6,48,0.00,,---,0.00,VWS V14.01,2013-04-18 12:39:00,
2013-04-18 07:40:00,42.8,24.5,25.39,NNE,22,10.5,14.8,48,0.00,,---,0.00,VWS V14.01,2013-04-18 12:40:00,
2013-04-18 07:41:00,42.8,24.5,25.39,NE,45,12.8,13.6,48,0.00,,---,0.00,VWS V14.01,2013-04-18 12:41:00,
2013-04-18 07:42:00,42.8,24.5,25.39,ENE,68,15.2,15.2,48,0.00,,---,0.00,VWS V14.01,2013-04-18 12:42:00,
2013-04-18 07:43:00,42.8,24.5,25.39,ENE,68,17.5,17.5,48,0.00,,---,0.00,VWS V14.01,2013-04-18 12:43:00,
2013-04-18 07:44:00,42.4,24.6,25.39,NNE,22,12.1,17.5,49,0.00,,---,0.00,VWS V14.01,2013-04-18 12:44:00,
2013-04-18 07:45:00,42.4,24.6,25.39,NE,45,17.7,17.7,49,0.00,,---,0.00,VWS V14.01,2013-04-18 12:45:00,
2013-04-18 07:46:00,42.4,24.6,25.39,NE,45,14.5,17.7,49,0.00,,---,0.00,VWS V14.01,2013-04-18 12:46:00,
2013-04-18 07:47:00,42.4,24.6,25.39,NE,45,12.3,14.5,49,0.00,,---,0.00,VWS V14.01,2013-04-18 12:47:00,
2013-04-18 07:48:00,42.4,25.1,25.39,NE,45,15.4,15.4,50,0.00,,---,0.00,VWS V14.01,2013-04-18 12:48:00,
2013-04-18 07:49:00,42.4,25.1,25.39,NE,45,11.0,17.2,50,0.00,,---,0.00,VWS V14.01,2013-04-18 12:49:00,
2013-04-18 07:50:00,42.4,25.1,25.39,NE,45,15.2,17.0,50,0.00,,---,0.00,VWS V14.01,2013-04-18 12:50:00,
2013-04-18 07:51:00,42.1,24.8,25.39,NE,45,14.1,15.4,50,0.00,,---,0.00,VWS V14.01,2013-04-18 12:51:00,
2013-04-18 07:52:00,42.1,24.8,25.39,NE,45,12.8,12.8,50,0.00,,---,0.00,VWS V14.01,2013-04-18 12:52:00,
2013-04-18 07:53:00,42.1,24.8,25.39,NNE,22,10.5,12.8,50,0.00,,---,0.00,VWS V14.01,2013-04-18 12:53:00,
2013-04-18 07:54:00,42.3,25.0,25.45,NNE,22,10.3,11.0,50,0.00,,---,0.00,VWS V14.01,2013-04-18 12:54:00,
2013-04-18 07:55:00,42.4,25.1,25.45,NNE,22,10.1,13.4,50,0.00,,---,0.00,VWS V14.01,2013-04-18 12:55:00,
2013-04-18 07:56:00,42.4,25.1,25.45,NNE,22,10.1,10.1,50,0.00,,---,0.00,VWS V14.01,2013-04-18 12:56:00,
2013-04-18 07:57:00,43.3,26.0,25.45,NNE,22,12.3,15.2,50,0.00,,---,0.00,VWS V14.01,2013-04-18 12:57:00,
2013-04-18 07:58:00,43.5,25.6,25.45,NNE,22,13.2,15.2,49,0.00,,---,0.00,VWS V14.01,2013-04-18 12:58:00,
2013-04-18 07:59:00,43.5,25.6,25.45,NNE,22,14.5,17.5,49,0.00,,---,0.00,VWS V14.01,2013-04-18 12:59:00,
2013-04-18 08:00:00,43.3,25.5,25.45,ENE,68,17.9,17.9,49,0.00,,---,0.00,VWS V14.01,2013-04-18 13:00:00,
2013-04-18 08:01:00,43.0,25.1,25.45,NE,45,15.2,19.9,49,0.00,,---,0.00,VWS V14.01,2013-04-18 13:01:00,
2013-04-18 08:02:00,43.0,25.1,25.45,NNE,22,13.2,15.9,49,0.00,,---,0.00,VWS V14.01,2013-04-18 13:02:00,
2013-04-18 08:03:00,42.8,25.0,25.45,NNE,22,19.5,19.7,49,0.00,,---,0.00,VWS V14.01,2013-04-18 13:03:00,
2013-04-18 08:04:00,42.4,25.1,25.45,NNE,22,17.5,20.1,50,0.00,,---,0.00,VWS V14.01,2013-04-18 13:04:00,
2013-04-18 08:05:00,42.3,25.0,25.45,NE,45,15.4,20.1,50,0.00,,---,0.00,VWS V14.01,2013-04-18 13:05:00,
2013-04-18 08:06:00,42.4,25.1,25.45,NE,45,12.3,15.4,50,0.00,,---,0.00,VWS V14.01,2013-04-18 13:06:00,
2013-04-18 08:07:00,42.6,25.3,25.45,NE,45,8.5,12.3,50,0.00,,---,0.00,VWS V14.01,2013-04-18 13:07:00,
2013-04-18 08:08:00,42.8,25.5,25.45,NE,45,12.8,12.8,50,0.00,,---,0.00,VWS V14.01,2013-04-18 13:08:00,
2013-04-18 08:09:00,43.0,25.1,25.42,NNE,22,12.8,12.8,49,0.00,,---,0.00,VWS V14.01,2013-04-18 13:09:00,
2013-04-18 08:10:00,42.8,25.0,25.42,NNE,22,12.8,14.5,49,0.00,,---,0.00,VWS V14.01,2013-04-18 13:10:00,
2013-04-18 08:11:00,42.8,25.0,25.42,ENE,68,10.3,13.2,49,0.00,,---,0.00,VWS V14.01,2013-04-18 13:11:00,
2013-04-18 08:12:00,42.6,24.8,25.42,NE,45,14.3,16.6,49,0.00,,---,0.00,VWS V14.01,2013-04-18 13:12:00,
2013-04-18 08:13:00,42.6,24.8,25.42,NNE,22,15.2,15.2,49,0.00,,---,0.00,VWS V14.01,2013-04-18 13:13:00,
2013-04-18 08:14:00,42.6,25.3,25.42,NNE,22,13.2,15.4,50,0.00,,---,0.00,VWS V14.01,2013-04-18 13:14:00,
2013-04-18 08:15:00,42.6,25.3,25.42,NNE,22,12.3,16.8,50,0.00,,---,0.00,VWS V14.01,2013-04-18 13:15:00,
2013-04-18 08:16:00,42.6,25.3,25.42,NE,45,15.4,15.4,50,0.00,,---,0.00,VWS V14.01,2013-04-18 13:16:00,
2013-04-18 08:17:00,42.6,25.3,25.42,NE,45,15.4,15.4,50,0.00,,---,0.00,VWS V14.01,2013-04-18 13:17:00,
2013-04-18 08:18:00,42.6,25.3,25.42,NE,45,15.4,15.4,50,0.00,,---,0.00,VWS V14.01,2013-04-18 13:18:00,
2013-04-18 08:19:00,42.6,24.8,25.42,NE,45,15.4,16.1,49,0.00,,---,0.00,VWS V14.01,2013-04-18 13:19:00,
2013-04-18 08:20:00,42.6,24.8,25.42,NNE,22,10.5,15.4,49,0.00,,---,0.00,VWS V14.01,2013-04-18 13:20:00,
2013-04-18 08:21:00,42.6,24.8,25.42,NE,45,11.4,11.4,49,0.00,,---,0.00,VWS V14.01,2013-04-18 13:21:00,
2013-04-18 08:22:00,42.6,24.8,25.42,NNE,22,13.2,13.2,49,0.00,,---,0.00,VWS V14.01,2013-04-18 13:22:00,
2013-04-18 08:23:00,42.6,24.8,25.42,NNE,22,15.4,15.4,49,0.00,,---,0.00,VWS V14.01,2013-04-18 13:23:00,
2013-04-18 08:24:00,42.6,24.8,25.42,NNE,22,15.4,15.4,49,0.00,,---,0.00,VWS V14.01,2013-04-18 13:24:00,
2013-04-18 08:25:00,42.3,24.5,25.42,NNE,22,15.2,15.4,49,0.00,,---,0.00,VWS V14.01,2013-04-18 13:25:00,
2013-04-18 08:27:00,42.3,24.5,25.42,NNE,22,14.5,15.2,49,0.00,,---,0.00,VWS V14.01,2013-04-18 13:27:00,
2013-04-18 08:28:00,42.1,24.3,25.42,NE,45,12.5,14.5,49,0.00,,---,0.00,VWS V14.01,2013-04-18 13:28:00,
2013-04-18 08:29:00,42.3,25.0,25.42,NE,45,13.2,13.6,50,0.00,,---,0.00,VWS V14.01,2013-04-18 13:29:00,
2013-04-18 08:30:00,42.3,24.5,25.42,NE,45,14.3,14.3,49,0.00,,---,0.00,VWS V14.01,2013-04-18 13:30:00,
2013-04-18 08:31:00,42.4,24.6,25.42,NE,45,9.8,14.3,49,0.00,,---,0.00,VWS V14.01,2013-04-18 13:31:00,
2013-04-18 08:32:00,42.6,24.8,25.42,NNE,22,14.3,14.3,49,0.00,,---,0.00,VWS V14.01,2013-04-18 13:32:00,
2013-04-18 08:33:00,42.6,24.8,25.42,NE,45,11.0,14.3,49,0.00,,---,0.00,VWS V14.01,2013-04-18 13:33:00,
2013-04-18 08:34:00,42.6,24.8,25.42,NNE,22,11.0,12.1,49,0.00,,---,0.00,VWS V14.01,2013-04-18 13:34:00,
2013-04-18 08:35:00,42.8,25.0,25.42,NNE,22,15.2,15.2,49,0.00,,---,0.00,VWS V14.01,2013-04-18 13:35:00,
2013-04-18 08:36:00,43.0,25.1,25.42,NNE,22,12.5,15.2,49,0.00,,---,0.00,VWS V14.01,2013-04-18 13:36:00,
2013-04-18 08:37:00,43.0,24.6,25.42,NNE,22,17.2,17.2,48,0.00,,---,0.00,VWS V14.01,2013-04-18 13:37:00,
2013-04-18 08:38:00,43.0,24.6,25.42,NNE,22,10.5,17.2,48,0.00,,---,0.00,VWS V14.01,2013-04-18 13:38:00,
2013-04-18 08:39:00,43.0,24.6,25.42,NNE,22,13.2,13.2,48,0.00,,---,0.00,VWS V14.01,2013-04-18 13:39:00,
2013-04-18 08:41:00,43.0,24.6,25.42,NNE,22,10.7,13.9,48,0.00,,---,0.00,VWS V14.01,2013-04-18 13:41:00,
2013-04-18 08:42:00,43.0,24.6,25.42,NE,45,12.5,13.9,48,0.00,,---,0.00,VWS V14.01,2013-04-18 13:42:00,
2013-04-18 08:43:00,43.0,24.6,25.42,NNE,22,12.5,13.0,48,0.00,,---,0.00,VWS V14.01,2013-04-18 13:43:00,
2013-04-18 08:44:00,43.0,24.6,25.42,NNE,22,12.8,12.8,48,0.00,,---,0.00,VWS V14.01,2013-04-18 13:44:00,
2013-04-18 08:45:00,43.2,24.8,25.42,NNE,22,10.5,13.2,48,0.00,,---,0.00,VWS V14.01,2013-04-18 13:45:00,
2013-04-18 08:46:00,43.2,24.8,25.42,NNE,22,10.5,10.5,48,0.00,,---,0.00,VWS V14.01,2013-04-18 13:46:00,
2013-04-18 08:47:00,43.2,24.8,25.42,NNE,22,12.5,12.5,48,0.00,,---,0.00,VWS V14.01,2013-04-18 13:47:00,
2013-04-18 08:48:00,43.3,25.0,25.42,NNE,22,15.4,15.4,48,0.00,,---,0.00,VWS V14.01,2013-04-18 13:48:00,
2013-04-18 08:49:00,43.3,25.0,25.42,NNE,22,13.9,15.4,48,0.00,,---,0.00,VWS V14.01,2013-04-18 13:49:00,
2013-04-18 08:50:00,43.5,25.1,25.42,NNE,22,14.8,17.5,48,0.00,,---,0.00,VWS V14.01,2013-04-18 13:50:00,
2013-04-18 08:51:00,43.2,24.8,25.42,NE,45,12.3,12.3,48,0.00,,---,0.00,VWS V14.01,2013-04-18 13:51:00,
2013-04-18 08:52:00,43.2,24.8,25.42,NNE,22,15.7,15.7,48,0.00,,---,0.00,VWS V14.01,2013-04-18 13:52:00,
2013-04-18 08:53:00,43.0,24.6,25.42,NNE,22,11.0,15.7,48,0.00,,---,0.00,VWS V14.01,2013-04-18 13:53:00,
2013-04-18 08:54:00,43.0,24.6,25.42,NNE,22,15.2,15.2,48,0.00,,---,0.00,VWS V14.01,2013-04-18 13:54:00,
2013-04-18 08:55:00,43.0,24.6,25.42,NE,45,11.0,15.4,48,0.00,,---,0.00,VWS V14.01,2013-04-18 13:55:00,
2013-04-18 08:56:00,43.2,24.8,25.42,North,0,12.1,12.1,48,0.00,,---,0.00,VWS V14.01,2013-04-18 13:56:00,
2013-04-18 08:57:00,43.3,25.0,25.42,NNE,22,9.8,12.1,48,0.00,,---,0.00,VWS V14.01,2013-04-18 13:57:00,
2013-04-18 08:58:00,43.5,25.1,25.42,North,0,13.2,15.4,48,0.00,,---,0.00,VWS V14.01,2013-04-18 13:58:00,
2013-04-18 08:59:00,43.5,24.6,25.42,NNE,22,12.1,13.2,47,0.00,,---,0.00,VWS V14.01,2013-04-18 13:59:00,
2013-04-18 09:00:00,43.5,24.6,25.42,NNE,22,14.3,14.3,47,0.00,,---,0.00,VWS V14.01,2013-04-18 14:00:00,
2013-04-18 09:01:00,44.4,25.5,25.42,NNE,22,12.5,14.3,47,0.00,,---,0.00,VWS V14.01,2013-04-18 14:01:00,
2013-04-18 09:02:00,45.0,26.0,25.42,NNE,22,13.0,13.0,47,0.00,,---,0.00,VWS V14.01,2013-04-18 14:02:00,
2013-04-18 09:03:00,45.1,25.1,25.42,NNE,22,10.5,13.0,45,0.00,,---,0.00,VWS V14.01,2013-04-18 14:03:00,
2013-04-18 09:04:00,45.1,25.1,25.42,NNE,22,12.5,13.0,45,0.00,,---,0.00,VWS V14.01,2013-04-18 14:04:00,
2013-04-18 09:05:00,45.0,24.9,25.42,NNE,22,13.0,16.8,45,0.00,,---,0.00,VWS V14.01,2013-04-18 14:05:00,
2013-04-18 09:06:00,45.1,25.1,25.42,NNE,22,17.0,17.0,45,0.00,,---,0.00,VWS V14.01,2013-04-18 14:06:00,
2013-04-18 09:07:00,44.8,24.8,25.42,NE,45,12.3,17.0,45,0.00,,---,0.00,VWS V14.01,2013-04-18 14:07:00,
2013-04-18 09:08:00,44.8,24.8,25.42,NNE,22,15.2,15.2,45,0.00,,---,0.00,VWS V14.01,2013-04-18 14:08:00,
2013-04-18 09:09:00,44.8,24.8,25.42,NNE,22,13.0,15.7,45,0.00,,---,0.00,VWS V14.01,2013-04-18 14:09:00,
2013-04-18 09:10:00,44.8,24.8,25.42,NNE,22,12.5,13.0,45,0.00,,---,0.00,VWS V14.01,2013-04-18 14:10:00,
2013-04-18 09:11:00,44.8,24.2,25.45,NNE,22,13.2,13.2,44,0.00,,---,0.00,VWS V14.01,2013-04-18 14:11:00,
2013-04-18 09:12:00,45.0,24.9,25.45,NNE,22,12.5,13.2,45,0.00,,---,0.00,VWS V14.01,2013-04-18 14:12:00,
2013-04-18 09:13:00,45.1,25.1,25.45,NE,45,12.8,15.9,45,0.00,,---,0.00,VWS V14.01,2013-04-18 14:13:00,
2013-04-18 09:14:00,45.1,24.5,25.45,NE,45,11.0,12.8,44,0.00,,---,0.00,VWS V14.01,2013-04-18 14:14:00,
2013-04-18 09:15:00,45.3,24.7,25.45,NE,45,13.0,14.8,44,0.00,,---,0.00,VWS V14.01,2013-04-18 14:15:00,
2013-04-18 09:16:00,45.3,24.2,25.45,NNE,22,10.7,16.3,43,0.00,,---,0.00,VWS V14.01,2013-04-18 14:16:00,
2013-04-18 09:18:00,45.3,24.7,25.45,NE,45,8.1,11.4,44,0.00,,---,0.00,VWS V14.01,2013-04-18 14:18:00,
2013-04-18 09:19:00,45.9,25.2,25.45,NE,45,7.4,11.0,44,0.00,,---,0.00,VWS V14.01,2013-04-18 14:19:00,
2013-04-18 09:20:00,46.2,25.0,25.45,NNE,22,12.3,12.3,43,0.00,,---,0.00,VWS V14.01,2013-04-18 14:20:00,
2013-04-18 09:21:00,46.2,24.4,25.45,NNE,22,10.5,12.8,42,0.00,,---,0.00,VWS V14.01,2013-04-18 14:21:00,
2013-04-18 09:22:00,46.2,24.4,25.45,NNE,22,11.0,14.8,42,0.00,,---,0.00,VWS V14.01,2013-04-18 14:22:00,
2013-04-18 09:23:00,45.7,23.9,25.45,NNE,22,15.2,15.2,42,0.00,,---,0.00,VWS V14.01,2013-04-18 14:23:00,
2013-04-18 09:24:00,45.7,23.9,25.45,NNE,22,11.0,15.2,42,0.00,,---,0.00,VWS V14.01,2013-04-18 14:24:00,
2013-04-18 09:25:00,45.9,24.1,25.42,NNE,22,10.1,11.0,42,0.00,,---,0.00,VWS V14.01,2013-04-18 14:25:00,
2013-04-18 09:26:00,46.0,24.2,25.42,NE,45,10.3,13.2,42,0.00,,---,0.00,VWS V14.01,2013-04-18 14:26:00,
2013-04-18 09:27:00,46.4,24.6,25.42,NE,45,10.3,10.3,42,0.00,,---,0.00,VWS V14.01,2013-04-18 14:27:00,
2013-04-18 09:28:00,46.6,24.7,25.42,NNE,22,14.1,14.3,42,0.00,,---,0.00,VWS V14.01,2013-04-18 14:28:00,
2013-04-18 09:29:00,46.6,24.2,25.42,NNE,22,10.3,14.1,41,0.00,,---,0.00,VWS V14.01,2013-04-18 14:29:00,
2013-04-18 09:30:00,46.8,24.3,25.42,NNE,22,10.7,13.6,41,0.00,,---,0.00,VWS V14.01,2013-04-18 14:30:00,
2013-04-18 09:31:00,46.6,24.2,25.42,NNE,22,12.8,12.8,41,0.00,,---,0.00,VWS V14.01,2013-04-18 14:31:00,
2013-04-18 09:32:00,46.8,24.3,25.42,NE,45,10.5,14.5,41,0.00,,---,0.00,VWS V14.01,2013-04-18 14:32:00,
2013-04-18 09:33:00,46.8,23.7,25.42,NNE,22,8.5,13.2,40,0.00,,---,0.00,VWS V14.01,2013-04-18 14:33:00,
2013-04-18 09:34:00,46.9,24.5,25.42,NE,45,13.9,13.9,41,0.00,,---,0.00,VWS V14.01,2013-04-18 14:34:00,
2013-04-18 09:35:00,46.8,24.3,25.42,NNE,22,11.0,16.1,41,0.00,,---,0.00,VWS V14.01,2013-04-18 14:35:00,
2013-04-18 09:36:00,47.3,24.8,25.42,NE,45,15.2,15.2,41,0.00,,---,0.00,VWS V14.01,2013-04-18 14:36:00,
2013-04-18 09:37:00,47.1,24.1,25.42,NE,45,13.2,15.2,40,0.00,,---,0.00,VWS V14.01,2013-04-18 14:37:00,
2013-04-18 09:38:00,47.1,24.1,25.42,North,0,11.0,13.2,40,0.00,,---,0.00,VWS V14.01,2013-04-18 14:38:00,
2013-04-18 09:39:00,47.1,24.1,25.42,ENE,68,10.3,15.4,40,0.00,,---,0.00,VWS V14.01,2013-04-18 14:39:00,
2013-04-18 09:40:00,47.1,24.1,25.39,ENE,68,11.2,12.1,40,0.00,,---,0.00,VWS V14.01,2013-04-18 14:40:00,
2013-04-18 09:41:00,47.1,24.1,25.39,NNE,22,10.7,13.0,40,0.00,,---,0.00,VWS V14.01,2013-04-18 14:41:00,
2013-04-18 09:42:00,47.7,24.5,25.39,NNE,22,7.4,10.7,40,0.00,,---,0.00,VWS V14.01,2013-04-18 14:42:00,
2013-04-18 09:43:00,47.8,24.7,25.39,NNE,22,16.3,16.3,40,0.00,,---,0.00,VWS V14.01,2013-04-18 14:43:00,
2013-04-18 09:44:00,47.5,23.8,25.39,NE,45,13.2,16.3,39,0.00,,---,0.00,VWS V14.01,2013-04-18 14:44:00,
2013-04-18 09:45:00,47.5,23.8,25.39,ENE,68,10.3,13.2,39,0.00,,---,0.00,VWS V14.01,2013-04-18 14:45:00,
2013-04-18 09:46:00,47.8,24.1,25.39,NNE,22,14.8,16.3,39,0.00,,---,0.00,VWS V14.01,2013-04-18 14:46:00,
2013-04-18 09:47:00,47.5,23.8,25.39,NNE,22,13.9,15.2,39,0.00,,---,0.00,VWS V14.01,2013-04-18 14:47:00,
2013-04-18 09:48:00,47.5,23.8,25.39,NE,45,10.3,16.1,39,0.00,,---,0.00,VWS V14.01,2013-04-18 14:48:00,
2013-04-18 09:49:00,47.7,23.9,25.39,NNE,22,7.8,12.1,39,0.00,,---,0.00,VWS V14.01,2013-04-18 14:49:00,
2013-04-18 09:50:00,48.0,24.3,25.39,NNE,22,12.5,13.4,39,0.00,,---,0.00,VWS V14.01,2013-04-18 14:50:00,
2013-04-18 09:51:00,48.2,23.8,25.39,NE,45,10.7,10.7,38,0.00,,---,0.00,VWS V14.01,2013-04-18 14:51:00,
2013-04-18 09:52:00,48.0,23.6,25.39,NNE,22,10.7,14.8,38,0.00,,---,0.00,VWS V14.01,2013-04-18 14:52:00,
2013-04-18 09:53:00,48.7,24.3,25.39,NNE,22,10.5,10.7,38,0.00,,---,0.00,VWS V14.01,2013-04-18 14:53:00,
2013-04-18 09:54:00,48.7,24.3,25.39,NE,45,9.8,10.7,38,0.00,,---,0.00,VWS V14.01,2013-04-18 14:54:00,
2013-04-18 09:55:00,48.9,24.5,25.39,NE,45,11.9,13.0,38,0.00,,---,0.00,VWS V14.01,2013-04-18 14:55:00,
2013-04-18 09:56:00,48.9,24.5,25.39,North,0,12.5,12.5,38,0.00,,---,0.00,VWS V14.01,2013-04-18 14:56:00,
2013-04-18 09:57:00,48.7,24.3,25.39,NNE,22,12.5,12.5,38,0.00,,---,0.00,VWS V14.01,2013-04-18 14:57:00,
2013-04-18 09:58:00,48.7,24.3,25.39,NNW,338,11.0,14.8,38,0.00,,---,0.00,VWS V14.01,2013-04-18 14:58:00,
2013-04-18 09:59:00,48.7,24.3,25.39,NNE,22,15.4,15.4,38,0.00,,---,0.00,VWS V14.01,2013-04-18 14:59:00,
2013-04-18 10:00:00,48.7,24.3,25.39,North,0,13.0,15.4,38,0.00,,---,0.00,VWS V14.01,2013-04-18 15:00:00,
2013-04-18 10:01:00,48.7,23.6,25.39,NNE,22,14.8,14.8,37,0.00,,---,0.00,VWS V14.01,2013-04-18 15:01:00,
2013-04-18 10:02:00,49.1,24.0,25.39,North,0,9.4,9.4,37,0.00,,---,0.00,VWS V14.01,2013-04-18 15:02:00,
2013-04-18 10:03:00,49.3,24.1,25.39,NNE,22,12.3,12.3,37,0.00,,---,0.00,VWS V14.01,2013-04-18 15:03:00,
2013-04-18 10:04:00,49.1,24.0,25.39,NNW,338,10.7,13.2,37,0.00,,---,0.00,VWS V14.01,2013-04-18 15:04:00,
2013-04-18 10:05:00,49.1,24.0,25.39,North,0,12.8,12.8,37,0.00,,---,0.00,VWS V14.01,2013-04-18 15:05:00,
2013-04-18 10:06:00,49.3,24.1,25.39,North,0,10.5,12.8,37,0.00,,---,0.00,VWS V14.01,2013-04-18 15:06:00,
2013-04-18 10:07:00,49.6,24.5,25.39,North,0,7.8,10.5,37,0.00,,---,0.00,VWS V14.01,2013-04-18 15:07:00,
2013-04-18 10:08:00,49.6,24.5,25.39,NNE,22,13.2,13.2,37,0.00,,---,0.00,VWS V14.01,2013-04-18 15:08:00,
2013-04-18 10:10:00,49.6,24.5,25.42,NE,45,10.7,13.2,37,0.00,,---,0.00,VWS V14.01,2013-04-18 15:10:00,
2013-04-18 10:11:00,49.8,24.6,25.42,NNE,22,10.5,10.7,37,0.00,,---,0.00,VWS V14.01,2013-04-18 15:11:00,
2013-04-18 10:12:00,50.0,24.1,25.42,NNE,22,11.0,14.8,36,0.00,,---,0.00,VWS V14.01,2013-04-18 15:12:00,
2013-04-18 10:13:00,50.2,24.3,25.42,NNE,22,8.7,11.0,36,0.00,,---,0.00,VWS V14.01,2013-04-18 15:13:00,
2013-04-18 10:14:00,50.2,24.9,25.42,NNE,22,10.1,12.5,37,0.00,,---,0.00,VWS V14.01,2013-04-18 15:14:00,
2013-04-18 10:15:00,50.2,24.3,25.42,NNE,22,8.7,8.7,36,0.00,,---,0.00,VWS V14.01,2013-04-18 15:15:00,
2013-04-18 10:16:00,50.2,24.3,25.42,NNE,22,10.3,13.2,36,0.00,,---,0.00,VWS V14.01,2013-04-18 15:16:00,
2013-04-18 10:17:00,50.2,24.3,25.42,NNE,22,12.3,13.0,36,0.00,,---,0.00,VWS V14.01,2013-04-18 15:17:00,
2013-04-18 10:18:00,50.4,24.4,25.42,North,0,16.1,16.1,36,0.00,,---,0.00,VWS V14.01,2013-04-18 15:18:00,
2013-04-18 10:19:00,50.4,24.4,25.42,NNE,22,14.5,17.7,36,0.00,,---,0.00,VWS V14.01,2013-04-18 15:19:00,
2013-04-18 10:20:00,50.4,24.4,25.42,NNE,22,8.7,14.5,36,0.00,,---,0.00,VWS V14.01,2013-04-18 15:20:00,
2013-04-18 10:21:00,50.7,24.8,25.42,NNW,338,6.0,10.1,36,0.00,,---,0.00,VWS V14.01,2013-04-18 15:21:00,
2013-04-18 10:22:00,51.1,25.1,25.42,NE,45,7.6,7.6,36,0.00,,---,0.00,VWS V14.01,2013-04-18 15:22:00,
2013-04-18 10:23:00,51.3,25.2,25.42,NNE,22,10.5,10.5,36,0.00,,---,0.00,VWS V14.01,2013-04-18 15:23:00,
2013-04-18 10:24:00,51.3,25.2,25.42,NNE,22,14.1,14.1,36,0.00,,---,0.00,VWS V14.01,2013-04-18 15:24:00,
2013-04-18 10:25:00,51.6,25.6,25.42,NNE,22,7.8,14.1,36,0.00,,---,0.00,VWS V14.01,2013-04-18 15:25:00,
2013-04-18 10:26:00,51.6,25.6,25.42,ENE,68,10.1,10.1,36,0.00,,---,0.00,VWS V14.01,2013-04-18 15:26:00,
2013-04-18 10:27:00,51.6,25.6,25.42,NNE,22,12.8,12.8,36,0.00,,---,0.00,VWS V14.01,2013-04-18 15:27:00,
2013-04-18 10:28:00,51.4,24.7,25.42,North,0,9.4,14.5,35,0.00,,---,0.00,VWS V14.01,2013-04-18 15:28:00,
2013-04-18 10:29:00,51.6,24.9,25.42,NNE,22,9.8,11.0,35,0.00,,---,0.00,VWS V14.01,2013-04-18 15:29:00,
2013-04-18 10:30:00,52.2,24.7,25.42,North,0,2.9,9.8,34,0.00,,---,0.00,VWS V14.01,2013-04-18 15:30:00,
2013-04-18 10:31:00,52.7,25.1,25.42,NNE,22,8.7,8.7,34,0.00,,---,0.00,VWS V14.01,2013-04-18 15:31:00,
2013-04-18 10:32:00,52.7,25.1,25.42,NNE,22,8.5,8.7,34,0.00,,---,0.00,VWS V14.01,2013-04-18 15:32:00,
2013-04-18 10:33:00,53.1,25.5,25.42,ENE,68,10.1,10.1,34,0.00,,---,0.00,VWS V14.01,2013-04-18 15:33:00,
2013-04-18 10:34:00,52.9,25.3,25.42,NNE,22,7.4,10.1,34,0.00,,---,0.00,VWS V14.01,2013-04-18 15:34:00,
2013-04-18 10:35:00,53.1,25.5,25.42,North,0,7.8,9.2,34,0.00,,---,0.00,VWS V14.01,2013-04-18 15:35:00,
2013-04-18 10:36:00,52.9,24.6,25.42,North,0,8.7,13.2,33,0.00,,---,0.00,VWS V14.01,2013-04-18 15:36:00,
2013-04-18 10:37:00,52.9,24.6,25.42,NNE,22,9.2,9.2,33,0.00,,---,0.00,VWS V14.01,2013-04-18 15:37:00,
2013-04-18 10:38:00,52.9,24.6,25.42,North,0,10.5,10.5,33,0.00,,---,0.00,VWS V14.01,2013-04-18 15:38:00,
2013-04-18 10:39:00,52.5,24.3,25.42,North,0,8.7,10.5,33,0.00,,---,0.00,VWS V14.01,2013-04-18 15:39:00,
2013-04-18 10:40:00,52.7,24.4,25.42,NNW,338,10.3,10.3,33,0.00,,---,0.00,VWS V14.01,2013-04-18 15:40:00,
2013-04-18 10:41:00,52.2,24.0,25.42,NNW,338,10.7,12.8,33,0.00,,---,0.00,VWS V14.01,2013-04-18 15:41:00,
2013-04-18 10:42:00,52.0,23.8,25.42,NNE,22,10.5,13.2,33,0.00,,---,0.00,VWS V14.01,2013-04-18 15:42:00,
2013-04-18 10:43:00,52.0,23.8,25.42,NE,45,11.0,11.0,33,0.00,,---,0.00,VWS V14.01,2013-04-18 15:43:00,
2013-04-18 10:44:00,52.0,23.8,25.42,NNE,22,12.1,12.1,33,0.00,,---,0.00,VWS V14.01,2013-04-18 15:44:00,
2013-04-18 10:45:00,52.0,23.8,25.42,NNE,22,10.5,12.8,33,0.00,,---,0.00,VWS V14.01,2013-04-18 15:45:00,
2013-04-18 10:46:00,52.7,24.4,25.42,NNE,22,8.5,12.3,33,0.00,,---,0.00,VWS V14.01,2013-04-18 15:46:00,
2013-04-18 10:47:00,52.9,24.6,25.42,NNE,22,9.8,9.8,33,0.00,,---,0.00,VWS V14.01,2013-04-18 15:47:00,
2013-04-18 10:48:00,53.6,24.5,25.42,North,0,8.7,9.8,32,0.00,,---,0.00,VWS V14.01,2013-04-18 15:48:00,
2013-04-18 10:49:00,53.1,24.0,25.42,NNE,22,10.1,10.7,32,0.00,,---,0.00,VWS V14.01,2013-04-18 15:49:00,
2013-04-18 10:50:00,53.2,24.2,25.42,NNE,22,8.5,10.1,32,0.00,,---,0.00,VWS V14.01,2013-04-18 15:50:00,
2013-04-18 10:51:00,53.6,24.5,25.42,ENE,68,12.3,12.3,32,0.00,,---,0.00,VWS V14.01,2013-04-18 15:51:00,
2013-04-18 10:52:00,53.4,24.3,25.42,ENE,68,12.3,12.3,32,0.00,,---,0.00,VWS V14.01,2013-04-18 15:52:00,
2013-04-18 10:53:00,53.2,24.2,25.42,North,0,11.0,13.0,32,0.00,,---,0.00,VWS V14.01,2013-04-18 15:53:00,
2013-04-18 10:54:00,53.4,24.3,25.42,ENE,68,9.8,11.0,32,0.00,,---,0.00,VWS V14.01,2013-04-18 15:54:00,
2013-04-18 10:55:00,53.4,24.3,25.42,North,0,7.8,10.1,32,0.00,,---,0.00,VWS V14.01,2013-04-18 15:55:00,
2013-04-18 10:56:00,53.8,23.9,25.42,North,0,7.8,7.8,31,0.00,,---,0.00,VWS V14.01,2013-04-18 15:56:00,
2013-04-18 10:57:00,53.6,23.7,25.42,North,0,7.8,7.8,31,0.00,,---,0.00,VWS V14.01,2013-04-18 15:57:00,
2013-04-18 10:58:00,54.1,24.2,25.42,NNE,22,5.4,8.7,31,0.00,,---,0.00,VWS V14.01,2013-04-18 15:58:00,
2013-04-18 10:59:00,54.1,24.2,25.42,East,90,5.8,5.8,31,0.00,,---,0.00,VWS V14.01,2013-04-18 15:59:00,
2013-04-18 11:00:00,54.9,24.8,25.42,East,90,5.8,5.8,31,0.00,,---,0.00,VWS V14.01,2013-04-18 16:00:00,
2013-04-18 11:01:00,54.5,24.5,25.42,East,90,5.8,5.8,31,0.00,,---,0.00,VWS V14.01,2013-04-18 16:01:00,
2013-04-18 11:03:00,54.5,24.5,25.42,North,0,12.1,12.1,31,0.00,,---,0.00,VWS V14.01,2013-04-18 16:03:00,
2013-04-18 11:04:00,53.8,23.1,25.42,WNW,292,10.5,12.1,30,0.00,,---,0.00,VWS V14.01,2013-04-18 16:04:00,
2013-04-18 11:05:00,54.7,23.9,25.42,WNW,292,10.5,10.5,30,0.00,,---,0.00,VWS V14.01,2013-04-18 16:05:00,
2013-04-18 11:06:00,53.8,23.1,25.42,WNW,292,10.5,10.5,30,0.00,,---,0.00,VWS V14.01,2013-04-18 16:06:00,
2013-04-18 11:07:00,53.8,23.1,25.42,North,0,7.8,10.5,30,0.00,,---,0.00,VWS V14.01,2013-04-18 16:07:00,
2013-04-18 11:08:00,54.3,23.6,25.42,NNE,22,13.4,13.4,30,0.00,,---,0.00,VWS V14.01,2013-04-18 16:08:00,
2013-04-18 11:09:00,54.3,23.6,25.45,NNE,22,7.8,13.4,30,0.00,,---,0.00,VWS V14.01,2013-04-18 16:09:00,
2013-04-18 11:10:00,54.3,23.6,25.45,NNE,22,12.3,12.5,30,0.00,,---,0.00,VWS V14.01,2013-04-18 16:10:00,
2013-04-18 11:11:00,54.5,23.7,25.45,NNE,22,12.3,12.3,30,0.00,,---,0.00,VWS V14.01,2013-04-18 16:11:00,
2013-04-18 11:12:00,54.1,23.4,25.45,NE,45,17.2,17.2,30,0.00,,---,0.00,VWS V14.01,2013-04-18 16:12:00,
2013-04-18 11:13:00,54.0,23.2,25.45,NNE,22,10.3,17.2,30,0.00,,---,0.00,VWS V14.01,2013-04-18 16:13:00,
2013-04-18 11:14:00,54.5,23.7,25.45,NE,45,4.9,10.3,30,0.00,,---,0.00,VWS V14.01,2013-04-18 16:14:00,
2013-04-18 11:15:00,54.5,23.7,25.45,ENE,68,7.2,7.2,30,0.00,,---,0.00,VWS V14.01,2013-04-18 16:15:00,
2013-04-18 11:16:00,54.5,23.7,25.45,ENE,68,12.8,12.8,30,0.00,,---,0.00,VWS V14.01,2013-04-18 16:16:00,
2013-04-18 11:17:00,54.3,23.6,25.45,ENE,68,12.8,12.8,30,0.00,,---,0.00,VWS V14.01,2013-04-18 16:17:00,
2013-04-18 11:19:00,54.3,23.6,25.45,NNE,22,12.5,12.8,30,0.00,,---,0.00,VWS V14.01,2013-04-18 16:19:00,
2013-04-18 11:20:00,54.5,23.7,25.45,NNE,22,10.3,12.5,30,0.00,,---,0.00,VWS V14.01,2013-04-18 16:20:00,
2013-04-18 11:21:00,54.9,24.0,25.45,ENE,68,12.1,12.1,30,0.00,,---,0.00,VWS V14.01,2013-04-18 16:21:00,
2013-04-18 11:22:00,54.5,23.7,25.45,ENE,68,12.8,12.8,30,0.00,,---,0.00,VWS V14.01,2013-04-18 16:22:00,
2013-04-18 11:23:00,54.5,23.7,25.45,NE,45,8.5,12.8,30,0.00,,---,0.00,VWS V14.01,2013-04-18 16:23:00,
2013-04-18 11:24:00,54.5,23.7,25.42,NE,45,8.5,8.5,30,0.00,,---,0.00,VWS V14.01,2013-04-18 16:24:00,
2013-04-18 11:25:00,54.7,23.9,25.42,NE,45,8.5,8.5,30,0.00,,---,0.00,VWS V14.01,2013-04-18 16:25:00,
2013-04-18 11:27:00,54.5,23.7,25.42,NE,45,8.5,8.5,30,0.00,,---,0.00,VWS V14.01,2013-04-18 16:27:00,
2013-04-18 11:28:00,55.2,23.5,25.42,NNE,22,10.3,10.3,29,0.00,,---,0.00,VWS V14.01,2013-04-18 16:28:00,
2013-04-18 11:29:00,55.4,23.7,25.42,NNE,22,10.3,10.3,29,0.00,,---,0.00,VWS V14.01,2013-04-18 16:29:00,
2013-04-18 11:30:00,55.9,24.2,25.42,ENE,68,7.8,7.8,29,0.00,,---,0.00,VWS V14.01,2013-04-18 16:30:00,
2013-04-18 11:31:00,55.9,24.2,25.42,ENE,68,6.0,7.8,29,0.00,,---,0.00,VWS V14.01,2013-04-18 16:31:00,
2013-04-18 11:32:00,55.9,24.2,25.42,ENE,68,6.0,6.0,29,0.00,,---,0.00,VWS V14.01,2013-04-18 16:32:00,
2013-04-18 11:33:00,54.9,23.2,25.42,ENE,68,6.0,6.0,29,0.00,,---,0.00,VWS V14.01,2013-04-18 16:33:00,
2013-04-18 11:34:00,55.0,23.4,25.42,ENE,68,6.0,6.0,29,0.00,,---,0.00,VWS V14.01,2013-04-18 16:34:00,
2013-04-18 11:35:00,54.5,22.9,25.42,NNE,22,13.2,15.2,29,0.00,,---,0.00,VWS V14.01,2013-04-18 16:35:00,
2013-04-18 11:36:00,54.5,22.9,25.42,ENE,68,8.1,13.2,29,0.00,,---,0.00,VWS V14.01,2013-04-18 16:36:00,
2013-04-18 11:38:00,55.4,23.7,25.42,ENE,68,10.5,10.5,29,0.00,,---,0.00,VWS V14.01,2013-04-18 16:38:00,
2013-04-18 11:39:00,55.8,23.2,25.42,NE,45,8.5,10.5,28,0.00,,---,0.00,VWS V14.01,2013-04-18 16:39:00,
2013-04-18 11:40:00,55.8,23.2,25.42,ENE,68,7.4,10.1,28,0.00,,---,0.00,VWS V14.01,2013-04-18 16:40:00,
2013-04-18 11:41:00,55.8,23.2,25.42,ENE,68,12.3,12.3,28,0.00,,---,0.00,VWS V14.01,2013-04-18 16:41:00,
2013-04-18 11:42:00,55.9,23.3,25.42,ENE,68,6.0,12.3,28,0.00,,---,0.00,VWS V14.01,2013-04-18 16:42:00,
2013-04-18 11:43:00,56.5,23.8,25.42,NE,45,8.5,8.5,28,0.00,,---,0.00,VWS V14.01,2013-04-18 16:43:00,
2013-04-18 11:44:00,56.8,24.1,25.42,NNE,22,12.8,12.8,28,0.00,,---,0.00,VWS V14.01,2013-04-18 16:44:00,
2013-04-18 11:45:00,56.3,23.6,25.42,NNE,22,12.3,15.2,28,0.00,,---,0.00,VWS V14.01,2013-04-18 16:45:00,
2013-04-18 11:46:00,56.3,23.6,25.42,NNE,22,13.2,13.2,28,0.00,,---,0.00,VWS V14.01,2013-04-18 16:46:00,
2013-04-18 11:47:00,55.9,23.3,25.42,NNE,22,10.1,13.2,28,0.00,,---,0.00,VWS V14.01,2013-04-18 16:47:00,
2013-04-18 11:48:00,56.3,23.6,25.42,NNE,22,9.2,11.0,28,0.00,,---,0.00,VWS V14.01,2013-04-18 16:48:00,
2013-04-18 11:49:00,56.3,23.6,25.42,North,0,8.1,9.2,28,0.00,,---,0.00,VWS V14.01,2013-04-18 16:49:00,
2013-04-18 11:50:00,56.5,23.8,25.42,ENE,68,7.2,7.2,28,0.00,,---,0.00,VWS V14.01,2013-04-18 16:50:00,
2013-04-18 11:51:00,56.5,23.8,25.42,ENE,68,10.7,12.3,28,0.00,,---,0.00,VWS V14.01,2013-04-18 16:51:00,
2013-04-18 11:52:00,56.8,24.1,25.42,NNE,22,8.5,10.7,28,0.00,,---,0.00,VWS V14.01,2013-04-18 16:52:00,
2013-04-18 11:53:00,57.7,24.0,25.42,NNE,22,6.5,8.5,27,0.00,,---,0.00,VWS V14.01,2013-04-18 16:53:00,
2013-04-18 11:54:00,58.3,24.5,25.42,NNE,22,14.5,14.5,27,0.00,,---,0.00,VWS V14.01,2013-04-18 16:54:00,
2013-04-18 11:55:00,57.2,23.5,25.42,North,0,6.5,14.5,27,0.00,,---,0.00,VWS V14.01,2013-04-18 16:55:00,
2013-04-18 11:56:00,56.8,23.2,25.42,North,0,9.6,12.5,27,0.00,,---,0.00,VWS V14.01,2013-04-18 16:56:00,
2013-04-18 11:57:00,57.0,23.4,25.42,NNE,22,10.5,10.5,27,0.00,,---,0.00,VWS V14.01,2013-04-18 16:57:00,
2013-04-18 11:58:00,57.2,23.5,25.42,NNW,338,4.9,11.0,27,0.00,,---,0.00,VWS V14.01,2013-04-18 16:58:00,
2013-04-18 11:59:00,57.7,24.0,25.42,NNE,22,7.8,8.5,27,0.00,,---,0.00,VWS V14.01,2013-04-18 16:59:00,
2013-04-18 12:00:00,57.7,24.0,25.42,NNE,22,10.1,11.4,27,0.00,,---,0.00,VWS V14.01,2013-04-18 17:00:00,
2013-04-18 12:01:00,57.7,24.0,25.42,NNE,22,12.8,12.8,27,0.00,,---,0.00,VWS V14.01,2013-04-18 17:01:00,
2013-04-18 12:02:00,57.9,23.3,25.42,East,90,4.0,12.8,26,0.00,,---,0.00,VWS V14.01,2013-04-18 17:02:00,
2013-04-18 12:03:00,58.5,23.7,25.42,North,0,6.3,6.3,26,0.00,,---,0.00,VWS V14.01,2013-04-18 17:03:00,
2013-04-18 12:04:00,59.2,24.3,25.42,NNE,22,4.0,4.0,26,0.00,,---,0.00,VWS V14.01,2013-04-18 17:04:00,
2013-04-18 12:05:00,58.5,23.7,25.42,NNE,22,10.7,12.3,26,0.00,,---,0.00,VWS V14.01,2013-04-18 17:05:00,
2013-04-18 12:06:00,57.7,23.1,25.42,North,0,11.0,15.2,26,0.00,,---,0.00,VWS V14.01,2013-04-18 17:06:00,
2013-04-18 12:07:00,57.6,23.0,25.42,North,0,6.7,12.3,26,0.00,,---,0.00,VWS V14.01,2013-04-18 17:07:00,
2013-04-18 12:08:00,58.1,23.4,25.42,NNW,338,8.7,10.7,26,0.00,,---,0.00,VWS V14.01,2013-04-18 17:08:00,
2013-04-18 12:09:00,57.2,22.6,25.39,NNE,22,10.3,14.8,26,0.00,,---,0.00,VWS V14.01,2013-04-18 17:09:00,
2013-04-18 12:10:00,57.4,22.8,25.39,NE,45,7.6,15.2,26,0.00,,---,0.00,VWS V14.01,2013-04-18 17:10:00,
2013-04-18 12:11:00,57.6,23.0,25.39,North,0,11.0,12.3,26,0.00,,---,0.00,VWS V14.01,2013-04-18 17:11:00,
2013-04-18 12:12:00,57.6,23.0,25.39,North,0,11.0,11.0,26,0.00,,---,0.00,VWS V14.01,2013-04-18 17:12:00,
2013-04-18 12:13:00,56.7,23.1,25.39,NNW,338,10.5,13.2,27,0.00,,---,0.00,VWS V14.01,2013-04-18 17:13:00,
2013-04-18 12:14:00,57.0,23.4,25.39,North,0,5.8,10.5,27,0.00,,---,0.00,VWS V14.01,2013-04-18 17:14:00,
2013-04-18 12:15:00,57.9,23.3,25.39,NNW,338,3.4,6.0,26,0.00,,---,0.00,VWS V14.01,2013-04-18 17:15:00,
2013-04-18 12:16:00,57.9,23.3,25.39,WNW,292,2.9,4.7,26,0.00,,---,0.00,VWS V14.01,2013-04-18 17:16:00,
2013-04-18 12:17:00,60.3,25.3,25.39,NNE,22,4.7,4.7,26,0.00,,---,0.00,VWS V14.01,2013-04-18 17:17:00,
2013-04-18 12:18:00,59.7,24.8,25.39,NE,45,7.6,10.7,26,0.00,,---,0.00,VWS V14.01,2013-04-18 17:18:00,
2013-04-18 12:19:00,59.7,24.8,25.39,North,0,6.0,10.1,26,0.00,,---,0.00,VWS V14.01,2013-04-18 17:19:00,
2013-04-18 12:21:00,59.7,24.8,25.39,North,0,6.0,6.0,26,0.00,,---,0.00,VWS V14.01,2013-04-18 17:21:00,
2013-04-18 12:22:00,60.4,24.5,25.39,NE,45,12.5,12.5,25,0.00,,---,0.00,VWS V14.01,2013-04-18 17:22:00,
2013-04-18 12:23:00,59.7,23.9,25.39,NE,45,10.1,12.5,25,0.00,,---,0.00,VWS V14.01,2013-04-18 17:23:00,
2013-04-18 12:25:00,59.4,23.6,25.39,NNE,22,6.3,10.5,25,0.00,,---,0.00,VWS V14.01,2013-04-18 17:25:00,
2013-04-18 12:26:00,59.5,23.7,25.39,NNE,22,8.5,10.5,25,0.00,,---,0.00,VWS V14.01,2013-04-18 17:26:00,
2013-04-18 12:27:00,59.4,23.6,25.39,NNE,22,8.7,12.3,25,0.00,,---,0.00,VWS V14.01,2013-04-18 17:27:00,
2013-04-18 12:28:00,59.0,23.2,25.39,NE,45,15.4,15.4,25,0.00,,---,0.00,VWS V14.01,2013-04-18 17:28:00,
2013-04-18 12:29:00,59.2,23.4,25.39,ENE,68,3.4,15.4,25,0.00,,---,0.00,VWS V14.01,2013-04-18 17:29:00,
2013-04-18 12:30:00,59.2,23.4,25.39,ENE,68,4.9,4.9,25,0.00,,---,0.00,VWS V14.01,2013-04-18 17:30:00,
2013-04-18 12:31:00,59.2,23.4,25.39,NE,45,14.8,14.8,25,0.00,,---,0.00,VWS V14.01,2013-04-18 17:31:00,
2013-04-18 12:32:00,58.8,24.0,25.39,NE,45,11.0,14.8,26,0.00,,---,0.00,VWS V14.01,2013-04-18 17:32:00,
2013-04-18 12:33:00,59.0,23.2,25.39,NE,45,9.8,11.0,25,0.00,,---,0.00,VWS V14.01,2013-04-18 17:33:00,
2013-04-18 12:34:00,60.1,24.2,25.39,NNW,338,2.2,9.8,25,0.00,,---,0.00,VWS V14.01,2013-04-18 17:34:00,
2013-04-18 12:35:00,61.2,25.1,25.39,NNE,22,2.0,2.2,25,0.00,,---,0.00,VWS V14.01,2013-04-18 17:35:00,
2013-04-18 12:36:00,62.2,26.0,25.39,East,90,2.9,2.9,25,0.00,,---,0.00,VWS V14.01,2013-04-18 17:36:00,
2013-04-18 12:37:00,61.7,25.5,25.39,ENE,68,7.8,8.1,25,0.00,,---,0.00,VWS V14.01,2013-04-18 17:37:00,
2013-04-18 12:38:00,61.3,25.2,25.39,ENE,68,10.1,10.1,25,0.00,,---,0.00,VWS V14.01,2013-04-18 17:38:00,
2013-04-18 12:39:00,60.6,24.6,25.39,ENE,68,15.4,15.4,25,0.00,,---,0.00,VWS V14.01,2013-04-18 17:39:00,
2013-04-18 12:40:00,59.0,23.2,25.39,ENE,68,13.2,15.4,25,0.00,,---,0.00,VWS V14.01,2013-04-18 17:40:00,
2013-04-18 12:41:00,58.8,24.0,25.39,ENE,68,11.0,13.2,26,0.00,,---,0.00,VWS V14.01,2013-04-18 17:41:00,
2013-04-18 12:42:00,58.6,23.9,25.39,ESE,112,10.7,12.3,26,0.00,,---,0.00,VWS V14.01,2013-04-18 17:42:00,
2013-04-18 12:43:00,58.6,23.9,25.39,ESE,112,9.8,10.7,26,0.00,,---,0.00,VWS V14.01,2013-04-18 17:43:00,
2013-04-18 12:44:00,58.3,23.6,25.39,ENE,68,13.9,13.9,26,0.00,,---,0.00,VWS V14.01,2013-04-18 17:44:00,
2013-04-18 12:45:00,58.5,23.7,25.39,ENE,68,12.1,14.1,26,0.00,,---,0.00,VWS V14.01,2013-04-18 17:45:00,
2013-04-18 12:46:00,58.3,23.6,25.39,ENE,68,8.7,13.4,26,0.00,,---,0.00,VWS V14.01,2013-04-18 17:46:00,
2013-04-18 12:47:00,58.3,23.6,25.39,NNE,22,16.3,16.3,26,0.00,,---,0.00,VWS V14.01,2013-04-18 17:47:00,
2013-04-18 12:48:00,58.5,23.7,25.39,ENE,68,12.5,16.3,26,0.00,,---,0.00,VWS V14.01,2013-04-18 17:48:00,
2013-04-18 12:49:00,59.2,23.4,25.39,NNE,22,4.0,12.5,25,0.00,,---,0.00,VWS V14.01,2013-04-18 17:49:00,
2013-04-18 12:50:00,59.2,23.4,25.39,NE,45,10.3,13.2,25,0.00,,---,0.00,VWS V14.01,2013-04-18 17:50:00,
2013-04-18 12:51:00,59.2,23.4,25.39,NNE,22,13.2,13.2,25,0.00,,---,0.00,VWS V14.01,2013-04-18 17:51:00,
2013-04-18 12:52:00,59.2,23.4,25.39,NNE,22,12.1,13.2,25,0.00,,---,0.00,VWS V14.01,2013-04-18 17:52:00,
2013-04-18 12:53:00,59.2,23.4,25.39,North,0,5.8,8.1,25,0.00,,---,0.00,VWS V14.01,2013-04-18 17:53:00,
2013-04-18 12:54:00,59.5,23.7,25.39,NE,45,7.6,8.1,25,0.00,,---,0.00,VWS V14.01,2013-04-18 17:54:00,
2013-04-18 12:55:00,59.7,23.9,25.39,NNE,22,8.5,8.5,25,0.00,,---,0.00,VWS V14.01,2013-04-18 17:55:00,
2013-04-18 12:56:00,59.5,23.7,25.39,NE,45,9.8,12.3,25,0.00,,---,0.00,VWS V14.01,2013-04-18 17:56:00,
2013-04-18 12:57:00,59.5,23.7,25.39,NNE,22,6.5,6.5,25,0.00,,---,0.00,VWS V14.01,2013-04-18 17:57:00,
2013-04-18 12:58:00,60.1,24.2,25.39,NE,45,10.3,10.3,25,0.00,,---,0.00,VWS V14.01,2013-04-18 17:58:00,
2013-04-18 12:59:00,59.7,23.9,25.39,ENE,68,11.0,11.0,25,0.00,,---,0.00,VWS V14.01,2013-04-18 17:59:00,
2013-04-18 13:00:00,59.7,23.9,25.39,East,90,4.9,13.0,25,0.00,,---,0.00,VWS V14.01,2013-04-18 18:00:00,
2013-04-18 13:01:00,60.4,24.5,25.39,NNE,22,2.2,13.0,25,0.00,,---,0.00,VWS V14.01,2013-04-18 18:01:00,
2013-04-18 13:02:00,61.7,25.5,25.39,NW,315,4.0,4.0,25,0.00,,---,0.00,VWS V14.01,2013-04-18 18:02:00,
2013-04-18 13:03:00,61.0,24.9,25.39,ENE,68,12.8,12.8,25,0.00,,---,0.00,VWS V14.01,2013-04-18 18:03:00,
2013-04-18 13:04:00,61.0,24.9,25.39,ENE,68,7.6,12.8,25,0.00,,---,0.00,VWS V14.01,2013-04-18 18:04:00,
2013-04-18 13:05:00,61.3,25.2,25.39,NNW,338,4.7,7.6,25,0.00,,---,0.00,VWS V14.01,2013-04-18 18:05:00,
2013-04-18 13:06:00,62.4,26.2,25.39,North,0,1.6,4.7,25,0.00,,---,0.00,VWS V14.01,2013-04-18 18:06:00,
2013-04-18 13:07:00,62.8,25.5,25.39,NE,45,10.3,10.3,24,0.00,,---,0.00,VWS V14.01,2013-04-18 18:07:00,
2013-04-18 13:08:00,61.2,25.1,25.39,NE,45,12.3,17.7,25,0.00,,---,0.00,VWS V14.01,2013-04-18 18:08:00,
2013-04-18 13:09:00,61.5,24.4,25.39,NNE,22,5.8,12.3,24,0.00,,---,0.00,VWS V14.01,2013-04-18 18:09:00,
2013-04-18 13:10:00,61.9,25.7,25.39,ENE,68,8.7,12.3,25,0.00,,---,0.00,VWS V14.01,2013-04-18 18:10:00,
2013-04-18 13:11:00,61.3,24.3,25.39,East,90,5.6,8.7,24,0.00,,---,0.00,VWS V14.01,2013-04-18 18:11:00,
2013-04-18 13:13:00,61.0,24.9,25.39,East,90,7.2,9.6,25,0.00,,---,0.00,VWS V14.01,2013-04-18 18:13:00,
2013-04-18 13:14:00,61.0,24.0,25.39,ENE,68,5.8,7.2,24,0.00,,---,0.00,VWS V14.01,2013-04-18 18:14:00,
2013-04-18 13:15:00,61.5,24.4,25.39,ESE,112,4.3,7.2,24,0.00,,---,0.00,VWS V14.01,2013-04-18 18:15:00,
2013-04-18 13:16:00,61.5,24.4,25.39,ESE,112,4.3,4.3,24,0.00,,---,0.00,VWS V14.01,2013-04-18 18:16:00,
2013-04-18 13:17:00,62.2,25.0,25.39,ESE,112,4.3,4.3,24,0.00,,---,0.00,VWS V14.01,2013-04-18 18:17:00,
2013-04-18 13:18:00,63.1,25.8,25.39,NNW,338,4.5,4.5,24,0.00,,---,0.00,VWS V14.01,2013-04-18 18:18:00,
2013-04-18 13:19:00,64.4,25.8,25.39,NW,315,3.1,4.5,23,0.00,,---,0.00,VWS V14.01,2013-04-18 18:19:00,
2013-04-18 13:20:00,65.5,26.7,25.39,NNW,338,1.6,3.1,23,0.00,,---,0.00,VWS V14.01,2013-04-18 18:20:00,
2013-04-18 13:21:00,64.4,25.8,25.39,NNE,22,7.8,7.8,23,0.00,,---,0.00,VWS V14.01,2013-04-18 18:21:00,
2013-04-18 13:22:00,63.5,26.1,25.39,NE,45,7.2,9.4,24,0.00,,---,0.00,VWS V14.01,2013-04-18 18:22:00,
2013-04-18 13:23:00,63.3,25.9,25.39,NNW,338,10.7,10.7,24,0.00,,---,0.00,VWS V14.01,2013-04-18 18:23:00,
2013-04-18 13:24:00,62.2,25.0,25.39,NNW,338,5.8,10.7,24,0.00,,---,0.00,VWS V14.01,2013-04-18 18:24:00,
2013-04-18 13:25:00,61.9,24.7,25.39,North,0,9.8,10.7,24,0.00,,---,0.00,VWS V14.01,2013-04-18 18:25:00,
2013-04-18 13:26:00,61.9,24.7,25.39,North,0,4.9,10.7,24,0.00,,---,0.00,VWS V14.01,2013-04-18 18:26:00,
2013-04-18 13:27:00,61.7,24.6,25.39,NNE,22,13.6,13.6,24,0.00,,---,0.00,VWS V14.01,2013-04-18 18:27:00,
2013-04-18 13:28:00,62.6,25.3,25.39,NNE,22,7.6,13.6,24,0.00,,---,0.00,VWS V14.01,2013-04-18 18:28:00,
2013-04-18 13:29:00,62.4,25.2,25.39,NNE,22,7.6,7.6,24,0.00,,---,0.00,VWS V14.01,2013-04-18 18:29:00,
2013-04-18 13:30:00,62.4,25.2,25.39,NNE,22,7.6,7.6,24,0.00,,---,0.00,VWS V14.01,2013-04-18 18:30:00,
2013-04-18 13:31:00,62.4,25.2,25.39,NNE,22,7.6,7.6,24,0.00,,---,0.00,VWS V14.01,2013-04-18 18:31:00,
2013-04-18 13:32:00,61.9,24.7,25.39,NNE,22,9.6,12.8,24,0.00,,---,0.00,VWS V14.01,2013-04-18 18:32:00,
2013-04-18 13:33:00,62.4,25.2,25.39,NE,45,6.5,10.1,24,0.00,,---,0.00,VWS V14.01,2013-04-18 18:33:00,
2013-04-18 13:34:00,63.3,25.9,25.39,NW,315,3.1,6.5,24,0.00,,---,0.00,VWS V14.01,2013-04-18 18:34:00,
2013-04-18 13:35:00,64.0,26.5,25.39,North,0,10.3,10.3,24,0.00,,---,0.00,VWS V14.01,2013-04-18 18:35:00,
2013-04-18 13:36:00,63.0,25.6,25.39,NE,45,5.6,10.3,24,0.00,,---,0.00,VWS V14.01,2013-04-18 18:36:00,
2013-04-18 13:37:00,63.9,26.4,25.39,NE,45,7.6,7.6,24,0.00,,---,0.00,VWS V14.01,2013-04-18 18:37:00,
2013-04-18 13:38:00,63.9,26.4,25.39,NNW,338,2.7,7.6,24,0.00,,---,0.00,VWS V14.01,2013-04-18 18:38:00,
2013-04-18 13:39:00,64.9,26.3,25.37,NE,45,7.4,7.4,23,0.00,,---,0.00,VWS V14.01,2013-04-18 18:39:00,
2013-04-18 13:40:00,63.1,25.8,25.37,NNE,22,9.8,12.5,24,0.00,,---,0.00,VWS V14.01,2013-04-18 18:40:00,
2013-04-18 13:41:00,64.0,26.5,25.37,ENE,68,8.1,9.8,24,0.00,,---,0.00,VWS V14.01,2013-04-18 18:41:00,
2013-04-18 13:42:00,63.9,26.4,25.37,NE,45,5.6,8.1,24,0.00,,---,0.00,VWS V14.01,2013-04-18 18:42:00,
2013-04-18 13:43:00,63.7,26.2,25.37,NNE,22,10.5,10.5,24,0.00,,---,0.00,VWS V14.01,2013-04-18 18:43:00,
2013-04-18 13:44:00,63.1,25.8,25.37,NE,45,7.8,13.4,24,0.00,,---,0.00,VWS V14.01,2013-04-18 18:44:00,
2013-04-18 13:45:00,62.4,25.2,25.37,NE,45,15.4,15.4,24,0.00,,---,0.00,VWS V14.01,2013-04-18 18:45:00,
2013-04-18 13:46:00,61.7,24.6,25.37,NE,45,9.4,17.5,24,0.00,,---,0.00,VWS V14.01,2013-04-18 18:46:00,
2013-04-18 13:47:00,61.7,24.6,25.37,NNE,22,6.5,13.2,24,0.00,,---,0.00,VWS V14.01,2013-04-18 18:47:00,
2013-04-18 13:48:00,61.9,24.7,25.37,ENE,68,13.6,13.6,24,0.00,,---,0.00,VWS V14.01,2013-04-18 18:48:00,
2013-04-18 13:49:00,62.6,25.3,25.37,NE,45,3.4,6.5,24,0.00,,---,0.00,VWS V14.01,2013-04-18 18:49:00,
2013-04-18 13:50:00,62.4,25.2,25.37,East,90,11.0,11.0,24,0.00,,---,0.00,VWS V14.01,2013-04-18 18:50:00,
2013-04-18 13:51:00,62.6,25.3,25.37,ENE,68,5.8,11.0,24,0.00,,---,0.00,VWS V14.01,2013-04-18 18:51:00,
2013-04-18 13:52:00,63.0,25.6,25.37,NE,45,10.1,10.1,24,0.00,,---,0.00,VWS V14.01,2013-04-18 18:52:00,
2013-04-18 13:53:00,62.4,25.2,25.37,North,0,13.0,13.0,24,0.00,,---,0.00,VWS V14.01,2013-04-18 18:53:00,
2013-04-18 13:54:00,61.7,24.6,25.37,North,0,8.5,13.6,24,0.00,,---,0.00,VWS V14.01,2013-04-18 18:54:00,
2013-04-18 13:55:00,61.3,24.3,25.37,NNE,22,10.7,15.4,24,0.00,,---,0.00,VWS V14.01,2013-04-18 18:55:00,
2013-04-18 13:56:00,62.4,25.2,25.37,North,0,6.3,7.4,24,0.00,,---,0.00,VWS V14.01,2013-04-18 18:56:00,
2013-04-18 13:57:00,62.4,25.2,25.37,NE,45,8.5,8.5,24,0.00,,---,0.00,VWS V14.01,2013-04-18 18:57:00,
2013-04-18 13:58:00,62.4,25.2,25.37,NNE,22,12.3,12.3,24,0.00,,---,0.00,VWS V14.01,2013-04-18 18:58:00,
2013-04-18 13:59:00,61.9,24.7,25.37,NE,45,11.0,12.3,24,0.00,,---,0.00,VWS V14.01,2013-04-18 18:59:00,
2013-04-18 14:00:00,61.9,24.7,25.37,NE,45,11.2,12.8,24,0.00,,---,0.00,VWS V14.01,2013-04-18 19:00:00,
2013-04-18 14:01:00,62.4,25.2,25.37,NE,45,5.6,11.2,24,0.00,,---,0.00,VWS V14.01,2013-04-18 19:01:00,
2013-04-18 14:02:00,62.1,24.9,25.37,NE,45,6.0,12.8,24,0.00,,---,0.00,VWS V14.01,2013-04-18 19:02:00,
2013-04-18 14:03:00,63.0,25.6,25.37,NNE,22,5.6,5.6,24,0.00,,---,0.00,VWS V14.01,2013-04-18 19:03:00,
2013-04-18 14:04:00,62.6,25.3,25.37,NE,45,10.7,12.8,24,0.00,,---,0.00,VWS V14.01,2013-04-18 19:04:00,
2013-04-18 14:05:00,62.6,25.3,25.37,East,90,4.9,10.7,24,0.00,,---,0.00,VWS V14.01,2013-04-18 19:05:00,
2013-04-18 14:06:00,63.5,26.1,25.37,NNE,22,10.3,10.3,24,0.00,,---,0.00,VWS V14.01,2013-04-18 19:06:00,
2013-04-18 14:07:00,62.6,25.3,25.37,NE,45,9.2,14.5,24,0.00,,---,0.00,VWS V14.01,2013-04-18 19:07:00,
2013-04-18 14:08:00,63.1,25.8,25.37,North,0,8.5,10.7,24,0.00,,---,0.00,VWS V14.01,2013-04-18 19:08:00,
2013-04-18 14:09:00,63.9,26.4,25.37,North,0,5.6,5.6,24,0.00,,---,0.00,VWS V14.01,2013-04-18 19:09:00,
2013-04-18 14:10:00,63.9,26.4,25.37,NNE,22,6.5,6.5,24,0.00,,---,0.00,VWS V14.01,2013-04-18 19:10:00,
2013-04-18 14:11:00,64.4,25.8,25.37,NE,45,9.6,9.6,23,0.00,,---,0.00,VWS V14.01,2013-04-18 19:11:00,
2013-04-18 14:12:00,63.5,26.1,25.37,NNE,22,12.1,12.1,24,0.00,,---,0.00,VWS V14.01,2013-04-18 19:12:00,
2013-04-18 14:13:00,63.5,26.1,25.37,NNE,22,9.2,12.1,24,0.00,,---,0.00,VWS V14.01,2013-04-18 19:13:00,
2013-04-18 14:14:00,63.1,24.8,25.37,NNE,22,6.3,10.7,23,0.00,,---,0.00,VWS V14.01,2013-04-18 19:14:00,
2013-04-18 14:15:00,63.3,25.9,25.37,ENE,68,5.4,7.6,24,0.00,,---,0.00,VWS V14.01,2013-04-18 19:15:00,
2013-04-18 14:16:00,64.6,26.0,25.37,ENE,68,3.8,5.4,23,0.00,,---,0.00,VWS V14.01,2013-04-18 19:16:00,
2013-04-18 14:17:00,64.6,26.0,25.37,NNW,338,12.5,12.8,23,0.00,,---,0.00,VWS V14.01,2013-04-18 19:17:00,
2013-04-18 14:18:00,63.7,25.2,25.37,NNW,338,8.7,12.8,23,0.00,,---,0.00,VWS V14.01,2013-04-18 19:18:00,
2013-04-18 14:19:00,64.0,26.5,25.37,NNW,338,5.4,8.7,24,0.00,,---,0.00,VWS V14.01,2013-04-18 19:19:00,
2013-04-18 14:20:00,63.7,25.2,25.37,NNE,22,10.7,10.7,23,0.00,,---,0.00,VWS V14.01,2013-04-18 19:20:00,
2013-04-18 14:21:00,63.7,25.2,25.37,NE,45,5.8,10.7,23,0.00,,---,0.00,VWS V14.01,2013-04-18 19:21:00,
2013-04-18 14:22:00,63.7,25.2,25.37,NNW,338,8.7,9.8,23,0.00,,---,0.00,VWS V14.01,2013-04-18 19:22:00,
2013-04-18 14:23:00,64.6,26.0,25.37,NNW,338,7.6,8.7,23,0.00,,---,0.00,VWS V14.01,2013-04-18 19:23:00,
2013-04-18 14:24:00,64.8,26.1,25.37,North,0,6.7,7.6,23,0.00,,---,0.00,VWS V14.01,2013-04-18 19:24:00,
2013-04-18 14:25:00,64.8,26.1,25.37,NNW,338,11.4,11.4,23,0.00,,---,0.00,VWS V14.01,2013-04-18 19:25:00,
2013-04-18 14:26:00,64.8,26.1,25.37,NNE,22,5.6,11.4,23,0.00,,---,0.00,VWS V14.01,2013-04-18 19:26:00,
2013-04-18 14:27:00,65.5,26.7,25.37,NNE,22,8.5,8.5,23,0.00,,---,0.00,VWS V14.01,2013-04-18 19:27:00,
2013-04-18 14:28:00,65.1,26.4,25.37,NNE,22,9.6,10.1,23,0.00,,---,0.00,VWS V14.01,2013-04-18 19:28:00,
2013-04-18 14:29:00,64.4,25.8,25.37,NNE,22,12.3,13.2,23,0.00,,---,0.00,VWS V14.01,2013-04-18 19:29:00,
2013-04-18 14:30:00,64.4,25.8,25.37,NW,315,5.8,12.3,23,0.00,,---,0.00,VWS V14.01,2013-04-18 19:30:00,
2013-04-18 14:31:00,64.4,25.8,25.37,NE,45,4.0,5.8,23,0.00,,---,0.00,VWS V14.01,2013-04-18 19:31:00,
2013-04-18 14:32:00,64.4,25.8,25.37,ENE,68,10.3,10.3,23,0.00,,---,0.00,VWS V14.01,2013-04-18 19:32:00,
2013-04-18 14:33:00,64.4,25.8,25.37,ENE,68,11.0,12.8,23,0.00,,---,0.00,VWS V14.01,2013-04-18 19:33:00,
2013-04-18 14:34:00,63.9,25.4,25.37,NE,45,13.0,13.0,23,0.00,,---,0.00,VWS V14.01,2013-04-18 19:34:00,
2013-04-18 14:35:00,64.0,25.5,25.37,NNE,22,15.2,15.2,23,0.00,,---,0.00,VWS V14.01,2013-04-18 19:35:00,
2013-04-18 14:36:00,64.2,25.7,25.37,NE,45,7.6,15.2,23,0.00,,---,0.00,VWS V14.01,2013-04-18 19:36:00,
2013-04-18 14:37:00,64.6,26.0,25.37,NE,45,8.7,10.5,23,0.00,,---,0.00,VWS V14.01,2013-04-18 19:37:00,
2013-04-18 14:38:00,64.6,26.0,25.34,North,0,7.8,10.5,23,0.00,,---,0.00,VWS V14.01,2013-04-18 19:38:00,
2013-04-18 14:39:00,64.6,26.0,25.34,North,0,7.8,7.8,23,0.00,,---,0.00,VWS V14.01,2013-04-18 19:39:00,
2013-04-18 14:40:00,64.6,26.0,25.34,NNE,22,7.8,7.8,23,0.00,,---,0.00,VWS V14.01,2013-04-18 19:40:00,
2013-04-18 14:41:00,64.9,26.3,25.34,ENE,68,10.7,11.0,23,0.00,,---,0.00,VWS V14.01,2013-04-18 19:41:00,
2013-04-18 14:42:00,64.8,26.1,25.34,NNE,22,8.7,10.7,23,0.00,,---,0.00,VWS V14.01,2013-04-18 19:42:00,
2013-04-18 14:43:00,64.8,26.1,25.34,ENE,68,9.6,9.8,23,0.00,,---,0.00,VWS V14.01,2013-04-18 19:43:00,
2013-04-18 14:44:00,64.8,26.1,25.34,ENE,68,6.5,6.5,23,0.00,,---,0.00,VWS V14.01,2013-04-18 19:44:00,
2013-04-18 14:45:00,64.8,26.1,25.34,ENE,68,6.5,6.5,23,0.00,,---,0.00,VWS V14.01,2013-04-18 19:45:00,
2013-04-18 14:46:00,64.8,26.1,25.34,NE,45,6.3,6.5,23,0.00,,---,0.00,VWS V14.01,2013-04-18 19:46:00,
2013-04-18 14:47:00,64.8,26.1,25.34,ENE,68,2.9,6.3,23,0.00,,---,0.00,VWS V14.01,2013-04-18 19:47:00,
2013-04-18 14:48:00,67.1,27.0,25.34,North,0,4.9,4.9,22,0.00,,---,0.00,VWS V14.01,2013-04-18 19:48:00,
2013-04-18 14:49:00,67.1,27.0,25.34,North,0,4.9,4.9,22,0.00,,---,0.00,VWS V14.01,2013-04-18 19:49:00,
2013-04-18 14:50:00,66.2,26.3,25.34,NNE,22,7.8,10.3,22,0.00,,---,0.00,VWS V14.01,2013-04-18 19:50:00,
2013-04-18 14:51:00,65.7,26.9,25.34,ENE,68,10.7,10.7,23,0.00,,---,0.00,VWS V14.01,2013-04-18 19:51:00,
2013-04-18 14:52:00,65.7,26.9,25.34,NE,45,10.3,10.7,23,0.00,,---,0.00,VWS V14.01,2013-04-18 19:52:00,
2013-04-18 14:53:00,65.7,26.9,25.34,NE,45,8.5,10.3,23,0.00,,---,0.00,VWS V14.01,2013-04-18 19:53:00,
2013-04-18 14:54:00,65.7,26.9,25.37,WSW,248,3.8,8.5,23,0.00,,---,0.00,VWS V14.01,2013-04-18 19:54:00,
2013-04-18 14:55:00,67.3,27.2,25.37,North,0,6.5,6.5,22,0.00,,---,0.00,VWS V14.01,2013-04-18 19:55:00,
2013-04-18 14:56:00,67.5,27.3,25.37,NNW,338,5.6,6.5,22,0.00,,---,0.00,VWS V14.01,2013-04-18 19:56:00,
2013-04-18 14:57:00,65.7,26.9,25.37,NNE,22,13.2,13.2,23,0.00,,---,0.00,VWS V14.01,2013-04-18 19:57:00,
2013-04-18 14:58:00,65.7,26.9,25.37,NNE,22,10.3,13.2,23,0.00,,---,0.00,VWS V14.01,2013-04-18 19:58:00,
2013-04-18 14:59:00,65.7,26.9,25.37,NNE,22,13.2,17.5,23,0.00,,---,0.00,VWS V14.01,2013-04-18 19:59:00,
2013-04-18 15:00:00,65.7,26.9,25.37,North,0,10.3,13.2,23,0.00,,---,0.00,VWS V14.01,2013-04-18 20:00:00,
2013-04-18 15:01:00,65.7,26.9,25.37,NNW,338,13.0,13.0,23,0.00,,---,0.00,VWS V14.01,2013-04-18 20:01:00,
2013-04-18 15:02:00,63.9,23.2,25.37,North,0,10.3,13.0,21,0.00,,---,0.00,VWS V14.01,2013-04-18 20:02:00,
2013-04-18 15:03:00,63.5,22.9,25.37,NNE,22,5.6,17.2,21,0.00,,---,0.00,VWS V14.01,2013-04-18 20:03:00,
2013-04-18 15:04:00,63.9,23.2,25.37,ENE,68,11.0,12.5,21,0.00,,---,0.00,VWS V14.01,2013-04-18 20:04:00,
2013-04-18 15:05:00,64.0,23.3,25.37,NE,45,8.1,11.0,21,0.00,,---,0.00,VWS V14.01,2013-04-18 20:05:00,
2013-04-18 15:06:00,64.0,23.3,25.37,NE,45,8.1,8.1,21,0.00,,---,0.00,VWS V14.01,2013-04-18 20:06:00,
2013-04-18 15:07:00,63.1,22.6,25.37,ENE,68,12.3,16.3,21,0.00,,---,0.00,VWS V14.01,2013-04-18 20:07:00,
2013-04-18 15:08:00,63.1,24.8,25.37,North,0,13.6,13.6,23,0.00,,---,0.00,VWS V14.01,2013-04-18 20:08:00,
2013-04-18 15:09:00,63.0,24.6,25.37,North,0,10.5,15.4,23,0.00,,---,0.00,VWS V14.01,2013-04-18 20:09:00,
2013-04-18 15:10:00,63.3,24.9,25.37,NNE,22,9.8,10.5,23,0.00,,---,0.00,VWS V14.01,2013-04-18 20:10:00,
2013-04-18 15:11:00,63.5,25.1,25.37,NNW,338,10.3,10.3,23,0.00,,---,0.00,VWS V14.01,2013-04-18 20:11:00,
2013-04-18 15:12:00,63.7,25.2,25.37,NNW,338,7.4,10.7,23,0.00,,---,0.00,VWS V14.01,2013-04-18 20:12:00,
2013-04-18 15:13:00,63.7,25.2,25.37,NNW,338,9.8,9.8,23,0.00,,---,0.00,VWS V14.01,2013-04-18 20:13:00,
2013-04-18 15:14:00,63.9,23.2,25.37,NNE,22,6.3,9.8,21,0.00,,---,0.00,VWS V14.01,2013-04-18 20:14:00,
2013-04-18 15:16:00,64.6,22.6,25.37,North,0,7.2,7.2,20,0.00,,---,0.00,VWS V14.01,2013-04-18 20:16:00,
2013-04-18 15:17:00,63.9,23.2,25.37,ENE,68,7.8,13.2,21,0.00,,---,0.00,VWS V14.01,2013-04-18 20:17:00,
2013-04-18 15:18:00,64.8,26.1,25.37,NE,45,5.6,7.8,23,0.00,,---,0.00,VWS V14.01,2013-04-18 20:18:00,
2013-04-18 15:19:00,64.6,22.6,25.37,NE,45,5.6,5.6,20,0.00,,---,0.00,VWS V14.01,2013-04-18 20:19:00,
2013-04-18 15:20:00,64.9,22.9,25.37,NE,45,5.6,5.6,20,0.00,,---,0.00,VWS V14.01,2013-04-18 20:20:00,
2013-04-18 15:21:00,64.9,22.9,25.37,NE,45,5.6,5.6,20,0.00,,---,0.00,VWS V14.01,2013-04-18 20:21:00,
2013-04-18 15:22:00,64.9,22.9,25.37,NE,45,5.6,5.6,20,0.00,,---,0.00,VWS V14.01,2013-04-18 20:22:00,
2013-04-18 15:23:00,63.7,23.0,25.37,NE,45,12.1,12.1,21,0.00,,---,0.00,VWS V14.01,2013-04-18 20:23:00,
2013-04-18 15:24:00,64.0,23.3,25.37,NNE,22,12.3,12.3,21,0.00,,---,0.00,VWS V14.01,2013-04-18 20:24:00,
2013-04-18 15:25:00,64.0,23.3,25.37,NNE,22,10.5,10.5,21,0.00,,---,0.00,VWS V14.01,2013-04-18 20:25:00,
2013-04-18 15:26:00,64.2,23.5,25.37,NE,45,10.1,10.7,21,0.00,,---,0.00,VWS V14.01,2013-04-18 20:26:00,
2013-04-18 15:27:00,64.4,22.5,25.37,North,0,11.0,11.0,20,0.00,,---,0.00,VWS V14.01,2013-04-18 20:27:00,
2013-04-18 15:28:00,63.5,22.9,25.37,North,0,13.2,13.2,21,0.00,,---,0.00,VWS V14.01,2013-04-18 20:28:00,
2013-04-18 15:29:00,63.5,22.9,25.37,North,0,7.6,13.2,21,0.00,,---,0.00,VWS V14.01,2013-04-18 20:29:00,
2013-04-18 15:30:00,63.3,22.8,25.37,North,0,7.6,7.6,21,0.00,,---,0.00,VWS V14.01,2013-04-18 20:30:00,
2013-04-18 15:31:00,63.5,22.9,25.37,North,0,7.6,7.6,21,0.00,,---,0.00,VWS V14.01,2013-04-18 20:31:00,
2013-04-18 15:32:00,63.5,22.9,25.37,North,0,7.6,7.6,21,0.00,,---,0.00,VWS V14.01,2013-04-18 20:32:00,
2013-04-18 15:33:00,64.0,23.3,25.37,NNE,22,12.3,12.3,21,0.00,,---,0.00,VWS V14.01,2013-04-18 20:33:00,
2013-04-18 15:34:00,64.0,23.3,25.37,NNE,22,12.3,12.3,21,0.00,,---,0.00,VWS V14.01,2013-04-18 20:34:00,
2013-04-18 15:35:00,64.0,23.3,25.37,NE,45,7.8,12.3,21,0.00,,---,0.00,VWS V14.01,2013-04-18 20:35:00,
2013-04-18 15:36:00,64.4,22.5,25.37,NNE,22,13.2,13.2,20,0.00,,---,0.00,VWS V14.01,2013-04-18 20:36:00,
2013-04-18 15:37:00,64.6,22.6,25.37,NNE,22,13.2,13.2,20,0.00,,---,0.00,VWS V14.01,2013-04-18 20:37:00,
2013-04-18 15:38:00,64.0,23.3,25.37,NNE,22,15.2,17.2,21,0.00,,---,0.00,VWS V14.01,2013-04-18 20:38:00,
2013-04-18 15:39:00,64.0,23.3,25.37,NNE,22,13.0,15.2,21,0.00,,---,0.00,VWS V14.01,2013-04-18 20:39:00,
2013-04-18 15:40:00,63.3,22.8,25.37,North,0,12.1,16.1,21,0.00,,---,0.00,VWS V14.01,2013-04-18 20:40:00,
2013-04-18 15:41:00,63.5,22.9,25.37,NNE,22,15.2,15.7,21,0.00,,---,0.00,VWS V14.01,2013-04-18 20:41:00,
2013-04-18 15:42:00,63.7,23.0,25.37,North,0,10.1,15.2,21,0.00,,---,0.00,VWS V14.01,2013-04-18 20:42:00,
2013-04-18 15:43:00,63.5,22.9,25.37,North,0,13.0,13.0,21,0.00,,---,0.00,VWS V14.01,2013-04-18 20:43:00,
2013-04-18 15:44:00,63.5,22.9,25.37,North,0,12.1,13.0,21,0.00,,---,0.00,VWS V14.01,2013-04-18 20:44:00,
2013-04-18 15:45:00,64.2,23.5,25.37,North,0,10.5,12.1,21,0.00,,---,0.00,VWS V14.01,2013-04-18 20:45:00,
2013-04-18 15:46:00,63.7,23.0,25.37,NNE,22,12.3,12.3,21,0.00,,---,0.00,VWS V14.01,2013-04-18 20:46:00,
2013-04-18 15:47:00,64.0,23.3,25.37,North,0,10.3,13.0,21,0.00,,---,0.00,VWS V14.01,2013-04-18 20:47:00,
2013-04-18 15:48:00,64.2,23.5,25.37,NNW,338,5.4,11.9,21,0.00,,---,0.00,VWS V14.01,2013-04-18 20:48:00,
2013-04-18 15:49:00,64.2,23.5,25.37,NNW,338,12.8,12.8,21,0.00,,---,0.00,VWS V14.01,2013-04-18 20:49:00,
2013-04-18 15:50:00,64.4,22.5,25.37,NNE,22,10.1,12.8,20,0.00,,---,0.00,VWS V14.01,2013-04-18 20:50:00,
2013-04-18 15:51:00,64.4,22.5,25.37,ENE,68,10.5,10.5,20,0.00,,---,0.00,VWS V14.01,2013-04-18 20:51:00,
2013-04-18 15:52:00,64.6,22.6,25.37,ENE,68,12.8,12.8,20,0.00,,---,0.00,VWS V14.01,2013-04-18 20:52:00,
2013-04-18 15:53:00,64.4,22.5,25.37,ENE,68,3.8,12.8,20,0.00,,---,0.00,VWS V14.01,2013-04-18 20:53:00,
2013-04-18 15:54:00,64.8,22.8,25.37,ENE,68,7.6,7.6,20,0.00,,---,0.00,VWS V14.01,2013-04-18 20:54:00,
2013-04-18 15:55:00,64.4,22.5,25.37,NNE,22,11.0,15.4,20,0.00,,---,0.00,VWS V14.01,2013-04-18 20:55:00,
2013-04-18 15:56:00,64.6,22.6,25.37,NNE,22,10.3,11.0,20,0.00,,---,0.00,VWS V14.01,2013-04-18 20:56:00,
2013-04-18 15:58:00,64.8,22.8,25.37,ENE,68,13.2,15.2,20,0.00,,---,0.00,VWS V14.01,2013-04-18 20:58:00,
2013-04-18 15:59:00,64.0,23.3,25.37,NE,45,10.5,18.1,21,0.00,,---,0.00,VWS V14.01,2013-04-18 20:59:00,
2013-04-18 16:00:00,63.9,23.2,25.37,NNE,22,8.7,14.8,21,0.00,,---,0.00,VWS V14.01,2013-04-18 21:00:00,
2013-04-18 16:01:00,64.6,22.6,25.37,NNE,22,8.7,10.5,20,0.00,,---,0.00,VWS V14.01,2013-04-18 21:01:00,
2013-04-18 16:02:00,65.3,23.2,25.37,North,0,12.5,12.5,20,0.00,,---,0.00,VWS V14.01,2013-04-18 21:02:00,
2013-04-18 16:03:00,64.8,22.8,25.37,North,0,13.2,13.2,20,0.00,,---,0.00,VWS V14.01,2013-04-18 21:03:00,
2013-04-18 16:04:00,64.8,22.8,25.37,NE,45,15.4,15.4,20,0.00,,---,0.00,VWS V14.01,2013-04-18 21:04:00,
2013-04-18 16:05:00,63.9,23.2,25.37,NNE,22,13.6,15.4,21,0.00,,---,0.00,VWS V14.01,2013-04-18 21:05:00,
2013-04-18 16:06:00,64.6,22.6,25.37,NE,45,7.6,13.6,20,0.00,,---,0.00,VWS V14.01,2013-04-18 21:06:00,
2013-04-18 16:07:00,63.9,23.2,25.37,NNE,22,15.4,19.9,21,0.00,,---,0.00,VWS V14.01,2013-04-18 21:07:00,
2013-04-18 16:08:00,63.7,23.0,25.37,NNE,22,14.1,17.5,21,0.00,,---,0.00,VWS V14.01,2013-04-18 21:08:00,
2013-04-18 16:09:00,64.0,23.3,25.37,ENE,68,16.6,19.9,21,0.00,,---,0.00,VWS V14.01,2013-04-18 21:09:00,
2013-04-18 16:10:00,63.9,23.2,25.37,NNE,22,13.0,19.7,21,0.00,,---,0.00,VWS V14.01,2013-04-18 21:10:00,
2013-04-18 16:11:00,63.9,23.2,25.37,NE,45,17.5,17.5,21,0.00,,---,0.00,VWS V14.01,2013-04-18 21:11:00,
2013-04-18 16:12:00,63.5,22.9,25.37,NE,45,14.5,19.7,21,0.00,,---,0.00,VWS V14.01,2013-04-18 21:12:00,
2013-04-18 16:13:00,63.5,22.9,25.37,NNE,22,18.1,18.1,21,0.00,,---,0.00,VWS V14.01,2013-04-18 21:13:00,
2013-04-18 16:14:00,63.1,22.6,25.37,NE,45,13.0,18.1,21,0.00,,---,0.00,VWS V14.01,2013-04-18 21:14:00,
2013-04-18 16:16:00,63.0,22.5,25.37,NE,45,17.7,17.7,21,0.00,,---,0.00,VWS V14.01,2013-04-18 21:16:00,
2013-04-18 16:17:00,63.0,22.5,25.37,NE,45,7.4,17.7,21,0.00,,---,0.00,VWS V14.01,2013-04-18 21:17:00,
2013-04-18 16:18:00,63.5,22.9,25.37,NE,45,14.8,14.8,21,0.00,,---,0.00,VWS V14.01,2013-04-18 21:18:00,
2013-04-18 16:19:00,63.5,22.9,25.37,NE,45,10.5,14.8,21,0.00,,---,0.00,VWS V14.01,2013-04-18 21:19:00,
2013-04-18 16:20:00,63.3,22.8,25.37,NE,45,14.8,14.8,21,0.00,,---,0.00,VWS V14.01,2013-04-18 21:20:00,
2013-04-18 16:21:00,63.3,22.8,25.37,NE,45,14.3,14.8,21,0.00,,---,0.00,VWS V14.01,2013-04-18 21:21:00,
2013-04-18 16:22:00,63.1,22.6,25.37,ENE,68,15.9,17.0,21,0.00,,---,0.00,VWS V14.01,2013-04-18 21:22:00,
2013-04-18 16:23:00,63.3,22.8,25.37,ENE,68,14.3,15.9,21,0.00,,---,0.00,VWS V14.01,2013-04-18 21:23:00,
2013-04-18 16:24:00,63.3,22.8,25.37,NNE,22,10.5,16.1,21,0.00,,---,0.00,VWS V14.01,2013-04-18 21:24:00,
2013-04-18 16:25:00,63.1,22.6,25.37,NE,45,13.2,13.2,21,0.00,,---,0.00,VWS V14.01,2013-04-18 21:25:00,
2013-04-18 16:26:00,63.3,22.8,25.37,NE,45,7.4,13.2,21,0.00,,---,0.00,VWS V14.01,2013-04-18 21:26:00,
2013-04-18 16:27:00,63.9,23.2,25.37,NE,45,7.4,7.4,21,0.00,,---,0.00,VWS V14.01,2013-04-18 21:27:00,
2013-04-18 16:28:00,63.7,23.0,25.37,NNE,22,12.1,12.1,21,0.00,,---,0.00,VWS V14.01,2013-04-18 21:28:00,
2013-04-18 16:29:00,63.7,23.0,25.37,NNE,22,12.1,12.1,21,0.00,,---,0.00,VWS V14.01,2013-04-18 21:29:00,
2013-04-18 16:30:00,64.2,23.5,25.37,NE,45,10.5,12.1,21,0.00,,---,0.00,VWS V14.01,2013-04-18 21:30:00,
2013-04-18 16:31:00,64.8,22.8,25.37,NNE,22,5.4,10.5,20,0.00,,---,0.00,VWS V14.01,2013-04-18 21:31:00,
2013-04-18 16:32:00,64.4,22.5,25.37,NNE,22,5.4,5.4,20,0.00,,---,0.00,VWS V14.01,2013-04-18 21:32:00,
2013-04-18 16:33:00,64.8,22.8,25.37,NNE,22,12.5,12.5,20,0.00,,---,0.00,VWS V14.01,2013-04-18 21:33:00,
2013-04-18 16:34:00,64.4,22.5,25.37,NNE,22,14.1,15.4,20,0.00,,---,0.00,VWS V14.01,2013-04-18 21:34:00,
2013-04-18 16:35:00,64.2,23.5,25.37,North,0,11.9,15.4,21,0.00,,---,0.00,VWS V14.01,2013-04-18 21:35:00,
2013-04-18 16:36:00,64.4,22.5,25.37,North,0,10.1,12.3,20,0.00,,---,0.00,VWS V14.01,2013-04-18 21:36:00,
2013-04-18 16:37:00,64.4,22.5,25.37,North,0,7.6,10.1,20,0.00,,---,0.00,VWS V14.01,2013-04-18 21:37:00,
2013-04-18 16:38:00,64.4,22.5,25.37,North,0,7.6,7.6,20,0.00,,---,0.00,VWS V14.01,2013-04-18 21:38:00,
2013-04-18 16:39:00,64.0,23.3,25.37,ENE,68,12.3,12.3,21,0.00,,---,0.00,VWS V14.01,2013-04-18 21:39:00,
2013-04-18 16:40:00,64.0,23.3,25.37,NE,45,7.4,9.6,21,0.00,,---,0.00,VWS V14.01,2013-04-18 21:40:00,
2013-04-18 16:41:00,64.4,22.5,25.37,NE,45,3.6,9.6,20,0.00,,---,0.00,VWS V14.01,2013-04-18 21:41:00,
2013-04-18 16:42:00,65.8,23.7,25.37,NNW,338,3.1,3.6,20,0.00,,---,0.00,VWS V14.01,2013-04-18 21:42:00,
2013-04-18 16:43:00,65.1,23.1,25.37,NNW,338,3.1,3.1,20,0.00,,---,0.00,VWS V14.01,2013-04-18 21:43:00,
2013-04-18 16:44:00,65.1,23.1,25.37,NNW,338,3.1,3.1,20,0.00,,---,0.00,VWS V14.01,2013-04-18 21:44:00,
2013-04-18 16:45:00,65.5,23.4,25.37,North,0,6.3,6.3,20,0.00,,---,0.00,VWS V14.01,2013-04-18 21:45:00,
2013-04-18 16:46:00,65.5,23.4,25.37,NE,45,6.0,8.7,20,0.00,,---,0.00,VWS V14.01,2013-04-18 21:46:00,
2013-04-18 16:47:00,66.0,23.8,25.37,ENE,68,6.7,6.7,20,0.00,,---,0.00,VWS V14.01,2013-04-18 21:47:00,
2013-04-18 16:48:00,66.0,23.8,25.37,NE,45,13.2,13.2,20,0.00,,---,0.00,VWS V14.01,2013-04-18 21:48:00,
2013-04-18 16:49:00,65.1,23.1,25.37,NNE,22,10.1,15.2,20,0.00,,---,0.00,VWS V14.01,2013-04-18 21:49:00,
2013-04-18 16:50:00,64.6,22.6,25.37,ENE,68,14.8,15.4,20,0.00,,---,0.00,VWS V14.01,2013-04-18 21:50:00,
2013-04-18 16:51:00,64.4,22.5,25.37,ENE,68,11.0,14.8,20,0.00,,---,0.00,VWS V14.01,2013-04-18 21:51:00,
2013-04-18 16:52:00,64.4,22.5,25.37,ENE,68,11.0,13.0,20,0.00,,---,0.00,VWS V14.01,2013-04-18 21:52:00,
2013-04-18 16:53:00,64.8,22.8,25.37,NNW,338,8.1,11.0,20,0.00,,---,0.00,VWS V14.01,2013-04-18 21:53:00,
2013-04-18 16:54:00,64.8,22.8,25.37,NNE,22,9.8,9.8,20,0.00,,---,0.00,VWS V14.01,2013-04-18 21:54:00,
2013-04-18 16:55:00,64.8,22.8,25.37,NNE,22,6.3,9.8,20,0.00,,---,0.00,VWS V14.01,2013-04-18 21:55:00,
2013-04-18 16:56:00,65.1,23.1,25.37,North,0,10.7,10.7,20,0.00,,---,0.00,VWS V14.01,2013-04-18 21:56:00,
2013-04-18 16:57:00,64.9,22.9,25.37,NNE,22,10.7,11.0,20,0.00,,---,0.00,VWS V14.01,2013-04-18 21:57:00,
2013-04-18 16:58:00,64.8,22.8,25.37,North,0,10.3,13.0,20,0.00,,---,0.00,VWS V14.01,2013-04-18 21:58:00,
2013-04-18 16:59:00,64.8,22.8,25.37,NE,45,14.5,14.5,20,0.00,,---,0.00,VWS V14.01,2013-04-18 21:59:00,
2013-04-18 17:00:00,64.8,22.8,25.37,ENE,68,15.2,15.2,20,0.00,,---,0.00,VWS V14.01,2013-04-18 22:00:00,
2013-04-18 17:01:00,64.0,23.3,25.37,ENE,68,8.1,15.2,21,0.00,,---,0.00,VWS V14.01,2013-04-18 22:01:00,
2013-04-18 17:02:00,64.2,23.5,25.37,NNE,22,6.9,10.1,21,0.00,,---,0.00,VWS V14.01,2013-04-18 22:02:00,
2013-04-18 17:03:00,64.4,22.5,25.37,NE,45,11.2,15.2,20,0.00,,---,0.00,VWS V14.01,2013-04-18 22:03:00,
2013-04-18 17:04:00,64.2,23.5,25.37,ENE,68,12.5,14.1,21,0.00,,---,0.00,VWS V14.01,2013-04-18 22:04:00,
2013-04-18 17:05:00,64.2,23.5,25.37,NNE,22,10.1,12.5,21,0.00,,---,0.00,VWS V14.01,2013-04-18 22:05:00,
2013-04-18 17:06:00,64.4,22.5,25.37,NE,45,10.3,10.7,20,0.00,,---,0.00,VWS V14.01,2013-04-18 22:06:00,
2013-04-18 17:07:00,64.4,22.5,25.37,NE,45,10.7,12.8,20,0.00,,---,0.00,VWS V14.01,2013-04-18 22:07:00,
2013-04-18 17:08:00,64.6,22.6,25.37,ENE,68,10.1,11.4,20,0.00,,---,0.00,VWS V14.01,2013-04-18 22:08:00,
2013-04-18 17:09:00,64.2,23.5,25.37,NNE,22,12.8,15.4,21,0.00,,---,0.00,VWS V14.01,2013-04-18 22:09:00,
2013-04-18 17:10:00,64.2,23.5,25.37,NNE,22,13.2,13.2,21,0.00,,---,0.00,VWS V14.01,2013-04-18 22:10:00,
2013-04-18 17:11:00,64.2,23.5,25.37,NE,45,10.5,10.5,21,0.00,,---,0.00,VWS V14.01,2013-04-18 22:11:00,
2013-04-18 17:12:00,64.2,23.5,25.37,ENE,68,13.0,13.0,21,0.00,,---,0.00,VWS V14.01,2013-04-18 22:12:00,
2013-04-18 17:13:00,63.7,23.0,25.37,NE,45,11.4,13.6,21,0.00,,---,0.00,VWS V14.01,2013-04-18 22:13:00,
2013-04-18 17:14:00,63.7,23.0,25.37,ENE,68,8.5,15.4,21,0.00,,---,0.00,VWS V14.01,2013-04-18 22:14:00,
2013-04-18 17:15:00,63.5,22.9,25.37,ENE,68,13.9,13.9,21,0.00,,---,0.00,VWS V14.01,2013-04-18 22:15:00,
2013-04-18 17:16:00,63.5,22.9,25.37,ENE,68,13.9,13.9,21,0.00,,---,0.00,VWS V14.01,2013-04-18 22:16:00,
2013-04-18 17:17:00,63.3,22.8,25.37,NNE,22,15.7,15.7,21,0.00,,---,0.00,VWS V14.01,2013-04-18 22:17:00,
2013-04-18 17:18:00,63.1,22.6,25.37,NNE,22,15.9,15.9,21,0.00,,---,0.00,VWS V14.01,2013-04-18 22:18:00,
2013-04-18 17:19:00,63.1,22.6,25.37,NNE,22,16.3,16.3,21,0.00,,---,0.00,VWS V14.01,2013-04-18 22:19:00,
2013-04-18 17:20:00,63.1,22.6,25.37,NNE,22,13.4,16.3,21,0.00,,---,0.00,VWS V14.01,2013-04-18 22:20:00,
2013-04-18 17:21:00,63.1,22.6,25.37,NNE,22,10.1,13.4,21,0.00,,---,0.00,VWS V14.01,2013-04-18 22:21:00,
2013-04-18 17:22:00,63.0,22.5,25.37,NNE,22,13.0,13.0,21,0.00,,---,0.00,VWS V14.01,2013-04-18 22:22:00,
2013-04-18 17:23:00,62.8,22.3,25.37,NNE,22,13.2,15.4,21,0.00,,---,0.00,VWS V14.01,2013-04-18 22:23:00,
2013-04-18 17:24:00,63.0,22.5,25.37,ENE,68,12.8,15.4,21,0.00,,---,0.00,VWS V14.01,2013-04-18 22:24:00,
2013-04-18 17:25:00,63.0,22.5,25.37,NE,45,12.5,14.8,21,0.00,,---,0.00,VWS V14.01,2013-04-18 22:25:00,
2013-04-18 17:26:00,62.8,22.3,25.37,NE,45,11.0,12.5,21,0.00,,---,0.00,VWS V14.01,2013-04-18 22:26:00,
2013-04-18 17:27:00,62.8,22.3,25.37,NE,45,13.0,15.4,21,0.00,,---,0.00,VWS V14.01,2013-04-18 22:27:00,
2013-04-18 17:28:00,62.8,22.3,25.37,ENE,68,10.7,13.0,21,0.00,,---,0.00,VWS V14.01,2013-04-18 22:28:00,
2013-04-18 17:29:00,62.8,22.3,25.37,NE,45,12.8,12.8,21,0.00,,---,0.00,VWS V14.01,2013-04-18 22:29:00,
2013-04-18 17:30:00,63.0,22.5,25.37,ENE,68,6.3,12.8,21,0.00,,---,0.00,VWS V14.01,2013-04-18 22:30:00,
2013-04-18 17:31:00,63.0,22.5,25.37,NE,45,12.3,15.2,21,0.00,,---,0.00,VWS V14.01,2013-04-18 22:31:00,
2013-04-18 17:32:00,62.6,22.1,25.37,NNE,22,13.2,17.2,21,0.00,,---,0.00,VWS V14.01,2013-04-18 22:32:00,
2013-04-18 17:33:00,62.2,21.9,25.37,NNE,22,13.2,17.5,21,0.00,,---,0.00,VWS V14.01,2013-04-18 22:33:00,
2013-04-18 17:34:00,62.2,21.9,25.37,ENE,68,10.7,13.2,21,0.00,,---,0.00,VWS V14.01,2013-04-18 22:34:00,
2013-04-18 17:35:00,62.4,22.0,25.37,NE,45,11.4,13.0,21,0.00,,---,0.00,VWS V14.01,2013-04-18 22:35:00,
2013-04-18 17:36:00,62.6,22.1,25.37,NE,45,10.7,15.2,21,0.00,,---,0.00,VWS V14.01,2013-04-18 22:36:00,
2013-04-18 17:37:00,62.4,22.0,25.37,NE,45,10.3,14.5,21,0.00,,---,0.00,VWS V14.01,2013-04-18 22:37:00,
2013-04-18 17:38:00,62.6,22.1,25.37,NNE,22,10.7,13.4,21,0.00,,---,0.00,VWS V14.01,2013-04-18 22:38:00,
2013-04-18 17:39:00,62.6,22.1,25.37,NNE,22,8.5,11.9,21,0.00,,---,0.00,VWS V14.01,2013-04-18 22:39:00,
2013-04-18 17:40:00,62.6,22.1,25.37,NNE,22,7.8,10.5,21,0.00,,---,0.00,VWS V14.01,2013-04-18 22:40:00,
2013-04-18 17:41:00,62.6,22.1,25.37,North,0,7.6,12.8,21,0.00,,---,0.00,VWS V14.01,2013-04-18 22:41:00,
2013-04-18 17:42:00,62.6,22.1,25.37,NNE,22,10.5,11.0,21,0.00,,---,0.00,VWS V14.01,2013-04-18 22:42:00,
2013-04-18 17:43:00,62.1,21.7,25.37,North,0,17.2,17.2,21,0.00,,---,0.00,VWS V14.01,2013-04-18 22:43:00,
2013-04-18 17:44:00,61.9,21.5,25.37,NNE,22,17.0,17.2,21,0.00,,---,0.00,VWS V14.01,2013-04-18 22:44:00,
2013-04-18 17:45:00,61.9,21.5,25.37,NE,45,13.2,17.0,21,0.00,,---,0.00,VWS V14.01,2013-04-18 22:45:00,
2013-04-18 17:46:00,61.7,21.4,25.37,NE,45,15.9,15.9,21,0.00,,---,0.00,VWS V14.01,2013-04-18 22:46:00,
2013-04-18 17:47:00,61.9,21.5,25.37,NNE,22,12.8,15.9,21,0.00,,---,0.00,VWS V14.01,2013-04-18 22:47:00,
2013-04-18 17:48:00,61.9,21.5,25.37,NNE,22,11.0,12.8,21,0.00,,---,0.00,VWS V14.01,2013-04-18 22:48:00,
2013-04-18 17:49:00,61.9,21.5,25.37,NNE,22,13.2,13.2,21,0.00,,---,0.00,VWS V14.01,2013-04-18 22:49:00,
2013-04-18 17:50:00,61.9,21.5,25.37,NNE,22,12.5,13.2,21,0.00,,---,0.00,VWS V14.01,2013-04-18 22:50:00,
2013-04-18 17:51:00,62.2,21.9,25.37,NNE,22,15.2,15.2,21,0.00,,---,0.00,VWS V14.01,2013-04-18 22:51:00,
2013-04-18 17:52:00,62.2,21.9,25.37,NNE,22,13.0,15.2,21,0.00,,---,0.00,VWS V14.01,2013-04-18 22:52:00,
2013-04-18 17:53:00,62.2,21.9,25.37,ENE,68,10.5,13.0,21,0.00,,---,0.00,VWS V14.01,2013-04-18 22:53:00,
2013-04-18 17:54:00,62.2,21.9,25.37,NNE,22,12.8,12.8,21,0.00,,---,0.00,VWS V14.01,2013-04-18 22:54:00,
2013-04-18 17:55:00,62.1,21.7,25.37,NE,45,17.2,17.5,21,0.00,,---,0.00,VWS V14.01,2013-04-18 22:55:00,
2013-04-18 17:56:00,61.9,21.5,25.37,NNE,22,13.2,17.2,21,0.00,,---,0.00,VWS V14.01,2013-04-18 22:56:00,
2013-04-18 17:57:00,61.9,21.5,25.37,NNE,22,13.2,13.2,21,0.00,,---,0.00,VWS V14.01,2013-04-18 22:57:00,
2013-04-18 17:58:00,61.0,20.8,25.37,NNE,22,10.3,10.3,21,0.00,,---,0.00,VWS V14.01,2013-04-18 22:58:00,
2013-04-18 17:59:00,61.0,20.8,25.37,NNE,22,12.5,12.5,21,0.00,,---,0.00,VWS V14.01,2013-04-18 22:59:00,
2013-04-18 18:00:00,61.0,20.8,25.37,NNE,22,14.8,14.8,21,0.00,,---,0.00,VWS V14.01,2013-04-18 23:00:00,
2013-04-18 18:01:00,61.0,20.8,25.37,NNE,22,15.4,15.4,21,0.00,,---,0.00,VWS V14.01,2013-04-18 23:01:00,
2013-04-18 18:02:00,61.0,20.8,25.37,NNE,22,15.4,15.4,21,0.00,,---,0.00,VWS V14.01,2013-04-18 23:02:00,
2013-04-18 18:03:00,61.0,20.8,25.37,NNE,22,15.4,15.4,21,0.00,,---,0.00,VWS V14.01,2013-04-18 23:03:00,
2013-04-18 18:04:00,61.0,20.8,25.37,NNE,22,13.4,15.4,21,0.00,,---,0.00,VWS V14.01,2013-04-18 23:04:00,
2013-04-18 18:05:00,60.8,20.6,25.37,NNE,22,14.5,14.5,21,0.00,,---,0.00,VWS V14.01,2013-04-18 23:05:00,
2013-04-18 18:06:00,60.6,21.6,25.37,NNE,22,10.3,14.5,22,0.00,,---,0.00,VWS V14.01,2013-04-18 23:06:00,
2013-04-18 18:07:00,60.6,21.6,25.37,NNE,22,10.3,10.3,22,0.00,,---,0.00,VWS V14.01,2013-04-18 23:07:00,
2013-04-18 18:08:00,60.6,21.6,25.37,NE,45,9.8,10.3,22,0.00,,---,0.00,VWS V14.01,2013-04-18 23:08:00,
2013-04-18 18:09:00,60.6,21.6,25.37,ENE,68,14.8,15.7,22,0.00,,---,0.00,VWS V14.01,2013-04-18 23:09:00,
2013-04-18 18:10:00,60.3,21.3,25.37,NNE,22,19.9,19.9,22,0.00,,---,0.00,VWS V14.01,2013-04-18 23:10:00,
2013-04-18 18:11:00,60.3,21.3,25.37,NE,45,16.8,16.8,22,0.00,,---,0.00,VWS V14.01,2013-04-18 23:11:00,
2013-04-18 18:12:00,60.3,21.3,25.37,NE,45,11.0,16.8,22,0.00,,---,0.00,VWS V14.01,2013-04-18 23:12:00,
2013-04-18 18:13:00,60.3,21.3,25.37,ENE,68,9.2,11.0,22,0.00,,---,0.00,VWS V14.01,2013-04-18 23:13:00,
2013-04-18 18:14:00,60.3,21.3,25.37,ENE,68,9.2,9.2,22,0.00,,---,0.00,VWS V14.01,2013-04-18 23:14:00,
2013-04-18 18:15:00,60.3,21.3,25.37,ENE,68,12.3,12.3,22,0.00,,---,0.00,VWS V14.01,2013-04-18 23:15:00,
2013-04-18 18:16:00,60.6,21.6,25.37,NE,45,12.8,13.0,22,0.00,,---,0.00,VWS V14.01,2013-04-18 23:16:00,
2013-04-18 18:17:00,60.6,21.6,25.37,NE,45,12.8,12.8,22,0.00,,---,0.00,VWS V14.01,2013-04-18 23:17:00,
2013-04-18 18:18:00,60.6,21.6,25.37,NNE,22,12.3,12.8,22,0.00,,---,0.00,VWS V14.01,2013-04-18 23:18:00,
2013-04-18 18:19:00,60.4,21.4,25.37,NNE,22,12.3,12.3,22,0.00,,---,0.00,VWS V14.01,2013-04-18 23:19:00,
2013-04-18 18:20:00,60.4,21.4,25.37,NNE,22,12.3,12.3,22,0.00,,---,0.00,VWS V14.01,2013-04-18 23:20:00,
2013-04-18 18:21:00,60.4,21.4,25.37,NNE,22,12.3,12.3,22,0.00,,---,0.00,VWS V14.01,2013-04-18 23:21:00,
2013-04-18 18:22:00,60.1,21.1,25.37,NE,45,12.5,12.5,22,0.00,,---,0.00,VWS V14.01,2013-04-18 23:22:00,
2013-04-18 18:23:00,60.1,21.1,25.37,NNE,22,13.0,14.8,22,0.00,,---,0.00,VWS V14.01,2013-04-18 23:23:00,
2013-04-18 18:24:00,60.1,21.1,25.37,NE,45,11.0,13.0,22,0.00,,---,0.00,VWS V14.01,2013-04-18 23:24:00,
2013-04-18 18:25:00,60.1,21.1,25.37,NE,45,10.1,11.0,22,0.00,,---,0.00,VWS V14.01,2013-04-18 23:25:00,
2013-04-18 18:26:00,60.1,21.1,25.37,ENE,68,11.0,11.0,22,0.00,,---,0.00,VWS V14.01,2013-04-18 23:26:00,
2013-04-18 18:27:00,60.1,21.1,25.37,ENE,68,10.3,12.3,22,0.00,,---,0.00,VWS V14.01,2013-04-18 23:27:00,
2013-04-18 18:28:00,60.1,21.1,25.37,NE,45,9.8,10.3,22,0.00,,---,0.00,VWS V14.01,2013-04-18 23:28:00,
2013-04-18 18:29:00,60.1,21.1,25.37,NNE,22,10.7,10.7,22,0.00,,---,0.00,VWS V14.01,2013-04-18 23:29:00,
2013-04-18 18:30:00,60.1,21.1,25.37,NNE,22,10.7,10.7,22,0.00,,---,0.00,VWS V14.01,2013-04-18 23:30:00,
2013-04-18 18:31:00,60.1,21.1,25.37,NE,45,10.3,10.7,22,0.00,,---,0.00,VWS V14.01,2013-04-18 23:31:00,
2013-04-18 18:32:00,60.1,21.1,25.37,NE,45,15.2,16.8,22,0.00,,---,0.00,VWS V14.01,2013-04-18 23:32:00,
2013-04-18 18:33:00,59.9,21.0,25.37,NE,45,15.2,15.2,22,0.00,,---,0.00,VWS V14.01,2013-04-18 23:33:00,
2013-04-18 18:34:00,59.9,21.0,25.37,ENE,68,10.3,15.2,22,0.00,,---,0.00,VWS V14.01,2013-04-18 23:34:00,
2013-04-18 18:35:00,59.9,21.0,25.37,ENE,68,8.5,10.3,22,0.00,,---,0.00,VWS V14.01,2013-04-18 23:35:00,
2013-04-18 18:36:00,59.5,20.7,25.37,NE,45,8.1,8.5,22,0.00,,---,0.00,VWS V14.01,2013-04-18 23:36:00,
2013-04-18 18:37:00,59.5,20.7,25.37,NE,45,8.1,8.1,22,0.00,,---,0.00,VWS V14.01,2013-04-18 23:37:00,
2013-04-18 18:38:00,59.4,20.5,25.37,NE,45,8.1,8.1,22,0.00,,---,0.00,VWS V14.01,2013-04-18 23:38:00,
2013-04-18 18:39:00,59.4,20.5,25.37,NE,45,8.1,8.1,22,0.00,,---,0.00,VWS V14.01,2013-04-18 23:39:00,
2013-04-18 18:40:00,59.4,20.5,25.37,NNE,22,11.0,11.0,22,0.00,,---,0.00,VWS V14.01,2013-04-18 23:40:00,
2013-04-18 18:41:00,58.8,20.1,25.37,ENE,68,13.0,13.0,22,0.00,,---,0.00,VWS V14.01,2013-04-18 23:41:00,
2013-04-18 18:42:00,58.8,20.1,25.37,ENE,68,13.0,13.0,22,0.00,,---,0.00,VWS V14.01,2013-04-18 23:42:00,
2013-04-18 18:43:00,58.8,20.1,25.37,ENE,68,13.0,13.0,22,0.00,,---,0.00,VWS V14.01,2013-04-18 23:43:00,
2013-04-18 18:44:00,58.8,20.1,25.37,NNE,22,13.2,13.2,22,0.00,,---,0.00,VWS V14.01,2013-04-18 23:44:00,
2013-04-18 18:45:00,58.8,20.1,25.37,NNE,22,13.2,13.2,22,0.00,,---,0.00,VWS V14.01,2013-04-18 23:45:00,
2013-04-18 18:46:00,58.5,19.8,25.37,NNE,22,11.0,13.2,22,0.00,,---,0.00,VWS V14.01,2013-04-18 23:46:00,
2013-04-18 18:47:00,58.5,19.8,25.37,NNE,22,11.0,13.2,22,0.00,,---,0.00,VWS V14.01,2013-04-18 23:47:00,
2013-04-18 18:48:00,58.5,19.8,25.37,ENE,68,11.2,11.2,22,0.00,,---,0.00,VWS V14.01,2013-04-18 23:48:00,
2013-04-18 18:49:00,58.3,19.6,25.37,NE,45,15.2,15.2,22,0.00,,---,0.00,VWS V14.01,2013-04-18 23:49:00,
2013-04-18 18:50:00,58.3,19.6,25.37,NE,45,11.4,15.2,22,0.00,,---,0.00,VWS V14.01,2013-04-18 23:50:00,
2013-04-18 18:52:00,57.9,19.3,25.37,NE,45,11.4,11.4,22,0.00,,---,0.00,VWS V14.01,2013-04-18 23:52:00,
2013-04-18 18:53:00,57.9,19.3,25.37,NE,45,12.5,14.8,22,0.00,,---,0.00,VWS V14.01,2013-04-18 23:53:00,
2013-04-18 18:54:00,57.9,19.3,25.37,NNE,22,10.1,12.5,22,0.00,,---,0.00,VWS V14.01,2013-04-18 23:54:00,
2013-04-18 18:55:00,57.9,19.3,25.37,NNE,22,13.2,13.2,22,0.00,,---,0.00,VWS V14.01,2013-04-18 23:55:00,
2013-04-18 18:56:00,57.9,19.3,25.37,NNE,22,13.2,13.2,22,0.00,,---,0.00,VWS V14.01,2013-04-18 23:56:00,
2013-04-18 18:57:00,57.4,18.9,25.37,NNE,22,13.2,13.2,22,0.00,,---,0.00,VWS V14.01,2013-04-18 23:57:00,
2013-04-18 18:58:00,57.4,18.9,25.37,NNE,22,13.2,13.2,22,0.00,,---,0.00,VWS V14.01,2013-04-18 23:58:00,
2013-04-18 18:59:00,57.2,18.7,25.37,NNE,22,13.0,15.4,22,0.00,,---,0.00,VWS V14.01,2013-04-18 23:59:00,
2013-04-18 19:00:00,57.2,18.7,25.37,NNE,22,13.0,13.0,22,0.00,,---,0.00,VWS V14.01,2013-04-19 00:00:00,
2013-04-18 19:01:00,57.2,18.7,25.37,NNE,22,13.0,13.0,22,0.00,,---,0.00,VWS V14.01,2013-04-19 00:01:00,
2013-04-18 19:02:00,57.2,18.7,25.37,NE,45,14.8,14.8,22,0.00,,---,0.00,VWS V14.01,2013-04-19 00:02:00,
2013-04-18 19:04:00,57.2,18.7,25.37,ENE,68,14.5,14.8,22,0.00,,---,0.00,VWS V14.01,2013-04-19 00:04:00,
2013-04-18 19:05:00,56.7,18.3,25.37,NNE,22,12.5,14.5,22,0.00,,---,0.00,VWS V14.01,2013-04-19 00:05:00,
2013-04-18 19:06:00,56.7,18.3,25.37,NNE,22,12.5,12.5,22,0.00,,---,0.00,VWS V14.01,2013-04-19 00:06:00,
2013-04-18 19:07:00,56.7,18.3,25.37,NE,45,13.2,13.2,22,0.00,,---,0.00,VWS V14.01,2013-04-19 00:07:00,
2013-04-18 19:08:00,56.7,18.3,25.37,NE,45,13.2,13.2,22,0.00,,---,0.00,VWS V14.01,2013-04-19 00:08:00,
2013-04-18 19:09:00,56.7,18.3,25.39,NE,45,13.2,13.2,22,0.00,,---,0.00,VWS V14.01,2013-04-19 00:09:00,
2013-04-18 19:10:00,56.7,18.3,25.39,NE,45,13.2,13.2,22,0.00,,---,0.00,VWS V14.01,2013-04-19 00:10:00,
2013-04-18 19:12:00,56.7,18.3,25.39,NE,45,13.2,13.2,22,0.00,,---,0.00,VWS V14.01,2013-04-19 00:12:00,
2013-04-18 19:13:00,56.7,18.3,25.39,NE,45,13.2,13.2,22,0.00,,---,0.00,VWS V14.01,2013-04-19 00:13:00,
2013-04-18 19:14:00,56.7,18.3,25.39,NE,45,13.2,13.2,22,0.00,,---,0.00,VWS V14.01,2013-04-19 00:14:00,
2013-04-18 19:15:00,56.7,18.3,25.39,NE,45,13.2,13.2,22,0.00,,---,0.00,VWS V14.01,2013-04-19 00:15:00,
2013-04-18 19:16:00,56.7,18.3,25.39,ENE,68,9.8,13.2,22,0.00,,---,0.00,VWS V14.01,2013-04-19 00:16:00,
2013-04-18 19:17:00,56.1,17.8,25.39,NNE,22,10.3,10.3,22,0.00,,---,0.00,VWS V14.01,2013-04-19 00:17:00,
2013-04-18 19:18:00,56.1,17.8,25.39,NNE,22,10.3,10.3,22,0.00,,---,0.00,VWS V14.01,2013-04-19 00:18:00,
2013-04-18 19:19:00,55.9,17.7,25.39,ENE,68,8.5,11.9,22,0.00,,---,0.00,VWS V14.01,2013-04-19 00:19:00,
2013-04-18 19:20:00,55.9,17.7,25.39,NE,45,8.5,8.5,22,0.00,,---,0.00,VWS V14.01,2013-04-19 00:20:00,
2013-04-18 19:21:00,55.8,17.5,25.39,NE,45,8.5,8.5,22,0.00,,---,0.00,VWS V14.01,2013-04-19 00:21:00,
2013-04-18 19:22:00,55.8,17.5,25.39,NE,45,8.5,8.5,22,0.00,,---,0.00,VWS V14.01,2013-04-19 00:22:00,
2013-04-18 19:23:00,55.8,17.5,25.39,NE,45,8.5,8.5,22,0.00,,---,0.00,VWS V14.01,2013-04-19 00:23:00,
2013-04-18 19:24:00,55.4,17.2,25.39,NE,45,8.5,8.5,22,0.00,,---,0.00,VWS V14.01,2013-04-19 00:24:00,
2013-04-18 19:25:00,55.4,17.2,25.39,NNE,22,13.6,13.6,22,0.00,,---,0.00,VWS V14.01,2013-04-19 00:25:00,
2013-04-18 19:26:00,55.4,17.2,25.39,NNE,22,13.6,13.6,22,0.00,,---,0.00,VWS V14.01,2013-04-19 00:26:00,
2013-04-18 19:27:00,55.4,17.2,25.39,NNE,22,9.8,13.6,22,0.00,,---,0.00,VWS V14.01,2013-04-19 00:27:00,
2013-04-18 19:28:00,55.4,17.2,25.39,NNE,22,9.8,9.8,22,0.00,,---,0.00,VWS V14.01,2013-04-19 00:28:00,
2013-04-18 19:29:00,55.4,17.2,25.39,NNE,22,9.8,9.8,22,0.00,,---,0.00,VWS V14.01,2013-04-19 00:29:00,
2013-04-18 19:30:00,54.7,17.6,25.39,NNE,22,9.8,9.8,23,0.00,,---,0.00,VWS V14.01,2013-04-19 00:30:00,
2013-04-18 19:31:00,54.5,17.5,25.39,NNE,22,9.8,9.8,23,0.00,,---,0.00,VWS V14.01,2013-04-19 00:31:00,
2013-04-18 19:32:00,54.5,17.5,25.39,NNE,22,9.8,9.8,23,0.00,,---,0.00,VWS V14.01,2013-04-19 00:32:00,
2013-04-18 19:33:00,54.5,17.5,25.39,NNE,22,9.8,9.8,23,0.00,,---,0.00,VWS V14.01,2013-04-19 00:33:00,
2013-04-18 19:34:00,54.3,17.3,25.39,NNE,22,12.1,12.1,23,0.00,,---,0.00,VWS V14.01,2013-04-19 00:34:00,
2013-04-18 19:35:00,54.3,17.3,25.39,NNE,22,12.1,12.1,23,0.00,,---,0.00,VWS V14.01,2013-04-19 00:35:00,
2013-04-18 19:36:00,54.0,17.0,25.39,NNE,22,12.1,12.1,23,0.00,,---,0.00,VWS V14.01,2013-04-19 00:36:00,
2013-04-18 19:37:00,54.0,17.0,25.39,NNE,22,12.1,12.1,23,0.00,,---,0.00,VWS V14.01,2013-04-19 00:37:00,
2013-04-18 19:38:00,54.0,17.0,25.39,NNE,22,12.1,12.1,23,0.00,,---,0.00,VWS V14.01,2013-04-19 00:38:00,
2013-04-18 19:39:00,54.0,17.0,25.42,NNE,22,12.1,12.1,23,0.00,,---,0.00,VWS V14.01,2013-04-19 00:39:00,
2013-04-18 19:40:00,53.6,16.7,25.42,NNE,22,12.1,12.1,23,0.00,,---,0.00,VWS V14.01,2013-04-19 00:40:00,
2013-04-18 19:41:00,53.6,16.7,25.42,NNE,22,12.1,12.1,23,0.00,,---,0.00,VWS V14.01,2013-04-19 00:41:00,
2013-04-18 19:42:00,53.4,16.6,25.42,NNE,22,12.1,12.1,23,0.00,,---,0.00,VWS V14.01,2013-04-19 00:42:00,
2013-04-18 19:43:00,53.4,16.6,25.42,NNE,22,12.1,12.1,23,0.00,,---,0.00,VWS V14.01,2013-04-19 00:43:00,
2013-04-18 19:44:00,53.2,16.4,25.42,NNE,22,12.1,12.1,23,0.00,,---,0.00,VWS V14.01,2013-04-19 00:44:00,
2013-04-18 19:45:00,53.2,16.4,25.42,NNE,22,12.1,12.1,23,0.00,,---,0.00,VWS V14.01,2013-04-19 00:45:00,
2013-04-18 19:46:00,53.2,16.4,25.42,NNE,22,12.1,12.1,23,0.00,,---,0.00,VWS V14.01,2013-04-19 00:46:00,
2013-04-18 19:47:00,53.1,16.3,25.42,NNE,22,12.1,12.1,23,0.00,,---,0.00,VWS V14.01,2013-04-19 00:47:00,
2013-04-18 19:48:00,53.1,16.3,25.42,NNE,22,12.1,12.1,23,0.00,,---,0.00,VWS V14.01,2013-04-19 00:48:00,
2013-04-18 19:49:00,53.1,16.3,25.42,NNE,22,12.1,12.1,23,0.00,,---,0.00,VWS V14.01,2013-04-19 00:49:00,
2013-04-18 19:50:00,52.7,16.0,25.42,NE,45,5.8,12.1,23,0.00,,---,0.00,VWS V14.01,2013-04-19 00:50:00,
2013-04-18 19:51:00,52.7,16.0,25.42,NNE,22,7.6,8.5,23,0.00,,---,0.00,VWS V14.01,2013-04-19 00:51:00,
2013-04-18 19:52:00,52.5,15.8,25.42,NE,45,8.1,8.1,23,0.00,,---,0.00,VWS V14.01,2013-04-19 00:52:00,
2013-04-18 19:53:00,52.5,15.8,25.42,NE,45,8.1,8.1,23,0.00,,---,0.00,VWS V14.01,2013-04-19 00:53:00,
2013-04-18 19:54:00,52.5,15.8,25.42,NE,45,8.1,8.1,23,0.00,,---,0.00,VWS V14.01,2013-04-19 00:54:00,
2013-04-18 19:55:00,52.3,15.7,25.42,NE,45,8.1,8.1,23,0.00,,---,0.00,VWS V14.01,2013-04-19 00:55:00,
2013-04-18 19:56:00,52.3,15.7,25.42,NE,45,8.1,8.1,23,0.00,,---,0.00,VWS V14.01,2013-04-19 00:56:00,
2013-04-18 19:57:00,52.3,15.7,25.42,NE,45,8.1,8.1,23,0.00,,---,0.00,VWS V14.01,2013-04-19 00:57:00,
2013-04-18 19:59:00,52.3,15.7,25.42,NNE,22,7.6,8.1,23,0.00,,---,0.00,VWS V14.01,2013-04-19 00:59:00,
2013-04-18 20:00:00,52.3,15.7,25.42,NNE,22,7.6,7.6,23,0.00,,---,0.00,VWS V14.01,2013-04-19 01:00:00,
2013-04-18 20:01:00,52.3,15.7,25.42,NNE,22,7.6,7.6,23,0.00,,---,0.00,VWS V14.01,2013-04-19 01:01:00,
2013-04-18 20:02:00,52.3,15.7,25.42,NNE,22,7.6,7.6,23,0.00,,---,0.00,VWS V14.01,2013-04-19 01:02:00,
2013-04-18 20:03:00,52.3,15.7,25.42,NNE,22,7.6,7.6,23,0.00,,---,0.00,VWS V14.01,2013-04-19 01:03:00,
2013-04-18 20:04:00,51.8,15.2,25.42,NNE,22,6.5,7.6,23,0.00,,---,0.00,VWS V14.01,2013-04-19 01:04:00,
2013-04-18 20:05:00,51.8,15.2,25.42,NNE,22,6.5,6.5,23,0.00,,---,0.00,VWS V14.01,2013-04-19 01:05:00,
2013-04-18 20:06:00,51.8,15.2,25.42,NNE,22,6.5,6.5,23,0.00,,---,0.00,VWS V14.01,2013-04-19 01:06:00,
2013-04-18 20:07:00,51.6,16.0,25.42,NNE,22,6.5,6.5,24,0.00,,---,0.00,VWS V14.01,2013-04-19 01:07:00,
2013-04-18 20:08:00,51.6,16.0,25.42,NNE,22,6.5,6.5,24,0.00,,---,0.00,VWS V14.01,2013-04-19 01:08:00,
2013-04-18 20:09:00,51.6,16.0,25.42,NNE,22,6.5,6.5,24,0.00,,---,0.00,VWS V14.01,2013-04-19 01:09:00,
2013-04-18 20:10:00,51.4,15.9,25.42,NNE,22,6.5,6.5,24,0.00,,---,0.00,VWS V14.01,2013-04-19 01:10:00,
2013-04-18 20:11:00,51.4,15.9,25.42,NNE,22,6.5,6.5,24,0.00,,---,0.00,VWS V14.01,2013-04-19 01:11:00,
2013-04-18 20:12:00,51.4,15.9,25.42,NNE,22,6.5,6.5,24,0.00,,---,0.00,VWS V14.01,2013-04-19 01:12:00,
2013-04-18 20:13:00,51.3,15.7,25.42,NNE,22,6.5,6.5,24,0.00,,---,0.00,VWS V14.01,2013-04-19 01:13:00,
2013-04-18 20:14:00,51.3,15.7,25.42,NNE,22,6.5,6.5,24,0.00,,---,0.00,VWS V14.01,2013-04-19 01:14:00,
2013-04-18 20:15:00,51.3,15.7,25.42,NNE,22,6.5,6.5,24,0.00,,---,0.00,VWS V14.01,2013-04-19 01:15:00,
2013-04-18 20:16:00,51.3,15.7,25.42,NNE,22,6.5,6.5,24,0.00,,---,0.00,VWS V14.01,2013-04-19 01:16:00,
2013-04-18 20:17:00,51.3,15.7,25.42,NNE,22,6.5,6.5,24,0.00,,---,0.00,VWS V14.01,2013-04-19 01:17:00,
2013-04-18 20:18:00,51.3,15.7,25.42,NNE,22,6.5,6.5,24,0.00,,---,0.00,VWS V14.01,2013-04-19 01:18:00,
2013-04-18 20:19:00,51.1,15.6,25.42,NE,45,5.4,6.5,24,0.00,,---,0.00,VWS V14.01,2013-04-19 01:19:00,
2013-04-18 20:20:00,51.1,15.6,25.42,NE,45,5.4,5.4,24,0.00,,---,0.00,VWS V14.01,2013-04-19 01:20:00,
2013-04-18 20:21:00,51.1,15.6,25.42,NE,45,5.4,5.4,24,0.00,,---,0.00,VWS V14.01,2013-04-19 01:21:00,
2013-04-18 20:22:00,50.9,15.4,25.42,NE,45,5.4,5.4,24,0.00,,---,0.00,VWS V14.01,2013-04-19 01:22:00,
2013-04-18 20:23:00,50.9,15.4,25.42,NE,45,5.4,5.4,24,0.00,,---,0.00,VWS V14.01,2013-04-19 01:23:00,
2013-04-18 20:24:00,50.9,15.4,25.45,NE,45,5.4,5.4,24,0.00,,---,0.00,VWS V14.01,2013-04-19 01:24:00,
2013-04-18 20:25:00,50.7,15.3,25.45,NE,45,5.4,5.4,24,0.00,,---,0.00,VWS V14.01,2013-04-19 01:25:00,
2013-04-18 20:26:00,50.5,15.1,25.45,NE,45,5.4,5.4,24,0.00,,---,0.00,VWS V14.01,2013-04-19 01:26:00,
2013-04-18 20:27:00,50.5,15.1,25.45,NNE,22,6.5,6.5,24,0.00,,---,0.00,VWS V14.01,2013-04-19 01:27:00,
2013-04-18 20:28:00,50.5,15.1,25.45,NE,45,6.0,6.5,24,0.00,,---,0.00,VWS V14.01,2013-04-19 01:28:00,
2013-04-18 20:29:00,50.4,14.9,25.45,NE,45,6.0,6.0,24,0.00,,---,0.00,VWS V14.01,2013-04-19 01:29:00,
2013-04-18 20:30:00,50.4,14.9,25.45,NE,45,6.0,6.0,24,0.00,,---,0.00,VWS V14.01,2013-04-19 01:30:00,
2013-04-18 20:31:00,50.4,16.8,25.45,NE,45,6.0,6.0,26,0.00,,---,0.00,VWS V14.01,2013-04-19 01:31:00,
2013-04-18 20:32:00,50.4,16.8,25.45,NE,45,6.0,6.0,26,0.00,,---,0.00,VWS V14.01,2013-04-19 01:32:00,
2013-04-18 20:33:00,50.4,16.8,25.45,NE,45,6.0,6.0,26,0.00,,---,0.00,VWS V14.01,2013-04-19 01:33:00,
2013-04-18 20:34:00,50.2,16.6,25.45,NE,45,6.0,6.0,26,0.00,,---,0.00,VWS V14.01,2013-04-19 01:34:00,
2013-04-18 20:35:00,50.2,16.6,25.45,NE,45,6.0,6.0,26,0.00,,---,0.00,VWS V14.01,2013-04-19 01:35:00,
2013-04-18 20:36:00,50.2,16.6,25.45,NE,45,6.3,6.3,26,0.00,,---,0.00,VWS V14.01,2013-04-19 01:36:00,
2013-04-18 20:37:00,50.2,16.6,25.45,NE,45,6.3,6.3,26,0.00,,---,0.00,VWS V14.01,2013-04-19 01:37:00,
2013-04-18 20:38:00,50.2,16.6,25.45,NE,45,6.3,6.3,26,0.00,,---,0.00,VWS V14.01,2013-04-19 01:38:00,
2013-04-18 20:39:00,50.2,16.6,25.48,NE,45,6.3,6.3,26,0.00,,---,0.00,VWS V14.01,2013-04-19 01:39:00,
2013-04-18 20:40:00,50.2,16.6,25.48,ENE,68,6.5,6.5,26,0.00,,---,0.00,VWS V14.01,2013-04-19 01:40:00,
2013-04-18 20:41:00,50.0,16.5,25.48,NE,45,6.0,6.5,26,0.00,,---,0.00,VWS V14.01,2013-04-19 01:41:00,
2013-04-18 20:42:00,50.0,16.5,25.48,NE,45,5.6,5.6,26,0.00,,---,0.00,VWS V14.01,2013-04-19 01:42:00,
2013-04-18 20:43:00,50.0,16.5,25.48,NE,45,5.6,5.6,26,0.00,,---,0.00,VWS V14.01,2013-04-19 01:43:00,
2013-04-18 20:44:00,50.0,16.5,25.48,NE,45,4.9,5.6,26,0.00,,---,0.00,VWS V14.01,2013-04-19 01:44:00,
2013-04-18 20:45:00,49.8,16.3,25.48,NE,45,4.9,4.9,26,0.00,,---,0.00,VWS V14.01,2013-04-19 01:45:00,
2013-04-18 20:46:00,49.8,16.3,25.48,NE,45,4.9,4.9,26,0.00,,---,0.00,VWS V14.01,2013-04-19 01:46:00,
2013-04-18 20:47:00,49.6,16.2,25.48,NE,45,4.9,4.9,26,0.00,,---,0.00,VWS V14.01,2013-04-19 01:47:00,
2013-04-18 20:48:00,49.6,16.2,25.48,NE,45,4.9,4.9,26,0.00,,---,0.00,VWS V14.01,2013-04-19 01:48:00,
2013-04-18 20:49:00,49.6,16.2,25.48,NE,45,4.9,4.9,26,0.00,,---,0.00,VWS V14.01,2013-04-19 01:49:00,
2013-04-18 20:50:00,49.6,16.2,25.48,NE,45,4.9,4.9,26,0.00,,---,0.00,VWS V14.01,2013-04-19 01:50:00,
2013-04-18 20:51:00,49.5,16.0,25.48,NE,45,4.9,4.9,26,0.00,,---,0.00,VWS V14.01,2013-04-19 01:51:00,
2013-04-18 20:52:00,49.5,16.0,25.48,NE,45,4.9,4.9,26,0.00,,---,0.00,VWS V14.01,2013-04-19 01:52:00,
2013-04-18 20:53:00,49.5,16.0,25.48,NE,45,4.9,4.9,26,0.00,,---,0.00,VWS V14.01,2013-04-19 01:53:00,
2013-04-18 20:54:00,49.5,16.0,25.48,NE,45,4.9,4.9,26,0.00,,---,0.00,VWS V14.01,2013-04-19 01:54:00,
2013-04-18 20:55:00,49.3,15.9,25.48,NE,45,4.9,4.9,26,0.00,,---,0.00,VWS V14.01,2013-04-19 01:55:00,
2013-04-18 20:56:00,49.3,15.9,25.48,NE,45,4.9,4.9,26,0.00,,---,0.00,VWS V14.01,2013-04-19 01:56:00,
2013-04-18 20:57:00,49.3,15.9,25.48,NE,45,4.9,4.9,26,0.00,,---,0.00,VWS V14.01,2013-04-19 01:57:00,
2013-04-18 20:58:00,49.3,15.9,25.48,NE,45,4.9,4.9,26,0.00,,---,0.00,VWS V14.01,2013-04-19 01:58:00,
2013-04-18 20:59:00,49.3,15.9,25.48,NE,45,4.9,4.9,26,0.00,,---,0.00,VWS V14.01,2013-04-19 01:59:00,
2013-04-18 21:00:00,49.1,15.7,25.48,NE,45,4.9,4.9,26,0.00,,---,0.00,VWS V14.01,2013-04-19 02:00:00,
2013-04-18 21:01:00,49.1,15.7,25.48,NE,45,4.3,4.9,26,0.00,,---,0.00,VWS V14.01,2013-04-19 02:01:00,
2013-04-18 21:02:00,49.1,15.7,25.48,NE,45,4.3,4.3,26,0.00,,---,0.00,VWS V14.01,2013-04-19 02:02:00,
2013-04-18 21:03:00,49.1,15.7,25.48,NE,45,4.3,4.3,26,0.00,,---,0.00,VWS V14.01,2013-04-19 02:03:00,
2013-04-18 21:04:00,48.9,15.6,25.48,NE,45,4.3,4.3,26,0.00,,---,0.00,VWS V14.01,2013-04-19 02:04:00,
2013-04-18 21:05:00,48.9,15.6,25.48,NE,45,4.3,4.3,26,0.00,,---,0.00,VWS V14.01,2013-04-19 02:05:00,
2013-04-18 21:06:00,48.9,15.6,25.48,NE,45,4.3,4.3,26,0.00,,---,0.00,VWS V14.01,2013-04-19 02:06:00,
2013-04-18 21:07:00,48.7,15.4,25.48,NE,45,4.3,4.3,26,0.00,,---,0.00,VWS V14.01,2013-04-19 02:07:00,
2013-04-18 21:08:00,48.7,15.4,25.48,NE,45,4.3,4.3,26,0.00,,---,0.00,VWS V14.01,2013-04-19 02:08:00,
2013-04-18 21:09:00,48.7,15.4,25.48,NE,45,4.3,4.3,26,0.00,,---,0.00,VWS V14.01,2013-04-19 02:09:00,
2013-04-18 21:10:00,48.6,15.2,25.48,NE,45,4.3,4.3,26,0.00,,---,0.00,VWS V14.01,2013-04-19 02:10:00,
2013-04-18 21:11:00,48.6,15.2,25.48,NE,45,4.3,4.3,26,0.00,,---,0.00,VWS V14.01,2013-04-19 02:11:00,
2013-04-18 21:12:00,48.6,15.2,25.48,NE,45,4.3,4.3,26,0.00,,---,0.00,VWS V14.01,2013-04-19 02:12:00,
2013-04-18 21:13:00,48.6,15.2,25.48,NE,45,4.3,4.3,26,0.00,,---,0.00,VWS V14.01,2013-04-19 02:13:00,
2013-04-18 21:14:00,48.6,15.2,25.48,NE,45,4.3,4.3,26,0.00,,---,0.00,VWS V14.01,2013-04-19 02:14:00,
2013-04-18 21:15:00,48.6,15.2,25.48,NE,45,4.3,4.3,26,0.00,,---,0.00,VWS V14.01,2013-04-19 02:15:00,
2013-04-18 21:16:00,48.6,15.2,25.48,NE,45,4.3,4.3,26,0.00,,---,0.00,VWS V14.01,2013-04-19 02:16:00,
2013-04-18 21:17:00,48.6,15.2,25.48,NE,45,4.3,4.3,26,0.00,,---,0.00,VWS V14.01,2013-04-19 02:17:00,
2013-04-18 21:18:00,48.6,15.2,25.48,NE,45,4.3,4.3,26,0.00,,---,0.00,VWS V14.01,2013-04-19 02:18:00,
2013-04-18 21:19:00,48.4,15.1,25.48,NE,45,4.3,4.3,26,0.00,,---,0.00,VWS V14.01,2013-04-19 02:19:00,
2013-04-18 21:20:00,48.4,15.1,25.48,NE,45,4.3,4.3,26,0.00,,---,0.00,VWS V14.01,2013-04-19 02:20:00,
2013-04-18 21:21:00,48.4,15.1,25.48,NE,45,4.3,4.3,26,0.00,,---,0.00,VWS V14.01,2013-04-19 02:21:00,
2013-04-18 21:22:00,48.2,14.9,25.48,NE,45,4.3,4.3,26,0.00,,---,0.00,VWS V14.01,2013-04-19 02:22:00,
2013-04-18 21:23:00,48.2,14.9,25.48,NE,45,4.3,4.3,26,0.00,,---,0.00,VWS V14.01,2013-04-19 02:23:00,
2013-04-18 21:24:00,48.2,14.9,25.48,NE,45,4.3,4.3,26,0.00,,---,0.00,VWS V14.01,2013-04-19 02:24:00,
2013-04-18 21:25:00,48.2,14.9,25.48,NE,45,4.3,4.3,26,0.00,,---,0.00,VWS V14.01,2013-04-19 02:25:00,
2013-04-18 21:26:00,48.2,14.9,25.48,NE,45,4.3,4.3,26,0.00,,---,0.00,VWS V14.01,2013-04-19 02:26:00,
2013-04-18 21:27:00,48.2,14.9,25.48,NE,45,4.3,4.3,26,0.00,,---,0.00,VWS V14.01,2013-04-19 02:27:00,
2013-04-18 21:28:00,48.0,15.6,25.48,NE,45,4.3,4.3,27,0.00,,---,0.00,VWS V14.01,2013-04-19 02:28:00,
2013-04-18 21:29:00,48.0,15.6,25.48,NE,45,4.3,4.3,27,0.00,,---,0.00,VWS V14.01,2013-04-19 02:29:00,
2013-04-18 21:30:00,48.0,15.6,25.48,NE,45,4.3,4.3,27,0.00,,---,0.00,VWS V14.01,2013-04-19 02:30:00,
2013-04-18 21:31:00,48.0,15.6,25.48,NE,45,4.3,4.3,27,0.00,,---,0.00,VWS V14.01,2013-04-19 02:31:00,
2013-04-18 21:32:00,47.8,15.5,25.48,NE,45,4.3,4.3,27,0.00,,---,0.00,VWS V14.01,2013-04-19 02:32:00,
2013-04-18 21:33:00,47.8,15.5,25.48,NE,45,4.3,4.3,27,0.00,,---,0.00,VWS V14.01,2013-04-19 02:33:00,
2013-04-18 21:34:00,47.8,15.5,25.48,NE,45,4.3,4.3,27,0.00,,---,0.00,VWS V14.01,2013-04-19 02:34:00,
2013-04-18 21:35:00,47.8,15.5,25.48,NE,45,4.3,4.3,27,0.00,,---,0.00,VWS V14.01,2013-04-19 02:35:00,
2013-04-18 21:36:00,47.8,15.5,25.48,NE,45,4.3,4.3,27,0.00,,---,0.00,VWS V14.01,2013-04-19 02:36:00,
2013-04-18 21:37:00,47.8,15.5,25.48,NE,45,4.3,4.3,27,0.00,,---,0.00,VWS V14.01,2013-04-19 02:37:00,
2013-04-18 21:38:00,47.8,15.5,25.48,NE,45,4.3,4.3,27,0.00,,---,0.00,VWS V14.01,2013-04-19 02:38:00,
2013-04-18 21:39:00,47.7,15.3,25.48,NE,45,4.3,4.3,27,0.00,,---,0.00,VWS V14.01,2013-04-19 02:39:00,
2013-04-18 21:40:00,47.7,15.3,25.48,NE,45,4.3,4.3,27,0.00,,---,0.00,VWS V14.01,2013-04-19 02:40:00,
2013-04-18 21:41:00,47.7,15.3,25.48,NE,45,4.3,4.3,27,0.00,,---,0.00,VWS V14.01,2013-04-19 02:41:00,
2013-04-18 21:42:00,47.7,15.3,25.48,NE,45,4.3,4.3,27,0.00,,---,0.00,VWS V14.01,2013-04-19 02:42:00,
2013-04-18 21:43:00,47.7,15.3,25.48,NE,45,4.3,4.3,27,0.00,,---,0.00,VWS V14.01,2013-04-19 02:43:00,
2013-04-18 21:44:00,47.7,15.3,25.48,NE,45,4.3,4.3,27,0.00,,---,0.00,VWS V14.01,2013-04-19 02:44:00,
2013-04-18 21:45:00,47.7,15.3,25.48,NE,45,4.3,4.3,27,0.00,,---,0.00,VWS V14.01,2013-04-19 02:45:00,
2013-04-18 21:46:00,47.7,15.3,25.48,NE,45,4.3,4.3,27,0.00,,---,0.00,VWS V14.01,2013-04-19 02:46:00,
2013-04-18 21:47:00,47.7,15.3,25.48,NE,45,4.3,4.3,27,0.00,,---,0.00,VWS V14.01,2013-04-19 02:47:00,
2013-04-18 21:48:00,47.7,15.3,25.48,NE,45,4.3,4.3,27,0.00,,---,0.00,VWS V14.01,2013-04-19 02:48:00,
2013-04-18 21:49:00,47.8,15.5,25.48,NE,45,4.3,4.3,27,0.00,,---,0.00,VWS V14.01,2013-04-19 02:49:00,
2013-04-18 21:50:00,47.8,15.5,25.48,NE,45,4.3,4.3,27,0.00,,---,0.00,VWS V14.01,2013-04-19 02:50:00,
2013-04-18 21:51:00,47.7,15.3,25.48,NE,45,4.3,4.3,27,0.00,,---,0.00,VWS V14.01,2013-04-19 02:51:00,
2013-04-18 21:52:00,47.7,15.3,25.48,NE,45,4.3,4.3,27,0.00,,---,0.00,VWS V14.01,2013-04-19 02:52:00,
2013-04-18 21:53:00,47.7,15.3,25.48,NE,45,4.3,4.3,27,0.00,,---,0.00,VWS V14.01,2013-04-19 02:53:00,
2013-04-18 21:54:00,47.7,15.3,25.48,NE,45,4.3,4.3,27,0.00,,---,0.00,VWS V14.01,2013-04-19 02:54:00,
2013-04-18 21:55:00,47.5,15.2,25.48,NE,45,4.3,4.3,27,0.00,,---,0.00,VWS V14.01,2013-04-19 02:55:00,
2013-04-18 21:56:00,47.5,15.2,25.48,NE,45,4.3,4.3,27,0.00,,---,0.00,VWS V14.01,2013-04-19 02:56:00,
2013-04-18 21:57:00,47.5,15.2,25.48,NE,45,4.3,4.3,27,0.00,,---,0.00,VWS V14.01,2013-04-19 02:57:00,
2013-04-18 21:58:00,47.5,15.2,25.48,NE,45,4.3,4.3,27,0.00,,---,0.00,VWS V14.01,2013-04-19 02:58:00,
2013-04-18 21:59:00,47.5,15.2,25.48,NE,45,4.3,4.3,27,0.00,,---,0.00,VWS V14.01,2013-04-19 02:59:00,
2013-04-18 22:00:00,47.5,15.2,25.48,NE,45,4.3,4.3,27,0.00,,---,0.00,VWS V14.01,2013-04-19 03:00:00,
2013-04-18 22:01:00,47.5,15.2,25.48,ENE,68,5.6,5.6,27,0.00,,---,0.00,VWS V14.01,2013-04-19 03:01:00,
2013-04-18 22:02:00,47.5,15.2,25.48,ENE,68,5.6,5.6,27,0.00,,---,0.00,VWS V14.01,2013-04-19 03:02:00,
2013-04-18 22:03:00,47.5,15.2,25.48,ENE,68,4.9,5.6,27,0.00,,---,0.00,VWS V14.01,2013-04-19 03:03:00,
2013-04-18 22:04:00,47.5,15.2,25.48,ENE,68,4.3,4.9,27,0.00,,---,0.00,VWS V14.01,2013-04-19 03:04:00,
2013-04-18 22:05:00,47.5,15.2,25.48,ENE,68,4.3,4.3,27,0.00,,---,0.00,VWS V14.01,2013-04-19 03:05:00,
2013-04-18 22:07:00,47.5,15.2,25.48,ENE,68,4.7,4.9,27,0.00,,---,0.00,VWS V14.01,2013-04-19 03:07:00,
2013-04-18 22:08:00,47.5,15.2,25.48,ENE,68,4.3,4.7,27,0.00,,---,0.00,VWS V14.01,2013-04-19 03:08:00,
2013-04-18 22:09:00,47.5,15.2,25.51,ENE,68,3.8,4.3,27,0.00,,---,0.00,VWS V14.01,2013-04-19 03:09:00,
2013-04-18 22:10:00,47.5,15.2,25.51,ENE,68,3.8,3.8,27,0.00,,---,0.00,VWS V14.01,2013-04-19 03:10:00,
2013-04-18 22:11:00,47.5,15.2,25.51,ENE,68,3.8,3.8,27,0.00,,---,0.00,VWS V14.01,2013-04-19 03:11:00,
2013-04-18 22:12:00,47.3,15.0,25.51,ENE,68,3.8,3.8,27,0.00,,---,0.00,VWS V14.01,2013-04-19 03:12:00,
2013-04-18 22:13:00,47.3,15.0,25.51,ENE,68,3.8,3.8,27,0.00,,---,0.00,VWS V14.01,2013-04-19 03:13:00,
2013-04-18 22:14:00,47.3,15.0,25.51,ENE,68,3.8,3.8,27,0.00,,---,0.00,VWS V14.01,2013-04-19 03:14:00,
2013-04-18 22:15:00,47.3,15.0,25.51,ENE,68,3.8,3.8,27,0.00,,---,0.00,VWS V14.01,2013-04-19 03:15:00,
2013-04-18 22:16:00,47.3,15.0,25.51,ENE,68,3.8,3.8,27,0.00,,---,0.00,VWS V14.01,2013-04-19 03:16:00,
2013-04-18 22:17:00,47.3,15.0,25.51,ENE,68,3.8,3.8,27,0.00,,---,0.00,VWS V14.01,2013-04-19 03:17:00,
2013-04-18 22:18:00,47.3,15.0,25.51,ENE,68,3.8,3.8,27,0.00,,---,0.00,VWS V14.01,2013-04-19 03:18:00,
2013-04-18 22:19:00,47.3,15.0,25.51,ENE,68,3.8,3.8,27,0.00,,---,0.00,VWS V14.01,2013-04-19 03:19:00,
2013-04-18 22:20:00,47.3,15.0,25.51,ENE,68,3.8,3.8,27,0.00,,---,0.00,VWS V14.01,2013-04-19 03:20:00,
2013-04-18 22:21:00,47.3,15.0,25.51,ENE,68,3.8,3.8,27,0.00,,---,0.00,VWS V14.01,2013-04-19 03:21:00,
2013-04-18 22:22:00,47.3,15.0,25.51,ENE,68,3.8,3.8,27,0.00,,---,0.00,VWS V14.01,2013-04-19 03:22:00,
2013-04-18 22:23:00,47.1,14.9,25.51,ENE,68,3.8,3.8,27,0.00,,---,0.00,VWS V14.01,2013-04-19 03:23:00,
2013-04-18 22:24:00,47.1,14.9,25.51,ENE,68,3.8,3.8,27,0.00,,---,0.00,VWS V14.01,2013-04-19 03:24:00,
2013-04-18 22:25:00,47.1,14.9,25.51,ENE,68,3.8,3.8,27,0.00,,---,0.00,VWS V14.01,2013-04-19 03:25:00,
2013-04-18 22:26:00,47.1,14.9,25.51,ENE,68,3.8,3.8,27,0.00,,---,0.00,VWS V14.01,2013-04-19 03:26:00,
2013-04-18 22:27:00,46.9,14.7,25.51,ENE,68,3.8,3.8,27,0.00,,---,0.00,VWS V14.01,2013-04-19 03:27:00,
2013-04-18 22:28:00,46.9,14.7,25.51,ENE,68,3.8,3.8,27,0.00,,---,0.00,VWS V14.01,2013-04-19 03:28:00,
2013-04-18 22:29:00,46.9,14.7,25.51,ENE,68,3.8,3.8,27,0.00,,---,0.00,VWS V14.01,2013-04-19 03:29:00,
2013-04-18 22:30:00,46.8,14.6,25.51,ENE,68,3.8,3.8,27,0.00,,---,0.00,VWS V14.01,2013-04-19 03:30:00,
2013-04-18 22:31:00,46.6,14.4,25.51,ENE,68,3.8,3.8,27,0.00,,---,0.00,VWS V14.01,2013-04-19 03:31:00,
2013-04-18 22:32:00,46.4,14.2,25.51,ENE,68,3.8,3.8,27,0.00,,---,0.00,VWS V14.01,2013-04-19 03:32:00,
2013-04-18 22:33:00,46.2,14.9,25.51,ENE,68,3.8,3.8,28,0.00,,---,0.00,VWS V14.01,2013-04-19 03:33:00,
2013-04-18 22:34:00,46.2,14.9,25.51,ENE,68,3.8,3.8,28,0.00,,---,0.00,VWS V14.01,2013-04-19 03:34:00,
2013-04-18 22:35:00,45.9,14.6,25.51,ENE,68,3.8,3.8,28,0.00,,---,0.00,VWS V14.01,2013-04-19 03:35:00,
2013-04-18 22:36:00,45.9,14.6,25.51,ENE,68,3.8,3.8,28,0.00,,---,0.00,VWS V14.01,2013-04-19 03:36:00,
2013-04-18 22:37:00,45.9,14.6,25.51,ENE,68,3.8,3.8,28,0.00,,---,0.00,VWS V14.01,2013-04-19 03:37:00,
2013-04-18 22:38:00,45.7,14.5,25.51,ENE,68,3.8,3.8,28,0.00,,---,0.00,VWS V14.01,2013-04-19 03:38:00,
2013-04-18 22:39:00,45.7,14.5,25.51,ENE,68,3.8,3.8,28,0.00,,---,0.00,VWS V14.01,2013-04-19 03:39:00,
2013-04-18 22:40:00,45.9,14.6,25.51,ENE,68,3.8,3.8,28,0.00,,---,0.00,VWS V14.01,2013-04-19 03:40:00,
2013-04-18 22:41:00,45.9,14.6,25.51,ENE,68,3.8,3.8,28,0.00,,---,0.00,VWS V14.01,2013-04-19 03:41:00,
2013-04-18 22:42:00,45.9,14.6,25.51,ENE,68,3.8,3.8,28,0.00,,---,0.00,VWS V14.01,2013-04-19 03:42:00,
2013-04-18 22:43:00,45.7,14.5,25.51,ENE,68,3.8,3.8,28,0.00,,---,0.00,VWS V14.01,2013-04-19 03:43:00,
2013-04-18 22:44:00,45.7,14.5,25.51,ENE,68,3.8,3.8,28,0.00,,---,0.00,VWS V14.01,2013-04-19 03:44:00,
2013-04-18 22:45:00,45.5,14.3,25.51,ENE,68,3.8,3.8,28,0.00,,---,0.00,VWS V14.01,2013-04-19 03:45:00,
2013-04-18 22:46:00,45.5,14.3,25.51,ENE,68,3.8,3.8,28,0.00,,---,0.00,VWS V14.01,2013-04-19 03:46:00,
2013-04-18 22:47:00,45.3,14.1,25.51,ENE,68,3.8,3.8,28,0.00,,---,0.00,VWS V14.01,2013-04-19 03:47:00,
2013-04-18 22:48:00,45.3,14.1,25.51,ENE,68,3.8,3.8,28,0.00,,---,0.00,VWS V14.01,2013-04-19 03:48:00,
2013-04-18 22:49:00,45.3,14.1,25.51,ENE,68,3.8,3.8,28,0.00,,---,0.00,VWS V14.01,2013-04-19 03:49:00,
2013-04-18 22:50:00,45.1,14.0,25.51,ENE,68,3.8,3.8,28,0.00,,---,0.00,VWS V14.01,2013-04-19 03:50:00,
2013-04-18 22:51:00,45.1,14.0,25.51,ENE,68,3.8,3.8,28,0.00,,---,0.00,VWS V14.01,2013-04-19 03:51:00,
2013-04-18 22:52:00,45.1,14.0,25.51,ENE,68,3.8,3.8,28,0.00,,---,0.00,VWS V14.01,2013-04-19 03:52:00,
2013-04-18 22:53:00,44.8,13.7,25.51,ENE,68,3.8,3.8,28,0.00,,---,0.00,VWS V14.01,2013-04-19 03:53:00,
2013-04-18 22:54:00,44.8,13.7,25.54,ENE,68,3.8,3.8,28,0.00,,---,0.00,VWS V14.01,2013-04-19 03:54:00,
2013-04-18 22:55:00,44.6,13.5,25.54,ENE,68,3.8,3.8,28,0.00,,---,0.00,VWS V14.01,2013-04-19 03:55:00,
2013-04-18 22:56:00,44.4,13.4,25.54,ENE,68,3.8,3.8,28,0.00,,---,0.00,VWS V14.01,2013-04-19 03:56:00,
2013-04-18 22:57:00,44.2,13.2,25.54,ENE,68,3.8,3.8,28,0.00,,---,0.00,VWS V14.01,2013-04-19 03:57:00,
2013-04-18 22:58:00,44.2,13.2,25.54,ENE,68,3.8,3.8,28,0.00,,---,0.00,VWS V14.01,2013-04-19 03:58:00,
2013-04-18 22:59:00,44.1,13.1,25.54,ENE,68,3.8,3.8,28,0.00,,---,0.00,VWS V14.01,2013-04-19 03:59:00,
2013-04-18 23:00:00,44.1,13.1,25.54,ENE,68,3.8,3.8,28,0.00,,---,0.00,VWS V14.01,2013-04-19 04:00:00,
2013-04-18 23:01:00,44.1,13.1,25.54,ENE,68,3.8,3.8,28,0.00,,---,0.00,VWS V14.01,2013-04-19 04:01:00,
2013-04-18 23:02:00,44.1,13.1,25.54,ENE,68,3.8,3.8,28,0.00,,---,0.00,VWS V14.01,2013-04-19 04:02:00,
2013-04-18 23:03:00,44.1,13.1,25.54,ENE,68,3.8,3.8,28,0.00,,---,0.00,VWS V14.01,2013-04-19 04:03:00,
2013-04-18 23:04:00,44.1,13.1,25.54,ENE,68,3.8,3.8,28,0.00,,---,0.00,VWS V14.01,2013-04-19 04:04:00,
2013-04-18 23:05:00,44.1,13.1,25.54,ENE,68,3.8,3.8,28,0.00,,---,0.00,VWS V14.01,2013-04-19 04:05:00,
2013-04-18 23:06:00,43.9,12.9,25.54,ENE,68,3.8,3.8,28,0.00,,---,0.00,VWS V14.01,2013-04-19 04:06:00,
2013-04-18 23:07:00,44.1,13.1,25.54,ENE,68,3.8,3.8,28,0.00,,---,0.00,VWS V14.01,2013-04-19 04:07:00,
2013-04-18 23:08:00,44.1,13.1,25.54,ENE,68,3.8,3.8,28,0.00,,---,0.00,VWS V14.01,2013-04-19 04:08:00,
2013-04-18 23:09:00,44.4,13.4,25.54,ENE,68,3.8,3.8,28,0.00,,---,0.00,VWS V14.01,2013-04-19 04:09:00,
2013-04-18 23:10:00,44.4,13.4,25.54,ENE,68,3.8,3.8,28,0.00,,---,0.00,VWS V14.01,2013-04-19 04:10:00,
2013-04-18 23:11:00,44.6,13.5,25.54,ENE,68,3.8,3.8,28,0.00,,---,0.00,VWS V14.01,2013-04-19 04:11:00,
2013-04-18 23:12:00,44.4,13.4,25.54,ENE,68,3.8,3.8,28,0.00,,---,0.00,VWS V14.01,2013-04-19 04:12:00,
2013-04-18 23:13:00,44.4,13.4,25.54,ENE,68,3.8,3.8,28,0.00,,---,0.00,VWS V14.01,2013-04-19 04:13:00,
2013-04-18 23:14:00,44.4,13.4,25.54,ENE,68,3.8,3.8,28,0.00,,---,0.00,VWS V14.01,2013-04-19 04:14:00,
2013-04-18 23:15:00,44.6,13.5,25.54,ENE,68,3.8,3.8,28,0.00,,---,0.00,VWS V14.01,2013-04-19 04:15:00,
2013-04-18 23:16:00,44.4,13.4,25.54,ENE,68,3.8,3.8,28,0.00,,---,0.00,VWS V14.01,2013-04-19 04:16:00,
2013-04-18 23:17:00,44.6,13.5,25.54,ENE,68,3.8,3.8,28,0.00,,---,0.00,VWS V14.01,2013-04-19 04:17:00,
2013-04-18 23:18:00,44.4,13.4,25.54,ENE,68,3.8,3.8,28,0.00,,---,0.00,VWS V14.01,2013-04-19 04:18:00,
2013-04-18 23:19:00,44.4,13.4,25.54,ENE,68,3.8,3.8,28,0.00,,---,0.00,VWS V14.01,2013-04-19 04:19:00,
2013-04-18 23:20:00,44.4,13.4,25.54,ENE,68,3.8,3.8,28,0.00,,---,0.00,VWS V14.01,2013-04-19 04:20:00,
2013-04-18 23:21:00,44.2,13.2,25.54,ENE,68,3.8,3.8,28,0.00,,---,0.00,VWS V14.01,2013-04-19 04:21:00,
2013-04-18 23:22:00,44.2,13.2,25.54,ENE,68,3.8,3.8,28,0.00,,---,0.00,VWS V14.01,2013-04-19 04:22:00,
2013-04-18 23:23:00,44.2,13.2,25.54,ENE,68,3.8,3.8,28,0.00,,---,0.00,VWS V14.01,2013-04-19 04:23:00,
2013-04-18 23:24:00,44.1,13.1,25.54,ENE,68,3.8,3.8,28,0.00,,---,0.00,VWS V14.01,2013-04-19 04:24:00,
2013-04-18 23:25:00,43.9,12.9,25.54,ENE,68,3.8,3.8,28,0.00,,---,0.00,VWS V14.01,2013-04-19 04:25:00,
2013-04-18 23:26:00,43.9,12.9,25.54,ENE,68,3.8,3.8,28,0.00,,---,0.00,VWS V14.01,2013-04-19 04:26:00,
2013-04-18 23:27:00,43.9,12.9,25.54,ENE,68,3.8,3.8,28,0.00,,---,0.00,VWS V14.01,2013-04-19 04:27:00,
2013-04-18 23:28:00,43.5,12.6,25.54,ENE,68,3.8,3.8,28,0.00,,---,0.00,VWS V14.01,2013-04-19 04:28:00,
2013-04-18 23:29:00,43.5,12.6,25.54,ENE,68,3.8,3.8,28,0.00,,---,0.00,VWS V14.01,2013-04-19 04:29:00,
2013-04-18 23:30:00,43.5,12.6,25.54,ENE,68,3.8,3.8,28,0.00,,---,0.00,VWS V14.01,2013-04-19 04:30:00,
2013-04-18 23:31:00,43.5,12.6,25.54,ENE,68,3.8,3.8,28,0.00,,---,0.00,VWS V14.01,2013-04-19 04:31:00,
2013-04-18 23:32:00,43.5,12.6,25.54,ENE,68,3.8,3.8,28,0.00,,---,0.00,VWS V14.01,2013-04-19 04:32:00,
2013-04-18 23:33:00,43.5,12.6,25.54,ENE,68,3.8,3.8,28,0.00,,---,0.00,VWS V14.01,2013-04-19 04:33:00,
2013-04-18 23:34:00,43.5,12.6,25.54,ENE,68,3.8,3.8,28,0.00,,---,0.00,VWS V14.01,2013-04-19 04:34:00,
2013-04-18 23:35:00,43.5,12.6,25.54,ENE,68,3.8,3.8,28,0.00,,---,0.00,VWS V14.01,2013-04-19 04:35:00,
2013-04-18 23:36:00,43.3,12.4,25.54,ENE,68,3.8,3.8,28,0.00,,---,0.00,VWS V14.01,2013-04-19 04:36:00,
2013-04-18 23:37:00,43.3,12.4,25.54,ENE,68,3.8,3.8,28,0.00,,---,0.00,VWS V14.01,2013-04-19 04:37:00,
2013-04-18 23:38:00,43.3,13.2,25.54,ENE,68,3.8,3.8,29,0.00,,---,0.00,VWS V14.01,2013-04-19 04:38:00,
2013-04-18 23:39:00,43.3,13.2,25.54,ENE,68,3.8,3.8,29,0.00,,---,0.00,VWS V14.01,2013-04-19 04:39:00,
2013-04-18 23:40:00,43.3,13.2,25.54,ENE,68,3.8,3.8,29,0.00,,---,0.00,VWS V14.01,2013-04-19 04:40:00,
2013-04-18 23:41:00,43.5,13.4,25.54,ENE,68,3.8,3.8,29,0.00,,---,0.00,VWS V14.01,2013-04-19 04:41:00,
2013-04-18 23:42:00,43.5,13.4,25.54,ENE,68,3.8,3.8,29,0.00,,---,0.00,VWS V14.01,2013-04-19 04:42:00,
2013-04-18 23:43:00,43.3,13.2,25.54,ENE,68,3.8,3.8,29,0.00,,---,0.00,VWS V14.01,2013-04-19 04:43:00,
2013-04-18 23:44:00,43.3,13.2,25.54,ENE,68,3.8,3.8,29,0.00,,---,0.00,VWS V14.01,2013-04-19 04:44:00,
2013-04-18 23:45:00,43.2,13.1,25.54,ENE,68,3.8,3.8,29,0.00,,---,0.00,VWS V14.01,2013-04-19 04:45:00,
2013-04-18 23:46:00,43.2,13.1,25.54,ENE,68,3.8,3.8,29,0.00,,---,0.00,VWS V14.01,2013-04-19 04:46:00,
2013-04-18 23:47:00,43.2,13.1,25.54,ENE,68,3.8,3.8,29,0.00,,---,0.00,VWS V14.01,2013-04-19 04:47:00,
2013-04-18 23:48:00,43.2,13.1,25.54,ENE,68,3.8,3.8,29,0.00,,---,0.00,VWS V14.01,2013-04-19 04:48:00,
2013-04-18 23:49:00,43.0,12.9,25.54,ENE,68,3.8,3.8,29,0.00,,---,0.00,VWS V14.01,2013-04-19 04:49:00,
2013-04-18 23:50:00,43.0,12.9,25.54,ENE,68,3.8,3.8,29,0.00,,---,0.00,VWS V14.01,2013-04-19 04:50:00,
2013-04-18 23:51:00,43.0,12.9,25.54,ENE,68,3.8,3.8,29,0.00,,---,0.00,VWS V14.01,2013-04-19 04:51:00,
2013-04-18 23:52:00,43.0,12.9,25.54,ENE,68,3.8,3.8,29,0.00,,---,0.00,VWS V14.01,2013-04-19 04:52:00,
2013-04-18 23:53:00,43.0,12.9,25.54,ENE,68,3.8,3.8,29,0.00,,---,0.00,VWS V14.01,2013-04-19 04:53:00,
2013-04-18 23:54:00,43.0,12.9,25.54,ENE,68,3.8,3.8,29,0.00,,---,0.00,VWS V14.01,2013-04-19 04:54:00,
2013-04-18 23:55:00,43.0,12.9,25.54,ENE,68,3.8,3.8,29,0.00,,---,0.00,VWS V14.01,2013-04-19 04:55:00,
2013-04-18 23:56:00,42.8,12.8,25.54,ENE,68,3.8,3.8,29,0.00,,---,0.00,VWS V14.01,2013-04-19 04:56:00,
2013-04-18 23:57:00,42.8,12.8,25.54,ENE,68,3.8,3.8,29,0.00,,---,0.00,VWS V14.01,2013-04-19 04:57:00,
2013-04-18 23:58:00,42.6,12.6,25.54,ENE,68,3.8,3.8,29,0.00,,---,0.00,VWS V14.01,2013-04-19 04:58:00,
2013-04-18 23:59:00,42.6,12.6,25.54,ENE,68,3.8,3.8,29,0.00,,---,0.00,VWS V14.01,2013-04-19 04:59:00,